GFSNW_sfc_temp_000.txt.gz
Temp
54 52 51 52 53 53 53 50 47 57 57 48 40 43 50 53 56 57 55 55 52 49 48 46 45 46 47 50 50 47 46 41 32 42 49 49 46 43 41 29 32 26 24 31
53 50 51 52 53 55 54 49 49 56 56 37 31 46 52 55 54 54 53 52 53 51 47 43 45 46 50 51 49 48 48 38 31 39 45 47 43 44 41 37 32 31 23 31
51 52 51 52 53 55 55 50 43 48 47 45 47 47 48 50 55 54 55 53 54 49 46 47 44 45 49 50 49 49 49 41 38 33 37 40 39 42 41 40 28 30 30 35
51 51 52 52 53 54 55 48 45 48 37 41 46 49 49 49 48 54 55 52 52 49 42 42 41 45 46 50 49 46 46 38 37 37 39 40 40 41 41 40 38 35 37 37
49 50 51 52 52 53 53 48 46 45 43 47 48 44 49 50 50 51 50 51 49 49 44 48 44 46 44 45 46 42 41 33 33 34 38 37 37 41 40 39 40 39 37 38
49 51 51 51 52 55 51 49 50 50 39 41 43 41 50 52 53 50 52 52 48 44 47 47 46 46 45 46 45 37 35 30 31 29 32 32 30 38 40 39 40 40 34 42
52 51 51 51 52 54 55 52 52 44 34 37 43 50 51 51 51 50 49 51 47 48 51 50 49 46 45 45 41 41 30 29 26 24 25 22 40 42 43 42 42 42 40 41
51 51 51 51 52 52 54 52 53 46 32 41 46 49 48 49 48 46 47 49 50 52 47 38 39 34 38 36 40 38 38 28 25 24 23 33 40 41 40 40 41 42 42 40
50 50 50 50 52 53 55 53 52 50 42 41 52 48 48 40 40 40 44 50 50 47 32 32 29 30 36 33 37 39 36 30 29 19 20 21 37 42 46 45 34 43 43 40
51 50 50 50 51 53 58 52 53 52 45 49 51 47 47 47 43 39 44 46 45 45 28 24 27 30 37 33 29 26 27 25 22 17 17 29 40 45 47 34 37 42 43 42
51 50 50 50 51 53 57 54 54 55 47 48 52 53 49 47 45 41 46 44 41 34 32 28 28 24 32 32 35 33 31 26 23 22 17 26 44 44 38 43 40 42 42 42
49 48 48 49 51 53 57 57 56 53 51 50 53 54 53 53 55 47 44 47 44 41 34 26 31 31 33 27 29 38 33 35 30 33 32 42 45 44 46 45 44 43 42 43
49 49 50 50 51 53 57 54 50 51 44 48 51 50 56 58 55 56 48 42 48 43 41 33 28 28 31 29 30 31 38 41 33 36 43 43 45 47 47 46 45 45 44 44
50 51 51 51 52 53 54 51 49 49 43 37 45 54 53 57 57 56 54 49 46 43 40 33 33 29 36 27 34 32 38 42 38 36 42 42 46 46 47 46 45 44 44 44
50 51 52 51 53 54 53 51 49 50 51 38 38 50 52 53 54 52 52 51 47 41 35 32 33 29 34 34 33 32 41 40 34 35 46 45 45 48 46 45 45 44 44 42
49 50 51 52 52 53 52 49 51 50 49 43 38 44 46 49 51 51 49 48 45 43 40 33 35 41 36 34 31 43 45 46 46 45 45 45 46 45 46 45 44 44 43 41
49 50 51 51 52 51 48 46 48 48 47 41 36 35 42 44 46 43 44 45 43 43 38 34 31 36 38 34 29 47 47 48 48 47 44 43 43 45 44 45 44 44 43 44
50 50 50 51 51 50 49 49 48 48 45 41 34 33 36 44 37 38 43 38 42 41 37 37 35 37 35 34 40 42 46 46 46 46 46 44 44 42 41 42 42 40 39 39
49 50 50 51 48 46 48 48 48 48 47 36 35 35 35 42 38 37 38 40 34 40 37 36 39 33 34 37 37 40 42 41 43 42 43 43 40 40 40 40 38 35 33 33
49 48 44 40 45 49 49 47 41 40 39 40 34 38 35 43 34 34 35 34 35 35 36 39 35 35 38 37 38 38 39 41 42 39 38 37 35 35 37 36 36 35 35 37
44 41 39 45 48 45 38 35 35 38 37 38 37 36 35 41 36 35 35 33 33 32 33 35 33 32 32 36 36 37 38 39 39 40 40 40 39 37 35 34 36 36 35 34
44 45 45 42 40 37 35 33 34 36 34 35 36 36 39 37 39 36 35 34 33 32 35 33 30 31 35 36 36 38 39 39 38 39 37 38 38 38 36 35 33 31 32 27
43 40 36 39 35 34 33 32 33 33 33 34 34 34 34 37 38 34 33 33 32 33 32 30 30 36 39 40 39 38 39 39 38 38 38 37 35 33 31 31 29 29 31 32
37 35 33 32 31 30 30 31 32 32 33 33 33 33 33 33 33 32 32 31 31 29 24 22 32 35 37 38 37 35 34 33 34 35 33 31 31 30 28 28 28 26 28 28
33 34 28 28 30 32 32 32 33 33 34 33 33 33 34 32 32 31 29 26 22 21 19 31 33 36 37 35 34 33 32 28 31 34 30 29 28 26 28 27 25 26 26 25
32 32 30 31 31 31 32 32 32 35 33 33 33 32 30 29 29 26 23 22 20 26 31 33 34 35 34 35 36 35 35 34 34 33 31 29 26 26 28 27 25 23 23 22
34 30 32 31 32 32 32 33 34 36 33 31 29 26 26 29 24 25 30 27 30 33 33 34 35 35 35 35 35 32 33 35 33 30 33 29 26 24 26 29 31 28 26 21

GFSNW_sfc_temp_003.txt.gz
Temp
54 54 54 54 53 53 52 51 48 58 56 50 44 45 51 53 57 60 58 57 55 52 52 50 50 50 53 54 56 54 53 48 43 49 55 56 55 50 48 41 38 35 36 45
54 54 53 52 53 54 52 50 52 58 57 41 37 49 54 56 56 56 57 55 56 55 50 47 50 51 54 54 55 52 53 46 40 46 52 54 52 49 46 43 40 36 36 45
54 53 51 52 53 54 55 51 45 51 49 48 49 49 51 52 56 56 57 55 56 52 50 50 47 49 53 54 53 48 52 45 45 42 45 48 46 47 47 47 40 39 40 47
53 51 51 52 53 53 53 50 47 51 41 43 48 52 52 51 51 57 58 55 55 52 46 47 46 50 51 53 50 50 51 44 44 43 43 46 48 46 46 46 46 43 46 44
52 51 51 52 52 54 51 48 47 46 46 48 49 46 50 52 54 54 54 53 53 54 48 51 46 49 49 50 50 48 46 40 41 40 42 42 43 47 46 45 45 45 45 46
51 51 51 52 52 56 52 51 52 52 40 43 45 44 49 52 55 52 55 55 52 49 52 52 50 49 48 50 49 43 42 36 38 36 37 38 37 42 46 45 47 49 43 52
50 50 51 51 53 55 55 53 52 46 36 41 45 49 53 53 53 52 53 54 52 51 54 53 53 50 47 48 44 45 36 36 34 35 31 33 48 49 49 47 48 49 48 49
51 51 51 51 53 55 56 53 54 47 34 43 46 49 49 50 50 49 50 51 53 54 51 43 42 39 40 39 42 42 43 36 31 34 34 39 47 45 45 45 49 51 50 50
50 50 51 51 52 54 55 54 53 51 42 42 52 49 50 43 44 44 46 52 53 50 39 38 36 37 41 40 41 43 40 36 38 31 33 31 44 49 51 52 42 52 50 47
50 50 50 51 52 54 56 54 55 54 47 50 52 49 48 49 46 43 46 49 48 50 37 34 36 39 41 39 34 32 34 31 33 26 33 37 46 50 52 41 45 49 49 48
50 50 50 51 53 54 57 54 55 56 49 51 54 54 49 49 49 45 48 48 46 40 37 36 36 35 39 39 41 36 38 34 31 27 30 33 48 50 44 51 50 50 49 49
47 48 49 51 53 54 55 56 56 56 53 52 54 56 56 57 56 50 47 51 47 46 40 35 34 33 33 33 37 42 38 41 39 39 40 48 50 50 52 51 51 52 50 51
50 50 50 52 54 54 57 56 53 52 47 51 54 53 58 58 56 58 51 46 50 47 46 38 35 35 35 33 35 38 42 44 40 40 48 46 48 52 52 54 53 53 52 53
50 51 51 52 53 54 56 55 51 51 46 38 47 54 53 56 57 57 56 50 47 45 45 36 35 36 39 34 40 38 43 44 42 41 46 48 51 51 54 54 51 51 51 51
51 52 53 52 53 54 55 52 51 51 54 40 42 51 52 53 54 53 53 52 49 45 40 35 37 36 37 36 37 37 44 44 41 41 51 51 51 55 54 52 53 53 50 46
50 51 51 53 52 52 52 51 52 50 50 45 39 46 47 49 52 51 49 49 47 46 45 38 40 42 42 35 37 47 48 49 51 52 52 51 52 53 54 52 52 50 48 47
50 51 52 52 51 52 49 49 50 49 49 43 38 38 45 46 47 45 46 47 45 46 40 37 37 39 42 34 36 49 48 50 51 51 50 49 50 51 49 48 45 45 45 44
50 50 50 50 50 50 50 49 49 48 47 43 36 35 38 45 40 39 43 41 44 42 40 38 37 39 38 36 41 42 45 46 47 47 49 49 46 45 44 45 44 41 40 40
49 50 50 51 49 46 48 49 48 49 48 38 34 36 36 43 39 38 40 42 36 41 37 38 41 34 34 35 36 38 39 40 43 44 43 43 41 41 41 41 38 35 35 36
50 49 46 40 45 49 49 47 43 41 40 42 34 39 36 43 36 35 36 37 34 35 37 40 36 35 37 37 38 38 38 40 44 42 38 37 36 36 36 36 38 36 36 37
46 42 40 46 48 46 39 35 36 38 35 39 38 36 37 42 38 36 36 34 34 33 36 36 34 32 34 38 38 39 39 40 40 41 40 40 38 36 35 35 36 37 37 37
45 45 45 44 41 37 36 33 35 33 33 35 36 36 40 37 42 37 36 35 34 33 36 33 31 31 37 38 37 38 39 40 39 40 39 39 38 39 38 37 36 34 34 33
45 41 37 40 35 32 28 31 33 33 33 34 34 34 35 38 38 34 35 33 33 35 33 31 30 35 36 37 38 37 39 40 40 40 40 39 38 35 32 33 32 32 33 33
35 34 32 31 32 31 32 32 33 33 33 33 34 33 34 33 34 33 34 32 32 30 29 28 31 35 34 38 38 38 38 34 35 37 35 33 32 31 31 31 30 29 31 31
34 34 27 29 31 32 32 32 33 33 34 34 34 34 35 33 32 31 31 29 26 26 27 31 33 34 37 37 36 36 35 30 33 37 33 30 29 28 31 29 29 30 29 29
34 32 30 31 32 32 32 33 33 35 34 34 34 32 31 29 31 29 27 27 24 29 31 33 34 34 34 36 37 36 36 36 36 35 33 31 29 29 30 30 30 27 28 27
33 31 33 32 33 32 32 33 33 36 34 32 32 30 28 31 27 27 31 28 31 33 33 36 37 36 36 36 36 33 35 36 34 33 33 31 28 27 29 28 29 29 30 30

GFSNW_sfc_temp_006.txt.gz
Temp
54 54 54 54 54 53 52 63 57 65 67 61 65 60 64 58 66 66 66 67 65 63 63 61 61 60 63 64 67 62 64 61 52 58 63 64 64 61 61 52 47 48 46 54
54 54 54 53 53 54 56 61 64 66 65 55 53 60 64 65 65 66 65 64 66 65 62 57 60 61 60 62 64 63 63 58 49 52 58 62 60 61 60 56 52 47 43 54
53 54 54 53 53 54 66 65 55 61 65 67 63 60 61 62 65 65 66 63 65 63 59 60 57 58 59 61 62 49 59 58 56 50 55 60 54 58 60 60 50 52 52 59
52 54 54 53 53 54 62 65 62 67 52 58 64 65 64 62 60 66 67 63 65 63 55 57 56 59 58 59 52 59 62 54 55 54 54 55 57 58 57 57 58 51 58 58
51 53 52 52 53 54 59 61 61 62 63 62 62 57 61 63 63 64 63 64 64 64 59 62 57 60 60 60 59 60 57 52 50 48 52 53 52 58 59 59 60 57 60 58
53 52 52 52 52 56 63 66 66 69 48 60 60 59 62 63 66 61 64 67 64 60 61 63 65 63 63 63 60 56 54 48 48 47 47 48 41 52 58 59 62 59 54 63
53 52 51 51 53 59 73 70 70 63 51 57 59 62 64 63 66 62 61 65 64 59 65 66 65 62 60 60 56 57 47 48 46 43 39 35 57 59 58 59 62 64 63 63
52 52 51 52 53 56 70 69 70 64 41 59 59 62 63 62 61 59 61 59 62 66 62 57 52 50 47 49 54 54 55 50 40 39 44 51 59 55 55 54 59 64 63 65
50 50 51 51 52 55 69 69 69 70 54 54 65 62 62 58 59 57 54 59 63 61 56 52 46 46 51 47 49 52 51 49 50 40 38 36 53 57 59 59 52 62 61 61
50 50 50 51 52 54 68 68 64 72 64 65 64 61 59 64 62 58 56 56 55 59 51 44 47 49 52 48 43 38 43 42 40 41 39 48 58 58 59 46 51 62 61 62
50 50 50 51 52 54 65 65 65 70 66 62 64 65 61 59 64 57 57 58 56 54 48 48 49 45 50 50 51 47 47 43 39 39 36 37 58 56 50 59 61 61 62 63
50 50 50 51 52 54 60 66 66 69 66 62 64 63 64 66 72 66 61 63 60 62 54 49 47 39 38 45 46 51 47 52 51 50 53 59 61 62 65 61 60 62 62 65
49 49 51 51 53 55 62 67 64 68 60 62 64 61 65 67 65 68 64 61 63 60 59 52 47 39 48 38 48 49 53 54 50 49 58 59 61 64 64 64 62 65 66 64
49 49 51 52 54 56 60 67 61 64 60 44 56 64 61 64 65 66 66 63 59 59 63 51 42 43 52 46 50 49 55 53 52 52 58 61 62 63 63 65 65 64 65 63
50 50 52 53 55 55 61 61 59 59 61 49 54 59 60 63 64 63 64 63 63 61 52 43 48 50 48 46 48 49 55 56 50 50 63 59 61 64 63 61 63 63 60 60
51 52 53 54 55 56 70 53 60 58 63 58 49 57 56 59 62 61 59 61 60 62 59 48 53 50 53 40 48 58 57 59 60 57 60 59 61 62 60 59 56 57 56 56
50 51 51 52 52 63 65 60 57 52 58 56 48 51 55 54 58 54 58 58 56 60 54 47 51 50 55 40 47 51 52 54 56 57 57 57 56 53 54 53 52 50 51 50
51 51 51 51 51 54 56 58 52 51 60 59 46 45 49 54 49 46 51 48 56 49 46 43 43 45 48 44 48 48 50 51 54 52 55 54 53 50 48 50 51 46 40 38
50 50 50 57 54 55 57 49 49 60 61 52 47 43 41 52 43 45 47 52 41 48 41 43 48 39 39 40 41 45 45 45 47 50 51 49 44 43 42 41 39 37 36 37
51 56 55 49 50 49 51 57 56 53 51 49 38 45 40 49 41 40 42 44 39 40 42 44 41 38 40 40 41 44 46 49 52 47 43 42 41 41 39 37 38 38 38 41
54 50 47 53 50 57 50 45 45 48 41 43 41 41 41 47 42 39 41 38 40 36 42 40 38 35 39 41 41 43 44 46 48 48 46 44 39 38 38 38 41 42 42 41
52 51 51 53 50 47 38 36 40 41 39 39 40 40 43 41 47 42 40 37 37 34 43 37 35 36 37 37 38 39 42 43 43 45 42 43 45 45 43 41 39 35 36 34
53 50 41 46 39 35 36 32 35 35 36 36 36 36 39 42 46 38 40 37 36 43 35 35 35 37 36 37 39 41 44 45 46 46 46 45 43 40 35 36 34 34 38 39
41 37 34 35 34 34 33 35 35 34 34 36 38 36 40 36 37 36 37 33 34 32 31 32 32 35 36 38 43 44 44 38 41 43 40 36 34 34 33 32 32 33 33 36
38 39 31 32 32 34 33 33 34 35 36 37 38 37 40 35 34 33 33 31 31 34 34 33 34 35 39 43 43 43 41 35 39 43 38 34 34 33 34 33 33 33 32 32
35 34 32 33 33 32 33 33 33 36 36 37 37 33 33 31 34 32 32 32 31 32 34 34 36 37 41 42 42 41 42 42 42 40 38 35 32 32 33 32 31 31 31 31
34 32 32 33 32 32 32 33 33 36 34 32 34 33 31 34 32 31 35 32 34 33 34 36 38 40 41 42 41 37 39 40 39 37 35 32 31 31 31 31 33 32 33 31

GFSNW_sfc_temp_009.txt.gz
Temp
55 55 55 54 54 54 54 62 56 68 71 60 63 60 67 66 72 73 71 71 70 67 68 65 66 65 69 74 74 67 72 66 55 62 69 71 70 66 65 52 51 54 50 55
54 54 55 54 53 54 62 60 63 65 67 54 56 67 69 71 70 70 69 68 72 73 67 62 67 68 66 68 70 68 69 62 52 56 63 68 64 67 67 65 57 52 45 55
54 54 54 53 53 55 66 65 56 58 58 69 65 63 65 64 72 71 73 72 73 69 66 69 64 65 64 67 70 53 62 65 59 51 59 66 59 64 66 63 52 53 56 61
54 54 54 53 53 55 63 67 63 67 52 62 66 67 67 65 64 71 73 69 69 67 61 64 63 67 63 64 54 64 66 57 62 64 63 63 64 64 65 62 62 55 60 64
54 53 53 52 53 55 58 63 66 70 65 66 65 60 65 66 68 69 66 67 70 71 65 65 63 66 65 63 65 65 65 57 57 53 62 61 59 64 65 65 65 65 66 64
53 52 52 52 53 56 60 70 69 71 57 64 63 64 66 68 71 67 73 72 69 67 68 70 71 72 71 71 65 62 60 54 51 49 54 54 44 54 62 65 68 66 58 67
53 51 49 52 53 58 70 69 73 59 56 64 63 67 68 69 70 66 69 73 70 66 74 73 71 69 68 66 64 67 53 54 52 47 41 34 61 67 66 64 68 71 69 70
51 50 49 52 53 54 69 71 72 66 47 65 65 67 68 71 69 68 67 66 71 73 71 60 54 53 51 55 61 61 63 56 46 41 47 56 61 63 61 59 61 69 67 70
50 50 51 51 52 55 59 63 75 73 60 61 71 67 69 63 64 61 59 67 72 68 64 56 50 48 55 51 55 60 58 55 52 46 38 35 56 62 65 65 55 67 67 66
50 51 51 51 52 53 58 72 71 76 66 72 71 66 65 71 68 64 60 60 60 65 55 45 51 52 59 51 47 40 47 46 43 45 41 51 64 64 65 49 53 65 66 67
51 51 51 51 52 52 56 73 74 76 70 69 72 75 69 70 70 60 63 61 61 58 51 49 55 49 55 55 58 52 50 46 42 46 37 37 65 62 53 61 66 67 67 67
50 50 51 51 51 51 54 69 74 80 74 66 71 71 71 76 77 73 65 69 65 65 61 55 55 44 42 53 47 60 51 57 54 55 55 64 67 66 69 68 65 66 66 68
49 50 50 51 51 52 55 72 73 76 67 66 66 65 69 73 71 72 68 70 73 68 70 59 55 42 53 41 52 56 60 61 55 54 64 65 67 70 70 69 67 69 69 68
49 49 50 50 51 52 55 73 74 76 66 51 60 70 66 69 71 72 72 72 69 68 69 57 46 46 61 52 57 55 61 60 58 58 64 66 67 68 68 68 68 68 69 67
49 50 50 51 52 54 64 71 70 71 70 51 57 65 65 69 70 70 70 69 67 65 56 46 52 57 55 54 55 55 63 61 53 52 64 61 64 67 66 64 63 63 62 62
49 50 51 52 54 58 70 62 68 67 66 60 52 64 61 67 70 70 69 70 70 71 62 53 62 60 59 44 51 61 63 63 62 60 64 63 64 64 62 59 58 58 57 57
49 50 52 53 55 69 63 64 61 56 70 59 51 54 60 62 66 64 65 66 65 69 62 55 57 57 60 45 50 57 57 58 59 60 61 60 58 55 57 56 55 51 50 48
51 52 53 53 53 51 61 55 51 53 64 63 50 48 53 62 54 53 62 58 64 58 55 53 52 54 54 49 54 54 55 57 56 56 59 57 56 55 52 51 46 41 39 40
52 52 52 64 62 61 58 48 51 60 58 55 50 44 42 60 51 52 54 60 47 55 43 48 53 43 44 47 49 51 51 51 53 55 55 53 49 47 45 43 42 39 40 44
51 66 62 55 56 49 52 53 55 57 58 56 42 54 44 56 45 43 47 46 43 41 45 52 44 44 48 47 49 51 53 55 55 48 46 47 45 43 42 41 42 44 45 46
62 54 47 56 52 60 55 48 51 54 46 47 45 46 46 52 44 40 44 40 43 38 44 42 40 38 44 47 48 49 50 53 52 52 50 48 45 43 41 43 44 41 40 40
55 55 57 59 56 50 41 39 42 45 41 40 42 42 47 45 54 45 44 38 40 37 48 39 38 38 41 40 41 45 49 49 48 48 47 46 46 46 42 41 40 37 36 33
62 54 44 50 42 37 35 33 37 35 38 38 39 38 43 46 49 41 42 35 38 47 38 39 39 39 38 39 43 46 49 50 50 49 49 47 43 39 38 37 33 34 39 41
45 40 35 37 35 34 34 35 35 34 35 39 41 39 40 40 38 38 36 35 39 34 33 35 36 36 37 40 45 47 46 41 45 44 41 38 35 33 33 33 33 33 32 35
37 40 32 32 33 34 33 33 35 35 38 40 42 42 46 37 36 36 35 32 33 35 34 34 35 36 38 42 46 45 42 36 43 43 37 34 35 34 33 32 33 32 32 32
37 35 33 33 33 32 33 33 33 37 37 40 43 36 35 33 35 34 34 34 34 33 34 35 35 37 39 44 44 44 45 44 43 42 38 34 32 33 33 34 33 32 32 31
35 33 33 33 33 32 32 33 33 37 35 33 36 34 32 35 34 32 35 33 34 33 34 37 37 38 41 44 43 39 42 43 41 38 35 33 33 34 34 34 35 35 34 31

GFSNW_sfc_temp_012.txt.gz
Temp
51 53 55 55 54 54 52 60 50 67 66 52 57 53 62 64 71 76 72 72 70 67 68 65 65 61 68 76 75 66 71 64 52 61 71 73 69 64 64 48 48 51 46 50
51 52 54 55 54 53 53 56 57 64 66 50 51 59 63 68 69 70 69 68 71 73 67 62 66 69 69 71 71 66 70 60 49 55 63 68 63 66 67 65 55 48 41 50
50 52 54 54 53 54 55 59 47 52 56 64 59 57 60 62 72 72 73 71 73 70 66 70 65 66 66 69 70 55 64 63 57 48 57 64 58 63 66 63 46 47 49 58
49 52 54 54 53 53 52 57 56 59 45 54 60 63 63 62 63 71 74 69 69 67 61 64 63 68 64 66 56 65 66 55 60 63 66 64 63 63 64 61 61 51 57 60
49 52 53 54 53 53 50 54 60 64 59 60 59 58 61 63 67 68 66 66 69 70 64 65 62 67 64 62 64 64 66 55 56 53 62 63 58 63 64 64 64 63 64 62
51 53 53 53 53 52 51 64 65 64 56 58 58 59 64 65 69 71 74 71 69 67 69 71 71 70 70 71 64 61 60 52 48 45 54 52 43 53 59 62 66 65 55 65
52 53 53 53 52 52 62 65 64 53 53 59 60 63 67 67 70 66 72 74 70 69 76 74 72 70 68 68 65 69 53 52 48 43 40 35 58 69 68 63 66 69 69 70
52 53 52 52 52 53 57 66 57 54 46 61 64 64 67 70 71 69 70 68 72 75 70 58 53 50 49 56 64 63 64 53 45 38 43 52 58 64 62 60 59 67 65 66
52 51 51 50 50 52 55 59 60 57 56 59 70 66 69 63 63 62 60 71 75 73 62 53 48 46 53 51 54 62 60 55 48 44 38 35 55 63 67 66 50 66 66 64
52 51 50 49 50 51 54 56 60 57 57 69 69 65 64 71 65 61 62 61 61 67 52 43 50 49 61 48 45 39 44 45 40 43 39 46 64 65 67 47 49 64 65 65
50 49 49 49 50 51 52 55 59 58 59 69 74 76 70 70 68 57 62 60 62 58 50 48 52 46 54 54 58 49 46 43 40 44 35 34 66 63 51 59 65 65 65 65
50 49 49 50 50 51 52 51 59 64 59 64 71 70 73 74 77 68 64 66 63 63 59 54 54 41 41 48 45 63 49 55 51 51 49 63 67 65 69 68 65 64 64 66
50 50 50 51 51 51 52 53 58 66 64 64 67 66 71 74 71 74 65 68 73 69 71 59 54 41 51 40 49 56 61 64 54 54 63 65 67 70 70 69 67 68 68 67
49 50 50 50 51 51 52 53 59 65 65 47 58 71 68 71 73 73 73 72 71 69 68 56 44 44 61 49 56 53 60 61 57 57 62 66 68 66 66 66 66 65 65 63
49 50 50 50 51 51 53 55 60 70 69 53 57 66 68 71 71 71 72 70 68 64 55 43 51 57 53 53 55 53 63 60 52 48 61 59 61 63 63 61 59 60 60 57
49 50 50 50 51 51 55 53 69 68 75 59 50 63 64 69 70 70 68 69 68 68 59 52 60 62 58 44 48 63 62 62 62 59 62 61 61 60 59 56 56 56 54 53
49 50 50 51 51 59 55 56 56 53 70 59 49 50 60 69 68 67 66 69 68 67 61 55 55 56 58 43 48 58 58 59 59 60 60 55 57 53 56 52 50 48 47 46
49 50 50 51 50 51 55 58 55 54 63 55 48 42 51 63 55 53 63 60 62 57 54 55 52 53 53 47 55 56 56 58 56 57 58 55 55 54 49 48 46 43 42 43
50 51 51 57 60 58 58 50 52 64 60 44 48 42 40 60 52 52 55 60 48 55 44 51 53 43 44 52 53 52 53 54 54 55 55 53 49 46 45 45 44 43 43 44
52 59 62 51 51 50 51 60 55 54 51 51 44 49 44 53 44 43 45 46 46 41 44 53 45 44 50 51 53 54 54 56 55 48 45 46 44 43 42 43 44 41 41 41
64 56 49 54 51 60 55 46 47 44 41 48 47 46 45 52 43 39 43 41 42 38 43 43 41 39 46 50 49 52 54 54 53 51 49 47 44 42 42 40 41 39 39 35
58 57 57 55 52 49 39 38 42 42 40 40 40 44 47 46 54 43 42 37 40 37 46 39 38 41 46 44 45 48 50 50 48 48 46 45 44 44 41 38 36 34 33 32
62 53 42 47 41 36 35 33 36 36 36 37 39 37 43 45 49 41 41 35 36 47 36 38 39 41 41 42 46 47 49 49 48 46 45 43 39 37 35 33 33 34 36 34
44 38 34 35 34 33 33 33 34 34 34 37 40 38 39 39 36 37 35 34 40 34 33 35 36 38 38 42 46 46 44 40 41 41 37 34 32 32 32 32 33 32 32 33
38 39 32 32 33 33 33 33 34 35 38 38 42 41 42 36 34 36 35 33 33 35 34 35 36 37 39 42 44 41 39 36 39 38 34 33 33 32 31 32 33 32 30 29
35 34 32 33 33 32 32 32 33 36 37 41 42 37 35 33 35 35 34 34 34 32 33 34 36 36 37 39 41 40 42 41 39 37 34 33 33 32 33 32 31 29 28 26
34 32 32 33 32 32 32 33 33 37 37 33 36 33 31 35 33 32 33 31 33 32 33 35 36 36 38 41 39 39 40 39 38 35 34 33 33 33 34 33 34 35 32 27

GFSNW_sfc_temp_015.txt.gz
Temp
52 51 53 54 54 54 52 51 43 56 59 44 47 42 51 56 62 66 63 63 61 58 61 57 56 56 59 67 66 57 56 50 37 51 63 65 61 55 53 35 40 35 32 39
51 51 52 54 54 54 51 47 50 57 59 40 40 49 54 58 59 60 62 60 62 61 59 51 57 58 63 64 63 58 58 49 34 44 53 59 55 58 59 53 41 38 29 38
51 50 51 52 54 54 52 48 43 49 50 53 49 47 50 51 62 61 65 64 63 59 58 60 56 54 61 62 60 53 58 54 45 36 46 53 49 56 57 52 34 35 36 47
49 50 50 51 54 54 52 48 47 53 43 45 48 53 53 52 53 62 65 61 60 58 51 55 54 55 56 60 55 58 56 47 49 53 56 58 55 56 56 53 50 41 46 50
50 51 50 51 53 54 48 45 50 49 47 51 48 51 51 54 57 60 59 58 61 60 55 56 54 58 55 54 55 54 56 43 44 42 54 53 49 53 54 54 54 52 53 51
51 51 50 49 52 53 47 49 53 55 49 49 47 50 54 56 60 62 67 62 59 56 59 61 60 59 58 59 53 51 49 41 37 35 44 44 35 46 52 54 56 53 45 54
51 51 49 49 52 53 50 52 52 49 44 49 50 56 58 58 59 57 65 64 58 61 65 62 60 58 56 55 54 57 44 42 35 32 33 26 48 59 59 55 56 56 56 56
50 50 49 50 52 53 50 53 52 50 38 52 54 56 58 61 62 60 61 62 65 64 59 46 44 38 42 46 56 53 52 39 34 31 30 41 50 55 52 50 49 56 53 55
49 50 50 51 53 53 51 51 52 51 47 49 60 57 60 52 51 50 55 60 61 64 47 39 37 33 42 41 49 53 52 44 35 31 28 25 43 55 60 58 38 55 55 54
49 49 51 52 52 52 51 50 53 49 49 54 60 57 56 58 53 47 52 52 52 56 35 35 34 35 51 38 37 35 33 33 31 26 25 35 53 58 58 38 39 54 56 54
49 51 51 51 51 50 50 49 53 51 50 52 58 65 58 57 53 45 53 48 49 41 39 36 35 33 39 39 46 41 36 32 29 32 29 29 58 56 45 47 53 55 54 53
50 50 50 50 51 49 50 47 54 55 49 53 60 63 66 67 64 56 52 51 53 50 43 40 38 34 35 37 33 51 37 43 36 40 36 50 56 55 57 57 55 54 55 55
50 50 50 50 50 50 50 48 53 53 50 52 55 57 60 65 65 66 53 54 60 56 54 44 40 36 35 34 35 42 50 55 41 44 52 55 58 58 59 57 55 56 54 54
49 49 49 50 49 50 51 48 52 52 51 41 51 66 59 65 66 65 64 61 60 58 53 41 38 37 48 35 43 39 47 52 49 47 52 53 54 54 55 55 55 54 52 49
49 49 49 50 50 51 51 51 52 54 50 44 47 59 62 65 64 63 63 61 57 50 43 36 38 40 42 36 39 36 51 49 39 35 52 49 49 52 54 51 50 51 47 45
49 49 50 50 50 50 50 47 53 54 54 49 40 54 58 61 62 61 60 59 55 53 46 40 45 52 43 34 32 50 52 53 53 49 53 51 50 48 48 45 45 45 44 44
49 49 50 50 50 51 48 49 52 52 51 48 41 40 53 59 59 53 55 58 53 51 48 40 42 45 46 33 34 49 52 52 52 53 52 47 49 43 46 44 43 43 42 41
49 49 49 49 50 51 50 54 51 51 53 50 38 39 43 56 43 42 50 45 47 46 43 42 37 42 36 35 46 49 52 52 51 50 51 47 46 44 43 43 42 40 38 40
49 49 49 50 49 50 51 52 51 56 51 39 37 37 37 52 43 41 44 46 37 43 35 36 40 32 36 45 46 47 49 48 48 49 47 45 42 43 43 41 39 40 38 39
49 51 50 42 49 51 51 53 46 44 46 44 37 43 39 47 37 37 38 37 35 32 35 43 36 31 43 46 46 47 49 50 48 40 39 40 41 41 40 39 40 39 38 36
51 48 43 49 51 52 44 37 37 39 35 38 38 40 39 46 38 36 38 35 35 32 35 34 29 30 41 44 45 46 46 47 47 47 45 44 42 39 38 36 35 32 30 30
52 52 51 50 48 42 36 34 35 36 35 36 37 39 43 38 45 35 38 34 34 30 38 35 33 35 39 42 43 45 45 43 43 44 42 42 41 39 35 32 31 31 31 31
51 45 39 43 36 34 29 30 32 33 34 35 35 35 38 40 41 36 36 36 33 35 33 33 32 38 40 42 44 44 44 43 42 40 38 37 35 34 33 32 32 31 31 31
39 35 31 33 32 31 31 32 32 33 33 34 36 35 35 35 35 34 34 33 35 32 30 30 33 36 38 41 44 42 40 36 34 34 32 31 31 30 31 31 31 28 27 29
33 33 30 30 31 32 32 33 33 33 35 35 36 36 37 33 33 33 33 32 31 31 30 32 35 37 39 40 39 37 35 34 33 33 31 30 30 29 29 29 28 28 26 25
34 32 31 32 32 32 32 32 32 36 34 35 35 34 33 32 33 33 31 31 28 29 31 33 36 36 37 37 37 38 37 35 33 33 32 31 30 28 29 28 26 24 22 20
32 31 32 32 32 31 32 32 33 36 34 33 33 31 29 32 31 29 31 28 30 31 32 34 36 35 36 36 36 35 35 33 32 32 32 31 31 28 28 28 29 29 26 19

GFSNW_sfc_temp_018.txt.gz
Temp
51 52 53 53 53 53 52 48 41 54 57 43 45 43 49 51 56 61 58 58 55 54 54 53 52 53 58 62 58 54 54 47 35 49 59 64 55 52 50 34 39 32 30 39
51 51 52 52 53 53 48 44 47 54 56 38 38 47 50 53 54 56 56 56 59 59 54 49 53 55 60 63 60 55 53 45 34 43 51 54 52 55 53 47 37 36 29 37
50 51 52 52 52 53 49 45 40 46 48 50 45 43 45 46 56 55 57 57 57 55 52 55 53 53 58 59 60 51 55 49 43 36 44 50 46 52 52 48 33 35 35 45
50 51 51 52 52 52 49 46 46 48 38 42 47 47 47 45 46 57 59 55 56 53 48 48 50 53 53 56 53 57 53 46 47 49 51 52 51 51 50 49 47 39 45 46
50 51 51 51 51 52 45 43 46 47 44 48 44 46 45 46 50 53 54 53 56 55 52 53 51 54 52 52 53 53 52 43 42 42 48 49 46 50 50 50 50 48 49 48
50 50 50 51 50 51 44 48 51 49 46 45 43 44 48 49 53 56 59 57 55 51 57 58 57 58 57 56 52 48 47 39 36 36 40 42 34 44 49 51 52 51 42 49
50 50 50 50 50 50 49 49 50 46 41 46 45 48 51 51 54 52 59 61 55 57 61 58 56 54 53 53 51 53 42 39 33 30 32 26 46 54 54 50 50 51 51 51
50 49 49 50 50 49 47 50 48 45 35 47 48 50 51 55 56 55 58 59 62 62 55 45 42 37 41 46 52 51 52 38 32 30 30 39 47 52 50 47 44 51 50 52
48 49 50 50 50 50 48 48 49 46 42 45 54 50 54 49 50 51 53 57 57 57 43 37 35 34 40 39 45 50 46 41 35 29 28 25 41 51 56 53 37 52 52 50
49 49 50 49 50 50 48 48 50 46 45 50 56 50 51 57 49 50 49 51 50 52 35 32 32 34 46 36 36 34 32 31 29 23 24 33 48 54 54 38 39 52 51 50
49 49 50 49 49 50 49 48 51 48 45 49 54 59 56 56 53 45 49 48 47 39 37 36 33 31 37 37 42 39 36 31 26 31 25 30 52 52 44 46 48 52 51 51
48 49 49 49 50 51 51 46 51 53 46 48 53 56 59 64 59 52 49 51 51 49 42 37 36 32 32 35 32 46 37 40 35 37 36 48 52 52 53 53 52 51 51 51
48 48 49 50 51 52 51 48 50 48 46 48 50 51 59 63 63 65 50 50 55 53 52 41 39 36 33 31 32 40 46 50 39 42 48 48 51 51 52 52 50 50 50 51
49 49 50 50 51 51 52 48 50 50 48 40 48 60 57 62 66 63 61 59 56 55 48 39 35 36 43 33 41 38 45 50 46 43 45 50 49 50 50 49 48 46 47 47
49 50 50 51 50 51 50 49 50 51 47 41 43 53 59 60 63 62 61 59 56 49 43 34 36 36 41 32 37 34 48 46 38 37 50 46 45 47 49 47 45 45 43 41
49 49 50 50 50 50 49 43 50 51 52 44 38 52 54 57 60 60 59 55 53 50 43 35 42 48 40 32 31 47 49 50 51 47 49 46 44 45 46 42 42 42 41 40
48 49 50 50 50 50 46 45 51 52 53 44 39 40 50 54 54 51 52 52 50 48 45 38 41 43 41 30 33 46 47 49 48 49 48 43 44 39 42 41 41 41 40 39
49 49 49 50 50 50 49 52 51 53 50 48 38 38 42 53 41 42 48 43 44 44 43 40 36 40 33 34 43 46 47 47 46 45 46 43 42 41 40 41 40 38 37 37
49 49 49 49 48 46 48 50 50 52 50 40 37 37 37 47 41 40 41 41 37 43 35 36 39 35 33 41 44 45 46 45 41 43 42 41 39 39 39 38 37 36 35 35
49 48 46 41 47 50 52 50 45 44 44 41 37 41 38 44 36 37 35 37 34 32 34 40 34 28 40 42 44 45 45 44 43 37 36 38 38 39 39 38 39 37 35 32
47 45 42 49 50 49 43 37 37 39 35 38 39 36 39 45 37 35 36 34 33 28 32 33 33 31 37 41 41 44 45 45 44 44 43 41 39 38 36 34 33 31 31 31
50 49 49 48 45 38 35 33 35 35 33 35 36 38 40 40 45 37 36 34 33 32 36 31 27 33 38 39 39 40 41 42 41 42 40 40 39 37 34 30 30 31 31 31
48 43 37 41 34 32 28 29 32 32 33 35 35 35 37 39 41 35 35 34 32 31 31 31 30 38 40 40 40 40 42 41 39 38 37 36 34 33 32 30 30 31 31 29
37 34 30 33 31 30 30 31 32 32 33 34 34 34 35 34 35 33 34 33 34 31 28 29 33 37 38 40 41 38 36 34 33 32 31 31 31 30 31 30 29 28 26 27
33 33 28 29 31 32 32 32 33 33 35 34 35 35 37 33 34 33 33 31 29 30 29 31 34 37 38 38 37 35 33 32 31 31 30 30 30 29 28 27 28 27 25 23
31 32 31 32 32 31 32 32 32 35 34 34 35 33 32 31 33 31 30 30 27 29 30 32 35 35 36 36 35 35 34 33 31 31 31 30 28 28 28 27 25 24 23 20
31 30 32 32 32 31 32 32 33 36 34 32 30 30 29 32 29 27 29 27 29 31 32 34 35 34 34 35 34 33 33 32 32 31 31 30 29 28 27 26 27 27 25 20

GFSNW_sfc_temp_021.txt.gz
Temp
52 52 53 54 53 53 50 45 38 52 57 43 44 40 48 52 55 56 54 54 52 50 51 50 49 50 56 59 56 52 52 46 35 49 54 56 53 50 47 33 37 31 29 36
51 51 52 53 53 53 47 40 44 52 54 39 39 45 47 52 52 52 52 52 54 53 50 47 50 51 58 57 56 51 52 43 33 41 48 51 48 51 49 44 36 34 28 37
51 51 51 52 53 53 47 43 37 44 47 50 45 42 43 44 54 51 53 52 54 51 50 52 49 50 55 57 55 52 54 45 43 38 43 47 43 49 49 46 32 34 34 43
51 51 52 52 52 52 47 42 42 47 37 41 44 46 45 44 45 51 53 49 50 48 43 46 46 50 52 54 52 51 52 45 45 46 49 50 49 49 47 46 45 38 44 43
51 51 51 51 51 52 43 39 42 47 41 46 43 44 43 44 47 48 48 49 53 53 47 49 47 51 49 50 51 49 50 41 43 39 45 46 45 49 48 48 47 46 45 45
51 51 51 50 50 51 41 45 48 47 44 43 42 42 44 46 50 50 54 54 52 47 52 56 55 53 54 55 51 46 45 38 36 36 38 39 34 42 47 48 50 49 41 49
50 50 49 49 51 50 44 47 47 43 38 42 42 45 47 47 49 47 53 55 49 54 56 55 54 51 51 51 48 50 40 37 33 30 32 25 45 49 50 47 46 48 47 48
50 50 49 51 51 51 42 48 46 44 35 45 45 46 46 50 51 49 52 55 60 58 52 44 41 36 41 43 48 48 47 36 31 31 30 38 45 48 47 45 43 47 47 47
49 49 50 50 50 51 44 47 50 45 41 42 51 46 48 44 45 46 49 59 55 53 41 35 35 33 39 37 43 47 43 39 36 28 30 27 41 48 53 51 36 49 48 48
49 49 49 49 50 50 44 47 50 46 41 47 52 46 46 52 48 45 47 50 49 50 33 30 32 32 44 36 35 34 32 30 30 24 25 33 45 51 53 37 39 49 49 48
49 49 49 49 50 50 47 45 50 46 42 44 49 52 49 51 51 44 47 50 46 36 38 35 32 31 37 35 40 38 36 31 27 26 24 31 50 50 43 45 46 49 48 48
48 48 49 49 50 50 49 43 50 52 45 43 50 51 52 50 60 54 47 50 48 47 41 37 34 31 29 35 31 43 37 39 35 37 36 47 49 49 50 49 49 48 49 48
48 48 49 49 49 50 48 46 49 48 43 43 45 49 54 58 56 64 49 47 52 49 50 41 37 36 34 32 32 37 43 46 39 40 45 46 47 48 50 50 49 49 48 48
48 48 49 49 49 50 50 46 50 48 46 38 46 57 52 58 58 59 58 57 52 50 48 39 34 36 42 32 40 36 43 46 42 39 42 45 46 45 45 45 45 44 45 44
48 48 49 49 50 50 50 49 50 50 45 39 43 52 54 56 56 60 57 56 51 44 41 36 39 38 40 31 36 32 45 44 38 36 47 46 44 45 46 44 42 43 42 40
48 49 49 50 50 50 47 41 47 50 50 42 37 48 50 53 54 58 54 55 50 47 42 36 42 47 42 34 31 46 48 48 49 48 46 44 42 42 43 41 41 41 40 40
49 49 49 50 50 48 43 41 46 50 50 42 38 39 49 51 50 48 50 51 49 48 44 35 39 42 41 28 33 46 45 45 44 45 44 39 40 37 40 40 39 40 38 38
48 48 49 50 50 50 46 51 50 52 47 46 36 36 41 50 40 44 47 44 45 44 42 38 35 39 32 35 42 43 44 44 42 41 43 42 40 39 38 39 38 36 34 34
49 49 49 48 46 43 45 49 50 52 48 39 35 34 36 47 42 41 41 43 37 43 37 37 42 36 35 39 41 42 44 43 38 40 40 39 37 37 37 36 36 34 33 34
49 48 44 40 43 50 50 48 44 44 45 41 35 41 38 45 36 37 37 36 34 34 35 40 35 34 39 39 43 43 42 41 41 36 34 35 34 35 35 35 38 36 34 32
46 42 40 48 50 48 41 34 35 38 34 37 39 38 39 44 38 36 35 34 32 30 34 34 32 32 36 37 40 43 43 43 43 43 41 40 38 36 34 33 33 32 32 31
46 48 49 47 44 39 33 32 34 34 34 35 36 37 41 38 43 36 36 33 32 29 36 30 31 32 35 35 36 38 40 40 40 41 39 38 37 36 34 32 31 31 31 29
47 43 38 39 33 31 31 30 31 32 33 35 34 34 36 38 40 34 33 30 27 35 27 29 29 37 36 37 38 39 40 40 39 38 37 35 33 33 31 30 31 30 29 29
37 36 30 31 29 29 30 31 32 32 32 33 34 34 35 33 34 33 34 32 34 30 27 27 33 36 37 38 38 37 35 34 34 33 33 31 30 30 30 30 28 27 26 27
33 33 27 29 31 32 32 32 33 33 34 34 35 35 36 33 33 32 32 32 29 29 25 31 34 37 37 36 35 33 32 31 31 31 30 30 29 28 27 27 26 25 23 22
33 32 30 32 31 31 32 32 32 36 33 34 35 33 32 31 32 31 28 29 26 28 30 32 34 35 34 34 33 32 32 31 30 30 31 30 28 27 27 26 25 23 22 19
31 30 32 32 32 31 32 32 33 35 34 32 27 29 28 32 28 26 28 25 27 30 32 33 33 33 32 32 32 32 31 31 30 30 30 29 27 27 26 25 25 25 22 19

GFSNW_sfc_temp_024.txt.gz
Temp
52 52 53 53 52 53 50 45 34 51 56 42 44 40 45 50 53 56 53 52 50 48 49 46 47 47 53 56 54 50 51 45 35 47 51 54 50 48 45 34 36 30 28 34
52 52 52 53 52 53 47 40 42 51 53 36 38 46 47 49 51 51 51 49 52 51 47 44 48 49 55 54 54 50 50 41 32 40 46 48 46 47 46 41 35 33 27 35
51 52 52 52 52 52 47 41 34 43 46 48 43 42 42 42 52 51 51 49 51 49 48 49 47 48 52 53 55 51 53 43 41 38 42 45 41 46 45 44 32 34 33 41
51 51 52 52 51 53 47 40 37 44 35 38 42 45 45 41 43 52 52 46 47 47 41 44 44 47 49 52 50 50 51 42 42 45 47 47 47 47 44 43 42 38 42 41
51 51 52 50 51 53 44 37 38 44 38 43 42 44 42 42 45 47 45 45 49 48 44 47 44 47 47 48 49 47 47 41 40 38 44 44 43 46 45 44 43 43 43 43
51 51 51 51 51 51 41 42 44 42 42 41 39 41 44 45 48 49 51 50 48 44 50 55 54 53 51 50 48 45 44 38 36 37 36 38 34 41 45 44 46 47 40 47
51 51 49 50 50 50 42 43 46 40 34 41 40 43 46 46 47 46 51 52 46 52 56 54 52 49 48 49 46 47 38 37 33 29 31 25 44 47 47 46 46 47 45 46
50 50 51 50 51 52 43 44 44 42 34 42 44 44 44 47 50 47 49 52 56 58 52 45 41 36 38 40 44 44 45 36 32 31 30 37 43 46 45 44 44 47 45 45
49 50 50 50 50 51 46 44 44 43 39 38 48 44 45 41 43 43 47 55 56 52 44 36 34 34 38 36 41 44 43 38 36 28 27 26 40 49 50 49 37 47 46 45
49 49 50 50 51 51 47 42 46 43 38 44 47 43 43 49 46 41 44 48 46 51 32 32 32 34 43 35 36 34 32 30 30 23 25 33 45 49 50 37 40 47 48 46
49 49 50 50 50 51 46 42 48 44 41 44 47 49 46 48 48 39 44 46 43 36 36 35 34 29 36 34 39 38 37 31 27 27 25 30 48 47 43 46 43 46 47 46
49 49 49 49 50 50 49 40 47 46 43 44 49 49 49 48 54 51 46 46 45 46 40 35 33 33 28 34 32 41 38 40 35 38 37 46 47 47 50 48 47 47 47 46
49 49 49 49 49 50 48 41 46 44 42 43 44 44 51 53 52 54 47 46 50 47 49 40 37 34 34 34 33 36 40 43 39 39 44 44 47 46 46 48 47 47 47 47
49 49 48 49 49 49 49 42 47 46 44 36 41 54 50 54 55 53 54 54 50 49 48 37 35 35 40 35 40 36 41 44 40 39 41 43 46 45 45 43 44 43 43 42
48 48 49 49 49 50 47 46 48 49 44 37 39 48 54 55 53 53 55 55 48 44 41 34 37 36 38 34 37 31 43 43 38 38 46 46 46 44 44 42 41 42 41 39
48 48 49 49 49 49 44 39 46 50 49 41 34 47 46 53 51 51 53 55 47 45 42 38 41 45 42 36 35 47 47 47 49 49 46 41 40 40 41 40 39 40 39 40
48 48 48 49 49 45 41 39 44 49 49 40 35 36 45 50 51 47 47 48 46 46 42 35 38 41 44 35 39 49 47 46 42 43 44 39 40 38 39 38 38 38 37 37
48 48 49 49 49 48 43 47 49 50 45 43 35 37 40 49 42 42 45 41 42 43 42 38 36 38 33 34 41 40 42 42 41 39 41 42 38 37 36 37 37 35 33 33
48 48 49 47 46 40 43 48 50 51 45 36 35 35 33 47 42 41 39 40 36 42 36 36 38 35 36 41 40 40 41 42 37 38 38 38 36 35 35 35 34 33 32 33
48 47 42 35 40 49 49 46 42 43 45 42 35 41 36 44 37 37 35 34 35 35 35 40 35 34 38 39 41 42 40 40 40 35 33 34 33 34 34 34 35 34 33 33
45 42 38 45 49 45 40 34 34 36 34 37 37 37 37 43 36 36 35 33 32 32 35 37 34 33 36 39 40 42 42 43 43 43 41 40 38 35 34 33 33 33 33 32
45 46 47 46 43 37 33 32 33 34 34 35 36 37 41 38 43 37 35 33 33 32 36 34 32 33 35 36 36 37 39 39 39 40 38 37 36 35 33 32 32 31 30 29
47 42 36 38 32 30 29 30 31 32 33 34 34 35 35 38 39 34 34 33 31 34 33 31 30 35 36 36 37 37 38 38 37 35 35 34 33 33 32 30 30 30 29 29
37 34 29 30 29 29 29 30 32 32 32 33 34 34 34 33 34 33 33 32 33 29 26 27 33 35 35 37 37 36 34 34 33 32 32 31 30 29 29 29 29 28 27 27
32 32 28 29 31 32 32 32 33 33 34 33 34 34 36 33 33 32 33 32 28 29 27 30 33 35 35 33 33 32 32 31 31 31 29 28 28 27 26 26 27 26 25 23
33 31 29 31 31 30 31 31 32 35 34 34 35 33 32 31 31 29 25 28 24 26 29 32 33 32 32 32 32 31 31 31 31 30 30 29 28 27 25 25 24 23 23 21
31 29 30 30 30 29 30 31 31 35 34 31 31 27 25 30 26 24 26 24 27 29 31 32 32 32 31 31 31 31 31 30 30 29 28 27 27 27 26 24 25 25 23 21

GFSNW_sfc_temp_027.txt.gz
Temp
53 53 53 53 53 53 49 43 33 48 53 38 42 38 45 49 51 55 53 53 51 48 50 47 48 50 56 57 57 54 56 50 43 51 57 60 57 54 51 44 42 40 39 44
53 52 52 52 53 52 46 38 40 48 49 33 37 44 46 50 49 51 50 49 53 54 51 45 50 51 57 55 56 54 54 47 42 47 53 55 54 54 51 47 44 40 39 46
52 52 51 52 52 53 46 40 33 41 42 47 42 40 41 43 51 51 52 51 53 52 50 50 49 50 55 54 57 51 56 48 47 43 48 52 48 50 50 51 42 44 44 50
50 51 51 51 52 52 45 40 36 42 33 37 41 44 44 41 42 50 53 48 49 49 45 46 46 51 52 54 51 54 56 47 46 49 52 51 52 51 49 49 50 46 51 47
51 51 51 51 51 52 42 36 37 41 42 43 40 41 41 41 45 48 46 46 49 50 47 49 47 51 51 50 52 51 51 46 46 46 48 49 48 51 51 51 49 49 50 49
52 51 50 50 51 50 41 42 44 42 42 40 38 38 42 44 48 49 52 51 48 46 51 53 54 55 55 55 54 48 48 42 42 42 43 46 39 45 49 50 52 53 47 55
52 51 50 50 51 50 45 44 43 38 35 40 39 42 44 45 47 45 50 52 48 53 56 56 56 52 50 51 49 52 44 43 41 37 38 33 51 53 55 53 53 54 53 55
51 50 49 50 51 51 46 44 43 40 35 41 42 42 43 47 49 48 49 52 55 57 53 46 44 40 43 44 47 48 49 42 36 36 38 43 49 51 51 50 54 56 55 54
51 50 49 49 51 52 47 45 45 43 39 37 47 43 45 42 43 44 47 54 54 53 44 38 37 36 41 40 44 47 44 44 44 35 36 35 48 55 55 57 46 55 54 51
50 49 49 50 51 51 47 41 46 44 38 42 45 44 42 49 46 43 45 48 47 52 38 35 35 37 45 38 38 37 39 38 38 33 37 42 51 54 56 44 50 54 54 53
49 49 49 50 50 51 48 41 46 44 40 42 45 47 46 47 48 40 44 45 45 40 37 37 37 36 41 41 43 41 41 39 37 35 35 38 52 51 48 55 53 53 54 54
48 49 49 50 50 51 49 40 46 46 39 41 48 49 50 50 56 50 49 46 46 46 41 39 38 36 35 40 39 45 41 45 43 45 46 53 53 56 56 55 55 52 54 53
49 49 49 50 50 50 47 42 44 43 39 40 43 44 52 52 52 58 47 47 52 48 51 43 41 37 39 36 38 42 45 47 46 47 51 51 52 54 55 55 55 54 57 54
49 49 50 50 50 49 47 43 44 43 42 35 40 51 48 55 53 53 55 54 52 51 49 42 38 39 45 39 44 42 46 47 44 45 49 49 52 53 55 51 51 50 51 51
48 48 48 48 49 49 46 44 46 47 42 36 39 48 52 54 52 51 53 53 50 47 44 38 40 40 41 37 40 40 47 46 43 44 54 54 54 54 50 49 49 49 46 44
48 48 49 49 48 48 44 37 44 48 46 38 33 46 47 52 52 51 50 52 50 49 45 40 43 47 45 38 39 50 51 51 51 54 51 46 44 45 47 46 46 46 46 45
48 49 49 49 49 45 40 38 44 48 45 40 34 36 46 50 51 49 49 50 49 49 47 41 44 44 46 37 41 52 51 50 48 46 48 45 44 45 44 44 43 42 42 42
48 48 48 49 49 47 42 47 48 48 44 42 33 34 38 49 41 42 46 44 45 45 44 41 41 40 38 38 46 46 45 45 44 45 44 46 42 41 39 40 40 38 37 37
48 48 48 46 44 40 42 48 49 49 44 34 34 34 34 47 42 41 41 43 38 43 38 39 41 37 38 44 45 43 42 44 40 40 40 41 40 38 38 39 38 36 35 36
48 45 41 36 42 48 48 45 41 41 42 41 35 41 37 43 37 37 38 37 37 36 38 40 37 38 41 41 42 44 42 41 41 37 34 35 35 36 37 37 38 37 36 36
43 39 36 42 48 45 40 35 34 35 33 38 39 37 38 44 37 36 37 33 34 35 37 37 36 36 37 39 41 43 43 43 44 45 41 42 40 37 35 35 36 36 35 34
44 44 45 44 41 36 33 32 32 31 33 35 36 38 41 38 44 37 36 34 33 34 37 35 33 34 36 38 38 39 40 41 39 41 38 37 37 37 35 34 33 32 30 29
46 40 36 38 33 30 29 28 31 31 33 34 34 34 36 37 39 34 34 32 32 34 33 31 32 35 36 37 37 36 37 37 36 35 35 35 34 34 32 30 29 29 29 29
36 33 29 30 29 29 29 30 31 32 32 33 34 34 35 33 34 33 33 32 33 30 28 28 32 34 34 35 36 34 33 33 32 32 32 31 30 29 29 29 30 29 27 28
33 32 27 29 32 32 32 32 32 33 34 33 35 35 36 33 33 32 33 31 27 27 26 29 31 33 33 33 32 32 31 30 30 30 29 28 28 28 27 28 28 27 26 25
32 29 26 29 29 27 28 28 30 34 33 34 35 33 31 29 29 27 24 26 22 25 29 31 32 31 31 31 31 31 31 30 30 30 29 29 27 26 26 26 25 24 24 23
30 27 27 26 26 25 26 27 29 33 33 31 30 22 22 29 23 20 22 20 23 24 29 31 31 30 30 30 30 30 30 30 29 28 27 26 26 26 26 24 25 25 24 23

GFSNW_sfc_temp_030.txt.gz
Temp
54 53 53 53 53 53 50 46 34 53 58 38 41 36 49 55 58 62 60 61 60 57 58 57 58 56 61 68 71 61 68 62 54 59 65 68 69 64 63 52 50 52 49 53
52 53 53 53 53 52 49 38 40 51 55 34 35 47 49 54 55 57 56 57 61 61 57 53 58 59 65 65 67 65 65 58 50 54 59 63 61 64 65 61 57 52 46 54
52 52 53 52 52 52 50 39 33 40 43 52 45 46 45 47 56 57 60 59 61 57 55 58 54 56 58 61 68 56 63 62 56 49 56 63 56 61 63 61 52 54 54 59
52 52 52 52 51 51 48 39 38 43 32 41 47 51 49 45 46 56 59 56 57 56 50 53 52 55 56 58 54 64 65 56 60 62 64 64 62 62 62 59 60 55 59 61
52 52 50 51 51 51 43 36 42 47 45 46 45 47 48 45 50 53 51 52 56 58 52 55 50 55 55 56 59 61 64 56 59 55 62 60 58 63 64 63 63 63 62 62
52 52 51 51 50 49 41 44 54 50 46 44 43 45 48 49 52 55 59 57 53 52 54 58 58 57 58 59 58 57 58 56 52 49 55 54 45 55 61 62 65 63 58 66
51 51 50 50 50 49 50 52 51 43 41 45 43 46 49 49 52 51 57 59 53 56 62 61 59 58 58 59 60 63 54 54 53 48 42 36 60 64 67 64 66 68 67 69
51 51 50 50 50 50 53 55 50 47 40 47 46 44 48 52 54 52 55 57 61 62 58 50 45 44 47 52 57 58 60 55 48 42 46 55 57 59 60 59 61 70 68 70
50 50 49 50 50 50 51 54 56 52 45 45 51 44 47 46 48 51 54 60 61 56 51 47 40 36 45 47 49 54 54 55 52 44 43 39 59 68 70 67 54 72 70 69
50 50 49 49 49 50 52 51 55 52 46 51 52 45 44 53 53 50 52 53 52 56 45 40 40 44 52 45 43 41 45 47 44 46 45 54 65 66 67 51 56 70 72 70
50 50 50 49 49 50 50 48 54 52 47 48 49 51 49 53 55 48 53 50 50 46 41 43 44 41 47 50 54 49 47 45 43 49 42 41 65 61 58 67 67 69 68 69
50 49 49 49 49 50 51 45 54 57 50 44 49 45 49 53 62 59 55 54 53 53 47 49 50 40 41 50 43 53 45 54 52 55 56 67 65 70 71 70 70 66 68 68
49 49 49 49 49 49 51 46 53 54 49 50 47 43 55 59 59 65 53 57 59 56 62 53 51 44 47 40 48 52 54 56 54 53 65 64 65 70 67 68 68 69 70 67
49 49 49 49 49 50 50 49 54 55 49 40 45 50 49 59 61 59 62 62 62 61 59 53 49 45 55 48 55 50 58 54 57 58 63 58 63 67 69 66 65 65 68 65
49 49 49 49 49 50 49 52 53 58 50 39 42 52 53 52 55 57 59 58 59 56 51 47 47 55 51 50 50 51 58 58 52 54 67 65 71 71 68 64 62 64 64 61
48 48 49 47 48 49 47 38 51 56 54 40 33 46 47 50 54 56 56 58 57 57 55 51 57 55 53 44 49 61 61 63 65 63 63 66 58 61 66 64 64 63 62 62
48 48 47 47 48 48 44 43 51 52 53 44 35 37 49 49 50 51 54 58 57 56 53 51 55 53 53 46 47 63 64 62 61 57 56 56 56 60 58 60 60 56 61 59
47 47 47 48 49 49 48 52 49 53 48 42 35 35 39 50 44 43 47 48 51 53 52 53 52 51 48 45 58 63 59 57 55 55 53 53 56 55 54 55 53 52 51 51
48 48 48 49 48 43 41 48 49 52 45 38 36 35 35 47 43 44 43 45 39 45 44 48 52 47 45 51 51 58 56 54 55 50 50 50 50 50 49 50 50 50 47 47
48 48 43 37 44 48 48 43 40 43 42 45 39 48 40 49 41 39 39 38 37 36 43 47 43 47 50 48 49 51 50 50 49 45 43 43 44 45 45 46 47 46 44 44
46 40 40 50 47 46 42 36 35 37 35 42 45 45 42 49 44 41 41 36 36 39 42 42 40 43 45 44 44 46 48 49 50 52 51 51 49 45 44 44 43 43 43 41
47 47 51 46 46 43 34 33 34 34 36 38 38 41 45 40 47 42 40 37 37 34 39 38 36 34 38 39 40 45 46 47 46 48 47 46 46 45 43 41 36 35 34 32
50 49 41 40 35 31 30 29 32 33 35 36 37 36 44 41 41 38 40 34 35 37 34 30 30 34 36 37 38 37 39 39 38 37 40 36 35 35 33 31 31 31 30 30
40 36 31 32 31 31 32 32 34 34 33 34 36 36 36 34 34 33 34 33 34 33 30 28 32 32 33 33 34 33 32 32 33 33 32 31 30 30 31 31 31 31 30 31
33 33 27 30 32 31 32 32 33 33 34 34 35 35 37 33 33 32 33 32 28 28 26 30 32 33 33 32 31 31 30 29 29 30 29 29 29 29 29 30 30 29 28 27
31 27 25 28 28 26 27 27 29 33 32 35 36 33 32 30 32 28 25 28 22 25 27 30 33 31 31 31 31 30 30 30 29 29 29 28 28 27 27 27 27 27 26 25
29 26 26 25 25 24 25 27 27 31 34 31 32 27 24 34 27 23 26 22 24 26 27 29 31 30 30 30 30 30 30 29 29 29 28 28 28 28 27 25 25 26 25 25

GFSNW_sfc_temp_033.txt.gz
Temp
54 54 54 54 53 53 50 44 35 58 56 38 39 36 47 55 61 66 64 62 62 61 63 60 60 61 67 73 73 64 69 65 56 61 71 75 70 66 65 54 52 56 53 56
53 53 53 53 53 53 47 39 41 55 55 33 35 46 48 54 56 59 59 59 62 64 62 57 62 65 72 70 69 67 68 61 50 57 65 69 64 67 67 63 63 49 45 54
52 52 53 53 53 52 47 39 33 40 44 49 45 44 46 47 57 60 62 60 63 61 58 63 59 61 67 70 70 61 64 63 57 51 58 65 59 64 67 64 54 54 56 61
52 52 53 53 52 52 47 39 38 43 33 38 47 50 49 47 49 59 62 58 57 56 55 58 58 61 63 63 61 65 66 56 59 63 67 67 65 64 65 62 63 54 60 63
52 52 52 52 52 52 43 34 40 46 45 46 46 46 47 49 53 56 54 55 58 54 51 57 50 58 58 59 65 63 66 56 60 58 65 66 62 66 67 66 66 65 66 65
51 52 52 52 51 50 41 42 55 52 46 42 44 46 48 49 55 59 61 60 59 56 58 62 58 58 56 59 59 58 60 56 53 49 61 61 51 61 64 66 69 67 60 68
51 51 51 51 51 50 44 46 55 47 40 40 46 49 52 51 54 54 60 62 58 63 67 65 61 55 57 54 57 62 58 56 54 49 48 39 59 71 70 66 69 72 72 73
50 51 51 51 52 51 45 54 54 47 39 47 48 49 51 54 56 55 57 62 66 69 62 53 47 42 44 47 53 58 60 55 49 45 46 55 61 67 65 64 64 74 72 75
50 50 50 51 50 50 48 50 59 52 46 44 53 50 52 50 52 50 57 65 66 63 54 49 42 40 46 39 46 60 60 58 51 49 43 40 58 70 75 74 57 74 75 74
50 50 50 50 50 49 48 49 58 53 45 51 52 48 49 56 54 51 50 52 54 60 48 42 43 44 54 43 37 41 45 46 44 47 46 54 68 74 77 53 58 75 76 75
49 49 50 50 50 50 48 52 59 54 46 49 50 55 54 54 55 48 54 51 50 50 45 46 47 44 51 51 54 45 45 45 44 49 45 42 72 70 61 68 75 75 76 76
49 49 50 50 49 49 49 49 58 59 49 45 56 56 59 61 63 59 57 54 53 57 52 52 52 46 46 51 45 58 43 53 52 57 56 67 72 71 76 78 75 75 75 77
49 50 50 50 49 49 50 53 57 54 45 49 52 52 59 61 62 65 54 58 64 60 65 57 52 46 52 43 49 54 56 62 55 58 64 69 72 75 78 79 76 78 77 77
49 49 49 49 49 49 53 54 56 54 49 40 46 57 54 61 62 61 63 61 63 65 63 55 51 47 61 51 53 51 58 59 57 59 65 68 70 72 75 76 75 74 75 75
49 49 49 48 49 50 52 53 55 58 52 43 47 54 57 59 59 58 61 60 59 60 54 50 48 58 56 56 55 54 62 58 53 54 65 66 69 74 77 74 72 71 72 71
48 48 48 49 49 50 48 40 55 57 58 51 40 51 52 56 59 57 56 59 58 61 56 52 57 63 58 47 49 61 66 66 68 63 67 68 71 68 72 75 75 72 71 72
48 48 49 50 51 53 46 47 54 55 61 51 42 39 49 55 55 55 55 59 59 56 55 54 56 58 56 50 46 59 65 68 68 69 64 60 65 67 67 68 72 66 71 71
48 48 49 49 50 51 49 52 52 57 54 48 36 35 36 49 42 43 55 51 54 53 51 56 54 57 54 47 57 61 64 66 62 64 62 61 61 62 60 65 64 63 64 65
47 48 49 48 46 42 47 49 51 58 52 39 36 33 32 45 43 44 47 53 44 56 47 49 54 48 44 53 56 57 56 57 56 59 58 58 58 59 57 58 58 59 58 59
47 51 48 40 46 48 50 49 45 48 49 43 36 41 34 45 40 38 39 41 39 39 44 55 48 48 50 48 50 52 54 55 56 53 54 53 53 54 53 54 55 55 54 54
54 47 41 48 48 44 40 38 39 42 37 43 43 42 37 45 39 37 39 35 39 36 39 43 45 43 36 40 42 48 52 54 55 55 55 56 56 53 51 50 50 50 49 46
46 47 48 47 37 35 35 34 36 37 39 45 42 46 46 40 46 44 42 36 36 35 40 39 32 31 35 35 37 39 42 45 48 52 51 52 51 51 48 44 39 35 33 33
53 46 40 41 38 32 32 28 32 33 38 39 40 39 47 46 45 41 42 37 34 37 32 30 31 36 34 34 34 34 36 37 37 35 36 35 34 35 33 31 32 32 30 30
39 36 31 33 32 31 29 30 32 34 34 37 38 39 38 36 34 33 34 33 35 32 30 27 32 33 33 33 32 31 30 31 31 31 31 30 30 30 31 31 32 31 30 30
33 34 26 28 31 32 31 32 34 35 35 34 35 36 36 33 33 33 34 32 28 28 26 29 32 32 32 32 31 31 30 29 29 29 28 28 29 28 28 29 29 29 27 27
33 27 25 27 29 29 29 30 31 33 31 35 35 33 33 31 33 28 27 28 23 25 28 30 32 31 30 30 30 30 30 30 29 29 29 28 27 26 26 27 27 27 27 26
28 25 27 25 25 25 28 30 32 33 32 32 33 27 26 37 29 24 27 22 25 27 28 29 29 29 29 29 29 30 30 29 29 29 29 28 28 29 28 26 26 26 25 25

GFSNW_sfc_temp_036.txt.gz
Temp
53 53 54 54 54 53 51 44 35 54 57 37 38 35 44 51 54 59 58 60 58 57 59 57 58 59 64 72 71 63 67 61 52 59 70 73 69 64 63 50 50 54 48 52
53 53 53 54 53 53 47 40 40 52 53 31 33 41 45 50 51 54 55 56 60 63 56 46 52 58 69 71 69 63 66 57 47 53 62 68 63 66 65 63 59 51 42 50
52 52 52 53 53 53 48 40 33 41 43 50 42 39 42 44 54 53 57 57 62 59 55 55 48 48 65 68 70 58 61 60 54 45 55 61 58 63 66 61 50 50 51 56
52 52 52 53 53 52 48 39 35 41 33 36 45 46 47 43 45 53 56 55 56 56 49 48 45 48 52 61 62 66 62 54 57 60 64 64 63 62 63 61 58 52 55 56
52 52 52 52 52 52 45 32 37 46 46 43 42 43 44 45 49 51 48 50 55 58 53 52 47 49 50 54 61 62 64 53 56 52 61 63 58 63 65 64 64 63 64 63
51 51 52 52 52 50 45 40 47 48 44 42 39 41 45 47 52 55 57 55 55 54 59 62 55 53 50 49 53 54 57 54 52 46 57 56 47 58 63 65 68 65 57 66
51 51 51 52 52 51 44 41 45 39 38 42 43 45 48 48 51 50 56 59 55 62 62 59 55 49 49 48 53 55 50 55 53 45 44 36 58 70 69 65 67 69 70 72
50 50 50 51 51 52 46 43 46 42 37 45 46 46 48 50 52 51 54 59 66 68 53 44 40 39 42 43 46 49 53 50 46 42 43 52 59 64 63 61 61 70 68 72
50 50 50 50 51 52 49 44 48 46 40 43 52 48 50 45 47 49 53 62 64 64 55 43 34 36 43 37 41 50 50 52 46 45 40 37 53 66 72 71 52 71 72 71
50 49 49 50 50 51 49 45 47 47 40 50 52 46 46 53 50 48 52 55 55 62 41 35 38 41 52 41 39 37 37 41 41 42 41 50 63 68 72 50 53 72 73 72
49 48 49 49 50 51 49 45 50 48 42 49 51 52 49 51 52 46 54 49 47 48 42 40 43 42 47 48 52 44 39 36 41 43 40 38 67 67 57 63 70 72 72 72
49 49 49 50 50 50 50 43 50 56 46 46 56 55 59 56 59 56 56 53 48 45 43 49 49 44 45 48 39 54 40 44 43 45 48 62 64 64 70 73 71 72 72 75
49 49 50 49 50 50 49 46 48 48 45 44 48 48 55 62 62 65 52 56 57 54 56 55 52 45 50 41 45 49 52 56 47 46 55 57 63 69 73 75 73 75 77 75
48 48 49 49 49 50 49 47 49 50 48 37 41 57 54 64 63 59 58 56 56 58 56 52 50 45 57 46 52 47 55 50 52 51 55 54 63 67 69 72 73 74 75 73
48 49 49 50 50 49 49 50 51 59 50 40 43 55 59 61 61 59 58 51 52 46 44 47 47 54 54 56 55 50 60 57 50 48 60 57 61 67 68 67 67 72 70 70
49 49 49 49 50 49 47 39 48 54 54 45 39 55 54 57 58 57 55 53 54 53 50 48 56 61 55 46 46 58 63 63 64 59 63 63 63 65 68 65 66 70 69 70
49 48 48 49 49 53 46 43 51 53 53 46 41 41 50 55 56 55 54 57 50 52 47 50 53 54 55 45 42 57 60 62 63 65 64 61 62 61 65 65 66 68 70 70
47 48 48 49 49 50 49 54 52 56 53 51 39 38 39 50 46 45 54 49 50 51 51 54 50 54 49 43 52 56 57 61 62 62 64 61 59 60 62 63 63 63 63 65
48 48 49 47 46 43 48 50 53 56 51 41 39 34 31 41 47 51 49 50 42 54 46 47 51 46 39 38 41 45 49 51 52 56 58 58 57 58 59 59 57 57 60 62
50 50 46 38 46 48 50 51 47 47 48 46 36 41 33 39 37 41 44 46 42 40 45 53 43 39 39 38 39 42 43 47 53 49 49 51 52 55 55 54 56 57 56 54
47 43 38 47 48 50 44 41 40 43 37 42 40 39 36 39 34 36 40 36 40 35 42 41 40 34 34 37 36 39 40 44 47 50 51 50 52 53 51 49 43 38 38 35
45 46 49 47 43 37 34 35 36 37 35 40 38 39 37 34 44 37 38 35 35 33 45 37 28 30 35 35 34 34 36 38 38 40 39 38 38 39 36 34 33 32 32 31
52 48 39 36 35 31 31 28 32 33 33 36 37 34 38 39 42 36 37 32 32 35 32 28 28 32 34 34 33 32 33 33 33 32 33 33 32 32 31 29 29 29 28 28
38 35 30 31 29 29 27 28 30 33 33 33 34 37 35 35 33 33 32 32 33 31 28 23 28 30 31 32 32 30 29 29 28 28 29 28 27 27 28 28 28 27 26 27
33 35 26 27 30 31 31 32 33 33 34 33 35 35 35 34 32 33 34 32 25 25 23 26 29 30 30 30 30 29 28 28 27 27 27 26 26 26 26 27 27 26 25 25
32 28 26 28 29 28 30 30 31 34 31 33 35 33 32 30 31 28 26 27 21 23 26 27 30 28 28 28 28 28 28 28 28 28 27 26 25 24 24 25 25 25 25 24
29 25 29 28 29 27 30 31 31 35 33 32 33 28 27 35 28 23 27 21 23 25 27 27 27 27 27 27 27 27 28 28 28 28 27 27 27 27 26 24 25 25 25 24

GFSNW_sfc_temp_039.txt.gz
Temp
52 52 53 53 54 53 51 45 35 51 53 36 37 33 39 46 49 52 50 50 48 46 49 48 50 48 54 60 60 57 61 52 45 52 63 67 61 58 55 39 41 45 38 43
52 52 52 53 53 53 48 41 40 49 50 31 31 39 40 43 43 46 48 47 50 51 47 43 48 50 57 56 52 54 59 52 42 47 56 61 58 59 60 55 47 42 34 41
52 52 52 52 52 53 48 40 32 40 41 43 37 35 37 36 47 44 48 48 50 48 45 51 46 48 55 54 53 52 54 55 49 41 48 54 50 56 58 55 39 41 40 48
51 52 52 52 52 53 47 39 33 40 32 34 38 40 40 37 37 47 48 44 45 45 40 44 45 48 50 55 52 52 52 47 53 55 57 58 57 57 56 54 54 46 49 51
51 51 51 52 52 52 45 32 34 40 40 40 37 40 36 37 42 43 43 42 46 47 42 45 43 47 46 46 48 47 52 45 49 46 57 58 54 56 57 57 56 56 57 54
51 51 51 51 52 51 44 43 41 43 40 38 35 36 38 39 43 46 49 48 45 43 46 50 50 50 51 49 45 40 43 41 45 41 48 49 40 51 56 57 61 59 49 56
51 51 51 51 51 51 46 40 43 37 33 37 36 40 41 41 44 42 49 50 46 51 57 51 49 47 48 48 47 48 38 37 41 34 40 32 51 61 61 57 60 62 61 61
50 51 50 51 51 52 46 42 42 39 33 38 40 40 41 43 46 45 47 51 55 57 51 43 39 33 37 41 46 45 45 37 33 34 39 44 50 57 56 54 54 63 61 62
50 50 50 50 51 51 47 43 44 42 36 36 46 41 43 39 40 41 45 54 55 51 43 37 31 29 37 37 40 48 42 40 34 34 34 31 46 58 64 61 44 62 62 61
49 50 50 50 50 51 48 45 46 42 34 41 46 42 41 47 44 40 45 46 46 49 33 31 30 31 43 33 32 32 32 32 30 31 30 38 55 62 64 44 44 62 63 63
50 50 50 50 50 51 48 45 47 43 38 42 47 50 47 48 47 39 43 43 44 38 32 33 31 30 38 40 43 36 34 32 32 34 31 31 53 58 52 53 59 64 62 61
49 49 49 50 50 50 50 42 47 46 42 41 50 52 54 54 55 48 47 46 45 42 37 36 36 30 35 40 34 46 34 39 36 40 37 49 54 54 55 59 59 62 61 68
49 49 50 50 50 49 49 44 45 43 40 41 40 43 51 56 54 56 43 46 49 43 45 40 40 34 35 28 34 39 47 50 41 43 48 50 54 56 58 57 59 63 67 67
48 49 49 49 49 49 49 44 45 46 43 34 38 52 50 56 57 57 54 52 53 48 45 40 36 33 45 33 42 39 46 48 45 44 50 53 57 56 56 56 59 60 62 62
49 49 48 48 49 50 49 46 47 49 42 36 40 47 53 56 55 52 52 49 49 42 41 37 38 41 41 41 42 39 50 45 40 37 51 51 55 58 58 57 56 59 61 59
49 49 49 49 49 50 45 38 47 49 48 42 33 47 49 51 52 50 49 47 48 45 40 37 44 51 44 33 34 49 54 55 56 53 56 56 59 61 61 60 60 61 61 63
48 48 49 49 50 48 42 39 44 48 48 40 31 32 42 47 50 47 45 49 45 44 43 40 42 44 45 31 31 43 46 51 54 54 54 52 54 53 57 58 59 58 59 63
49 49 48 48 49 49 45 47 50 51 44 42 29 29 34 43 37 37 44 40 44 44 40 43 41 45 41 32 38 41 42 46 48 49 52 52 53 55 54 55 54 54 53 56
48 48 48 46 45 41 42 50 51 49 43 32 29 30 26 40 38 39 39 42 33 45 36 39 42 35 29 32 34 36 38 39 42 48 49 49 48 50 51 50 48 49 46 48
50 48 42 36 42 49 49 47 41 40 41 39 29 35 30 38 33 31 33 31 33 29 36 42 35 30 34 34 35 36 36 40 42 39 37 40 40 44 37 37 38 36 35 34
45 39 37 43 48 43 39 32 33 36 29 34 34 33 33 39 32 34 33 29 31 28 34 34 30 26 30 35 33 33 35 37 37 41 39 38 38 36 34 32 32 31 30 29
44 43 45 43 40 36 31 27 31 29 29 34 33 34 37 35 39 35 35 34 32 28 34 29 22 26 31 31 31 31 32 34 33 34 33 33 33 32 31 29 28 27 27 26
46 42 34 36 32 29 23 27 28 29 31 32 34 33 32 34 37 34 32 32 31 34 29 23 23 28 30 30 30 29 30 30 29 29 29 29 28 29 29 27 27 27 26 26
35 32 23 27 23 25 25 26 28 31 31 31 32 32 32 32 32 32 32 31 31 26 21 18 24 26 28 28 28 27 26 26 26 25 26 25 25 24 25 25 25 24 23 24
28 27 21 22 28 28 28 30 31 31 32 31 32 32 33 32 30 31 31 27 20 21 17 22 25 27 27 26 27 26 25 25 24 24 23 23 23 23 23 24 25 25 24 24
25 22 18 21 20 19 26 27 28 33 31 32 33 31 29 27 26 23 21 20 16 18 21 25 25 24 24 25 26 26 26 25 25 25 25 24 23 23 23 24 24 24 24 23
25 18 18 18 20 22 27 27 28 32 32 29 29 23 22 29 22 20 22 16 19 21 22 23 24 24 24 24 25 25 25 25 26 26 26 25 25 26 25 22 23 24 23 23

GFSNW_sfc_temp_042.txt.gz
Temp
52 52 52 52 53 53 50 45 35 48 52 35 37 32 38 45 44 49 46 46 45 43 45 43 44 45 52 54 54 48 51 48 42 48 59 61 57 55 53 40 39 39 34 42
51 51 52 52 52 53 47 40 39 48 48 30 31 38 39 42 42 44 44 43 46 47 44 40 45 47 54 55 53 47 50 42 36 43 51 54 51 54 57 51 43 39 33 41
51 51 51 52 51 52 47 39 32 39 41 40 37 34 35 36 45 42 43 42 45 42 40 44 41 44 52 54 52 49 51 45 41 36 44 50 47 54 56 53 37 39 40 47
51 51 51 51 52 51 46 39 33 38 33 34 37 39 38 35 35 43 45 40 41 40 35 38 39 44 47 54 49 51 48 39 41 45 50 54 53 53 53 51 48 42 46 47
50 51 51 51 51 51 44 33 34 39 37 40 36 37 35 35 38 41 39 38 43 42 37 40 37 42 43 44 48 47 46 38 38 37 48 51 50 55 55 55 53 50 51 50
50 51 51 51 51 50 42 43 41 41 39 37 34 34 35 38 40 43 45 44 42 40 43 47 47 46 46 46 44 39 41 37 34 31 42 46 39 50 54 53 55 55 46 53
50 51 50 51 51 50 46 43 42 36 33 35 35 39 40 38 42 38 45 45 41 47 53 48 46 45 44 45 45 46 38 36 34 30 35 28 48 56 59 55 56 57 56 57
50 50 50 51 51 51 45 45 42 38 32 36 38 39 40 41 43 41 42 46 50 51 47 38 36 31 34 38 43 44 45 37 32 30 30 40 46 53 50 49 51 58 57 61
50 50 50 50 50 51 47 45 45 40 35 35 42 39 40 37 36 38 42 50 53 49 41 36 29 25 33 33 37 46 41 40 35 31 28 27 42 54 61 58 41 58 62 60
49 49 50 50 50 51 47 45 46 40 33 40 41 38 38 43 40 37 40 43 43 49 33 31 29 29 40 31 30 33 32 32 31 30 29 35 48 51 59 42 43 58 61 60
49 50 50 50 50 50 47 45 45 41 36 39 43 47 43 43 43 36 40 40 41 38 34 32 30 27 34 34 39 34 33 30 29 32 29 29 50 51 44 47 51 55 56 58
49 50 50 49 50 50 50 42 46 48 40 40 46 46 50 50 52 47 44 43 43 43 37 34 32 28 26 32 27 43 33 39 35 37 37 49 51 51 54 54 51 53 53 56
49 49 50 50 50 50 49 44 44 44 39 37 38 41 51 56 53 58 42 43 48 44 46 38 36 32 32 26 32 39 44 47 40 40 47 48 52 53 54 56 54 56 57 57
48 49 49 49 50 50 49 43 46 44 40 33 35 47 45 54 54 52 50 49 49 47 42 39 36 30 41 30 39 34 42 46 43 42 48 50 53 56 55 56 55 56 57 57
48 48 49 49 49 50 47 46 46 47 41 32 36 46 50 52 53 51 50 48 46 41 39 34 33 37 38 37 39 35 43 42 38 37 49 49 51 57 56 56 55 55 55 55
48 49 50 50 50 48 45 38 45 48 46 41 32 44 46 49 49 49 46 46 43 43 41 35 39 45 42 32 32 41 41 43 45 43 48 51 54 56 57 56 57 58 57 57
48 48 48 49 48 46 41 37 43 50 47 40 34 35 43 45 47 44 45 47 44 41 41 39 38 40 44 29 29 38 41 41 45 45 48 48 49 48 52 53 54 56 57 56
48 48 48 49 49 48 44 45 49 48 42 41 31 32 36 42 35 36 42 39 41 42 40 40 38 41 39 31 33 36 38 40 42 42 44 44 47 48 46 47 49 45 42 43
48 48 49 47 44 41 42 49 48 48 43 30 28 26 30 39 36 37 37 40 32 41 35 36 39 32 25 29 32 33 34 34 37 42 41 42 39 38 38 39 38 37 34 34
48 45 40 35 41 47 47 45 41 40 40 37 28 32 29 37 33 32 32 31 31 30 34 40 32 27 31 32 32 32 33 35 36 36 35 36 36 34 32 32 32 32 30 29
42 38 36 42 47 43 39 33 32 34 30 32 31 30 33 37 29 33 30 28 30 28 31 32 26 23 27 31 30 31 33 34 34 35 34 33 34 32 30 28 28 28 27 26
42 41 42 40 38 33 30 27 29 29 30 32 29 31 35 35 38 34 34 30 32 26 33 26 20 24 28 29 28 28 30 30 30 31 30 30 30 29 28 27 26 26 26 26
44 39 35 34 28 20 20 25 28 28 31 31 33 33 33 35 36 33 33 32 29 33 24 17 21 26 27 27 27 26 27 28 27 26 27 26 26 26 26 24 24 25 23 23
32 27 18 19 17 21 22 24 26 30 31 30 31 32 32 32 32 33 29 29 29 21 16 15 21 24 25 26 26 25 23 24 24 24 24 24 23 23 24 24 24 23 22 22
25 24 16 17 24 24 24 27 28 30 32 30 32 32 33 30 28 27 28 21 16 17 14 19 23 24 25 24 24 24 23 23 23 23 22 22 23 22 22 23 23 23 23 22
23 22 16 18 16 19 20 24 26 30 30 32 32 30 27 22 23 20 18 17 13 16 20 22 23 22 23 23 24 24 24 24 23 23 23 23 22 21 21 22 22 21 22 21
19 16 14 14 14 19 24 26 26 30 30 27 27 20 20 26 21 16 18 14 16 18 20 22 23 22 22 22 22 22 22 21 21 22 23 23 24 24 22 20 21 22 21 20

GFSNW_sfc_temp_045.txt.gz
Temp
51 51 52 52 52 52 49 43 34 47 51 35 36 31 38 45 43 47 45 43 43 40 43 40 42 42 48 53 52 44 48 43 37 46 56 57 51 49 48 40 38 36 33 43
50 51 51 52 51 52 45 37 38 47 48 30 31 38 37 41 40 41 41 41 42 45 41 37 42 45 51 53 50 47 51 40 32 39 48 50 47 50 51 47 41 41 34 41
51 51 51 51 51 52 45 37 31 38 41 39 37 34 35 35 43 40 42 40 42 40 38 41 38 42 49 53 50 50 49 42 39 33 35 42 40 47 52 50 37 37 42 45
50 51 51 51 51 51 44 37 32 39 32 34 37 38 38 35 35 42 42 39 38 36 31 35 34 42 46 51 49 50 47 37 38 39 43 46 44 45 48 48 49 42 45 45
50 50 51 51 51 50 41 32 35 38 38 39 35 36 35 36 38 40 37 35 39 39 35 37 35 39 39 41 47 45 46 37 37 34 45 44 41 45 46 49 50 46 48 46
50 50 50 50 50 49 40 40 42 40 37 36 34 34 36 36 41 41 43 41 38 36 40 43 44 44 45 45 43 39 40 36 34 29 36 40 34 40 46 50 54 51 45 52
50 50 50 50 50 49 44 43 42 36 32 34 35 39 39 37 40 37 42 43 39 44 49 47 45 43 43 44 43 43 35 34 33 29 32 26 44 48 51 49 54 57 56 56
49 50 50 50 50 50 45 45 42 38 31 36 37 39 40 41 41 39 40 43 47 50 44 38 34 30 33 36 42 41 41 35 31 26 26 36 41 48 46 40 41 54 55 58
49 49 50 50 50 50 46 45 45 41 35 33 40 37 40 34 35 36 40 47 50 47 40 34 27 24 32 30 37 43 41 39 30 31 23 22 43 49 54 50 37 51 52 53
49 49 50 50 50 51 47 44 46 41 32 39 43 36 36 41 39 34 38 41 42 46 31 30 27 27 37 30 29 32 32 32 31 31 29 31 44 49 52 34 36 49 52 50
49 49 49 49 50 50 47 44 47 41 35 37 43 44 42 42 41 33 38 39 39 37 31 31 29 24 32 32 35 32 31 30 29 33 29 27 50 47 41 44 50 50 53 51
49 49 49 49 49 50 49 42 46 47 39 37 45 47 50 48 50 45 43 42 40 42 35 32 31 25 24 31 27 39 30 35 30 34 34 47 50 49 52 52 50 52 51 54
48 49 49 49 50 50 49 44 44 43 39 38 37 39 47 52 52 55 40 40 45 42 42 35 34 29 30 25 27 34 39 43 37 37 46 48 51 53 53 55 53 55 55 53
49 49 49 49 50 50 49 43 45 43 39 33 33 46 45 51 52 52 48 47 47 45 41 36 33 29 38 29 37 33 40 43 40 40 46 49 52 52 54 54 56 54 56 54
48 49 49 50 50 50 49 46 46 48 41 31 32 41 46 50 50 49 50 47 45 40 38 32 31 36 38 36 36 32 39 38 34 33 43 41 47 52 54 53 54 56 54 55
48 49 49 50 50 50 44 37 45 49 44 36 27 40 42 46 48 48 47 48 45 43 39 34 37 43 41 34 32 40 41 42 42 40 42 43 46 51 50 51 51 54 54 52
48 48 49 49 49 46 39 37 42 49 46 38 32 35 40 45 45 44 43 44 44 42 41 36 38 39 41 32 31 36 39 39 41 41 42 43 45 42 43 43 46 44 42 40
48 48 47 48 48 48 43 44 49 47 40 38 31 32 36 42 37 38 43 40 41 40 37 40 37 39 36 28 32 34 36 37 40 38 42 41 42 40 38 39 39 36 34 34
48 48 48 45 43 40 42 49 49 44 41 32 31 30 30 40 37 37 38 40 32 40 33 37 38 29 23 26 29 30 32 32 34 36 41 40 37 35 33 33 32 30 29 30
48 45 39 32 40 47 47 43 36 35 37 36 31 33 31 37 33 32 34 32 31 30 35 37 28 24 28 29 30 30 31 32 34 33 33 32 34 32 30 29 30 29 27 27
41 38 33 42 46 43 38 32 31 32 29 32 32 31 32 36 31 31 32 28 28 26 32 28 24 21 25 28 28 29 30 31 31 32 31 30 31 29 28 27 27 27 27 26
42 41 42 40 36 31 28 25 26 30 30 32 27 29 35 35 39 34 34 28 31 25 31 23 17 22 26 26 26 26 27 27 27 28 27 27 27 27 26 25 24 24 23 23
41 36 31 29 24 18 17 23 26 26 30 30 32 32 33 35 36 33 33 30 28 31 21 16 19 24 25 25 26 25 26 26 25 25 25 25 24 25 25 23 23 23 22 22
29 26 17 17 14 17 19 22 22 27 27 30 30 32 32 32 31 32 27 26 26 17 10 11 19 22 23 24 24 24 22 23 23 22 23 22 22 21 22 22 22 21 20 20
25 23 13 16 21 23 24 26 27 29 31 30 31 32 31 25 26 23 23 18 11 14 10 15 21 23 23 23 23 22 22 22 21 22 21 21 21 20 20 21 21 21 20 20
24 21 16 17 16 19 21 24 24 28 28 31 31 28 24 20 22 15 13 13 8 11 16 20 21 20 20 20 20 20 22 22 22 22 22 21 20 20 20 20 20 20 20 18
19 16 19 16 15 17 20 24 24 28 28 25 25 19 19 24 16 13 15 11 14 17 18 20 21 20 20 20 21 21 21 20 20 21 21 21 22 22 20 18 19 20 19 18

GFSNW_sfc_temp_048.txt.gz
Temp
51 51 51 51 51 51 48 41 33 47 50 36 34 31 37 43 42 46 42 42 40 37 39 38 40 40 46 51 50 44 46 40 34 43 53 54 48 45 45 35 36 34 30 39
51 51 51 51 51 51 44 37 37 47 47 31 31 35 37 39 39 40 40 39 40 42 38 35 40 44 50 51 49 46 47 40 31 37 44 46 42 46 46 44 39 35 29 36
50 51 51 51 51 51 45 36 30 38 41 40 37 33 33 34 40 39 40 39 41 39 36 40 37 39 47 51 51 49 49 41 37 32 37 40 37 42 44 42 32 35 39 41
50 50 50 50 51 51 44 36 32 38 31 33 36 37 37 33 35 41 40 36 36 35 31 33 34 41 43 47 49 48 46 36 38 42 43 42 42 42 43 40 40 35 41 43
49 49 50 50 50 51 41 32 33 38 36 39 35 35 33 35 37 39 36 33 37 37 33 35 33 38 37 38 44 42 44 34 36 33 42 42 39 42 43 44 44 42 44 45
49 49 49 49 50 49 40 40 41 39 36 35 33 34 35 35 40 41 43 39 37 34 38 40 42 41 41 40 38 37 38 36 33 30 36 38 31 38 43 44 46 45 38 46
49 49 49 49 50 49 43 41 40 34 30 33 34 37 38 37 39 37 42 43 37 43 46 44 41 40 39 39 39 41 36 33 30 27 30 24 39 45 47 44 46 46 46 48
49 49 49 49 50 50 44 43 41 36 30 35 36 37 36 40 42 39 41 42 47 46 44 35 32 29 32 35 40 40 40 32 26 23 26 33 39 44 44 42 45 48 48 49
48 48 49 49 49 50 45 43 45 40 34 32 40 36 37 34 34 37 39 47 49 45 36 31 26 22 30 30 37 41 38 37 33 30 22 19 35 45 49 46 34 45 46 46
48 49 49 49 49 49 46 44 46 41 32 39 41 36 36 40 37 34 37 40 41 45 31 29 26 26 35 28 31 32 32 32 31 31 28 31 41 46 48 32 35 47 48 47
48 48 48 48 48 48 46 44 47 41 35 39 43 44 40 39 39 32 38 37 37 35 30 28 28 25 31 30 33 31 30 27 29 32 28 25 45 45 39 44 48 47 48 48
48 48 49 49 49 49 48 40 46 46 39 38 44 46 50 49 48 45 42 39 39 38 31 31 29 24 23 31 25 35 29 33 30 33 33 42 46 47 50 50 47 49 48 51
48 48 49 49 49 49 48 42 44 43 37 37 39 38 47 50 49 51 40 40 45 42 40 33 32 28 28 24 27 33 36 40 34 35 41 44 46 49 50 52 50 53 54 55
48 48 48 48 49 50 49 43 45 43 39 32 33 44 43 50 51 49 47 46 47 46 43 37 30 28 36 27 34 31 37 39 37 38 42 43 48 47 47 49 52 54 54 55
49 49 49 49 49 49 48 46 46 48 40 31 31 40 45 49 48 48 48 47 44 41 37 35 31 33 35 33 33 31 36 35 32 31 38 39 40 45 44 46 44 47 52 52
48 48 49 50 49 49 44 35 44 48 43 37 28 37 39 43 46 46 46 47 44 42 39 36 37 41 40 28 25 37 39 41 41 39 40 39 41 44 42 41 42 43 42 40
48 48 49 50 50 47 39 37 42 48 47 37 30 28 38 42 42 42 43 45 42 42 39 37 37 37 40 28 26 34 35 35 37 42 40 40 41 38 39 39 40 40 38 36
48 48 49 49 49 47 42 44 48 49 41 38 26 32 36 42 34 37 41 39 41 41 36 39 37 38 35 30 29 31 34 35 38 37 38 40 40 37 35 36 35 32 30 30
48 49 49 45 43 40 42 49 48 46 41 31 31 29 29 39 37 38 38 39 32 39 34 35 37 28 19 23 26 28 29 30 32 35 37 38 36 32 31 31 30 28 27 28
47 44 39 33 41 48 47 42 36 37 36 36 28 34 31 37 33 32 33 33 32 30 33 33 26 22 27 27 28 28 28 31 32 31 30 30 31 30 28 27 29 28 27 27
41 37 36 43 46 41 37 31 31 33 30 33 33 33 33 36 31 31 30 30 29 29 31 28 23 19 24 27 26 27 28 29 28 29 28 28 28 27 26 25 26 25 25 23
42 41 42 40 34 31 30 28 30 30 29 32 31 33 35 35 39 33 34 28 30 25 29 22 15 21 24 24 24 25 26 26 25 26 25 25 26 25 25 24 23 22 22 21
39 36 30 31 23 15 14 24 25 26 29 30 32 31 33 34 36 33 31 29 25 28 19 15 17 22 24 24 24 24 25 24 24 23 24 24 22 23 22 21 21 21 20 20
28 25 12 12 9 16 20 19 20 27 28 29 31 32 31 32 30 30 24 22 23 12 7 10 18 21 22 23 23 22 21 21 21 21 21 21 20 19 20 20 21 20 18 18
23 21 10 14 20 21 22 24 25 26 28 30 31 29 28 24 23 22 21 14 6 12 8 13 19 21 22 21 22 21 21 20 20 20 20 19 19 19 18 19 19 19 18 18
22 19 15 16 17 17 18 20 20 27 26 30 30 26 19 18 21 14 10 11 5 7 11 17 19 19 19 19 20 20 20 20 20 20 20 20 19 18 17 18 18 17 17 16
18 14 17 14 13 15 18 21 23 27 27 23 24 17 15 21 13 11 14 4 8 14 17 19 19 18 18 19 19 19 19 19 19 19 20 20 20 20 19 16 17 17 17 16

GFSNW_sfc_temp_051.txt.gz
Temp
51 51 51 51 51 51 47 41 31 46 49 35 35 32 34 43 42 46 44 42 41 39 40 39 41 42 45 51 51 46 50 45 40 46 55 56 54 51 50 42 41 40 39 44
50 51 50 51 51 51 42 37 37 46 46 29 31 35 35 40 40 41 41 39 41 43 40 36 41 43 51 51 51 47 49 42 37 41 47 50 45 47 47 46 43 40 37 43
50 51 50 51 50 51 44 36 30 37 39 40 35 33 34 34 41 40 41 39 42 40 38 41 39 41 48 49 51 48 50 45 40 36 39 44 41 45 47 46 39 40 42 46
50 50 50 50 50 50 43 37 32 38 30 32 34 35 35 33 34 41 43 37 38 37 33 35 37 42 43 48 49 50 48 41 43 46 46 45 44 45 46 43 45 40 46 47
49 50 49 50 50 50 40 32 33 37 35 37 33 34 33 34 37 39 36 36 39 39 35 37 36 39 41 40 45 44 45 38 40 37 44 44 41 44 46 46 47 47 47 46
49 49 49 50 50 49 39 40 41 37 35 35 32 34 35 35 40 41 44 41 37 35 39 43 44 45 44 43 40 39 39 38 36 34 38 39 35 41 44 47 51 50 44 53
48 49 49 49 49 48 42 41 40 34 29 32 33 37 36 37 39 37 42 43 37 44 50 48 45 42 41 42 41 43 38 37 33 31 34 26 44 49 49 47 50 53 52 53
49 49 49 49 49 49 42 43 39 36 30 35 36 36 37 37 40 38 38 42 47 48 43 35 34 34 35 38 41 41 43 38 33 30 31 38 43 48 48 44 47 51 49 52
48 48 48 49 49 50 44 43 44 39 34 32 40 37 39 34 34 34 37 45 48 46 36 33 27 27 33 31 37 42 40 41 36 32 28 25 40 48 53 52 40 53 52 53
47 48 48 49 49 49 45 43 45 39 32 38 41 36 35 38 37 35 37 39 37 42 33 30 29 29 37 31 32 32 33 33 32 32 30 36 46 50 52 38 43 53 53 55
47 47 47 48 49 49 46 43 46 40 34 38 43 45 39 39 37 33 38 36 36 35 31 31 32 30 35 35 37 35 34 33 32 34 29 27 49 49 43 50 53 54 55 55
47 48 48 48 48 49 48 40 46 45 38 38 46 48 50 49 47 43 41 41 38 39 35 35 35 31 32 36 31 39 34 39 36 38 39 47 50 50 54 53 51 53 53 56
47 48 48 48 48 49 47 42 45 42 34 37 39 39 47 51 51 52 39 42 45 42 45 39 37 33 35 31 33 38 40 43 39 39 46 48 51 52 48 49 49 51 53 55
47 47 48 48 48 48 47 42 44 41 37 33 35 46 44 51 50 49 49 48 48 47 45 39 36 34 40 35 40 38 43 42 40 41 46 46 50 46 44 46 48 48 49 51
48 48 48 48 49 49 47 44 45 46 40 32 34 42 46 49 48 47 48 47 46 43 38 35 34 38 39 37 38 37 43 41 38 39 39 38 41 47 44 43 42 44 43 43
49 49 49 49 48 48 44 36 44 48 45 36 31 41 41 44 46 45 45 45 45 43 38 36 40 44 41 33 34 39 40 40 41 40 41 42 44 45 41 39 39 41 39 37
48 49 50 49 48 46 37 37 43 49 45 37 31 32 40 43 43 42 43 45 43 41 38 37 37 40 43 35 32 33 36 37 39 40 39 41 41 37 38 38 38 38 36 34
48 48 49 49 49 47 42 45 48 49 40 38 29 30 35 43 36 36 42 38 39 38 36 37 38 39 37 33 28 31 32 34 38 36 37 36 39 37 35 36 36 33 30 30
48 49 49 46 42 39 41 48 48 46 41 32 31 27 29 40 37 39 39 41 34 41 34 36 36 29 29 24 26 27 28 29 30 34 37 36 34 32 31 31 31 30 28 29
47 45 38 33 41 47 47 41 38 37 38 37 32 34 31 36 35 35 35 35 33 31 33 33 27 23 26 27 27 27 28 29 31 29 30 30 29 28 27 27 28 28 27 25
42 37 36 42 47 41 37 32 31 33 30 33 34 33 33 37 32 33 34 32 33 29 30 28 23 21 24 27 27 28 28 28 28 28 27 27 27 26 25 24 24 24 23 21
41 40 41 38 34 32 31 28 31 31 30 33 31 33 34 35 35 32 33 31 31 26 29 24 17 21 25 25 25 25 26 26 25 26 25 26 25 25 24 23 22 21 21 20
39 34 30 30 24 17 17 22 25 25 28 30 32 32 32 34 36 33 34 29 23 29 19 16 18 22 24 24 25 24 25 24 24 23 23 23 22 23 22 20 20 20 19 19
29 27 16 17 13 17 19 20 21 26 28 28 31 32 30 31 28 29 24 22 24 14 12 12 19 21 22 23 23 23 21 21 21 21 21 20 19 18 19 19 19 18 16 17
23 22 13 16 19 21 22 23 25 26 28 29 32 27 29 25 22 21 21 16 11 14 12 16 19 21 21 21 21 21 20 20 19 20 19 18 18 17 17 18 18 18 17 17
22 18 16 17 17 17 18 19 21 26 26 30 29 22 20 19 20 15 10 14 9 11 15 19 20 19 19 19 20 20 20 20 20 20 19 19 17 17 17 17 17 16 16 14
18 15 17 16 16 16 18 21 22 27 26 23 24 17 16 21 14 11 15 9 12 17 18 20 20 19 18 19 19 19 19 19 19 19 19 19 19 19 18 16 17 18 17 16

GFSNW_sfc_temp_054.txt.gz
Temp
51 52 51 51 51 51 48 45 34 53 54 36 38 33 42 46 47 51 49 48 45 43 45 43 45 44 51 56 57 51 57 52 47 52 59 63 63 58 58 49 47 51 49 54
50 51 50 51 50 51 48 41 40 53 50 30 32 39 40 45 46 47 46 45 46 48 44 39 46 49 55 55 54 50 54 51 43 47 53 58 55 56 57 54 53 48 43 52
50 50 50 50 50 51 46 40 32 40 43 42 39 38 38 39 47 47 48 47 47 44 43 48 43 46 52 54 54 48 53 51 47 44 48 54 47 51 53 53 46 49 50 54
50 50 50 50 51 50 45 38 34 44 31 36 38 40 38 40 38 46 49 45 45 43 37 42 42 47 50 53 52 54 52 42 48 50 50 51 50 51 52 50 51 46 52 53
49 50 50 50 49 50 42 33 35 41 42 44 39 39 36 39 40 42 42 42 45 45 40 43 42 45 47 45 51 49 52 45 47 44 50 49 46 51 53 53 53 53 55 55
49 49 50 49 49 49 42 41 45 38 40 40 39 39 40 41 44 45 48 46 43 40 44 49 51 50 50 49 46 44 45 45 43 40 45 46 40 48 52 54 59 57 51 60
49 50 50 49 49 49 46 43 42 35 30 36 39 42 43 43 43 41 47 45 41 46 53 53 52 50 49 48 48 49 43 43 43 40 39 30 51 56 55 53 57 60 59 60
49 49 49 48 48 49 46 47 39 35 32 41 41 42 42 45 45 37 38 45 48 48 40 37 39 40 40 43 47 47 49 45 38 35 38 45 49 54 53 51 53 58 58 60
48 48 49 49 49 49 47 46 48 40 31 35 46 42 44 40 39 39 37 43 47 43 36 35 31 32 38 36 40 50 47 47 41 37 32 29 48 54 58 58 45 59 59 58
48 48 48 48 48 49 47 46 49 41 32 39 43 40 40 44 40 35 37 38 38 41 35 32 34 34 42 35 35 33 36 38 34 36 34 42 54 58 58 42 45 58 59 60
47 48 48 48 48 49 47 46 50 42 34 37 45 47 43 44 41 34 40 36 36 35 33 35 36 36 41 40 43 39 35 36 35 39 32 30 57 54 47 52 58 58 60 60
47 47 47 48 48 48 48 43 50 49 37 38 49 51 54 53 52 43 40 42 40 43 40 42 43 37 41 42 36 49 38 46 43 45 44 54 57 56 58 57 55 56 56 58
47 47 47 48 47 48 47 44 48 42 36 36 40 44 51 56 55 54 38 43 47 46 52 43 43 36 45 36 41 45 50 54 46 47 53 55 58 59 55 55 54 55 56 56
47 47 47 47 48 48 48 42 44 42 38 33 37 51 49 56 55 53 50 48 50 49 48 43 41 39 49 43 47 45 51 52 48 49 54 57 58 54 52 52 53 53 54 53
47 47 47 48 48 49 47 44 45 45 42 35 40 44 48 54 52 50 49 46 45 44 39 36 36 46 45 47 46 45 54 49 45 44 49 48 49 53 49 49 49 50 48 49
47 47 47 48 47 48 41 34 43 46 47 38 34 48 44 48 50 48 47 46 44 42 39 38 44 49 43 39 40 51 47 47 47 46 47 49 51 53 47 46 46 46 45 44
47 47 48 47 47 44 39 40 45 47 46 38 37 40 45 49 48 46 43 48 45 44 40 38 38 42 46 36 37 38 40 42 44 43 40 44 41 41 42 42 42 42 43 41
49 49 48 47 47 45 42 48 48 48 41 42 35 36 39 48 41 40 47 42 42 38 37 38 38 44 39 33 31 37 40 41 43 39 41 38 40 38 36 38 38 39 36 36
49 49 48 46 42 39 42 48 48 48 42 35 36 34 32 46 43 45 43 42 33 39 34 36 41 35 33 26 30 31 31 32 34 39 42 38 35 33 31 32 31 33 30 30
48 45 38 34 41 47 46 41 35 36 39 43 38 44 33 38 39 39 40 42 36 32 34 35 34 29 28 30 30 30 31 32 34 33 35 34 33 32 28 27 28 27 25 25
42 36 36 43 48 45 38 33 35 34 32 37 41 39 35 42 35 36 41 35 36 31 31 34 31 28 27 31 31 31 31 32 31 31 30 31 30 30 28 26 26 25 24 23
43 41 40 37 36 36 33 32 32 33 32 34 34 37 40 38 40 37 38 34 34 30 36 32 27 24 28 28 27 28 29 29 28 29 28 27 28 27 26 25 23 22 22 22
46 42 34 37 32 27 29 27 30 30 33 34 33 33 35 35 36 34 35 32 29 35 29 25 24 26 27 28 28 27 29 27 26 25 24 25 24 24 23 21 21 21 20 20
37 32 23 26 23 25 25 27 28 30 31 33 33 34 33 33 31 30 28 27 31 25 23 19 23 24 25 26 27 26 23 23 23 22 22 20 20 20 20 20 20 19 18 18
29 29 20 22 25 26 26 28 29 31 32 32 33 32 34 30 27 28 27 24 21 23 21 22 24 24 24 24 24 22 21 21 21 21 20 19 19 19 18 19 19 19 18 18
28 24 22 25 26 24 26 26 28 31 29 33 36 30 28 24 26 23 18 24 20 19 22 24 25 22 22 22 22 22 22 22 21 21 20 19 19 18 19 19 18 18 17 16
23 21 25 24 24 22 24 26 27 31 31 28 30 24 20 28 22 17 21 18 20 22 22 24 24 22 21 22 22 22 22 22 22 22 22 21 21 21 20 19 20 20 19 17

GFSNW_sfc_temp_057.txt.gz
Temp
51 50 51 52 52 51 50 46 33 59 60 36 40 37 47 51 53 57 53 53 50 48 49 47 47 48 53 58 56 50 57 53 47 51 62 66 63 58 57 49 47 54 51 52
50 50 51 51 51 50 48 41 42 58 52 34 37 44 45 49 50 52 52 50 53 54 49 43 49 52 58 57 53 48 53 50 42 48 56 61 57 60 62 60 58 46 44 51
50 50 51 51 50 50 48 40 33 45 45 46 42 41 41 42 52 52 54 52 54 50 47 51 46 49 55 57 55 49 52 50 48 43 50 58 53 57 60 58 49 50 51 56
50 50 50 50 50 50 45 40 37 44 34 41 42 44 42 41 41 51 53 49 50 48 43 46 45 50 53 57 52 54 48 44 49 54 55 55 56 55 56 54 56 50 55 57
49 49 50 50 50 50 41 35 37 46 44 46 43 43 38 41 45 47 45 46 50 51 46 47 45 49 48 48 55 52 51 40 45 45 53 52 50 55 57 58 58 57 59 58
49 50 49 49 50 49 39 46 47 41 40 43 41 41 44 44 48 48 50 50 48 46 50 52 53 53 49 51 49 48 48 44 39 35 48 49 42 51 54 56 60 59 53 62
49 49 49 49 49 49 43 44 47 37 34 41 41 45 45 45 47 45 50 52 47 52 56 55 54 53 51 52 51 53 46 47 46 39 42 28 52 61 61 58 61 64 63 64
49 49 49 49 49 49 46 46 43 39 32 42 43 43 44 49 48 45 47 49 46 50 46 40 39 40 41 43 51 51 52 47 41 37 39 48 53 57 56 54 56 63 62 62
48 48 48 48 49 50 48 43 48 41 35 37 47 44 48 42 43 45 46 51 49 43 38 35 32 32 40 39 44 53 51 50 42 41 34 33 50 60 62 62 48 63 62 61
48 48 48 48 48 48 48 45 49 42 32 45 45 36 41 48 46 42 43 42 40 41 35 32 34 35 45 37 37 38 40 41 36 38 37 45 58 61 62 43 47 60 61 61
48 48 48 48 48 48 48 48 52 44 37 44 48 50 44 43 45 37 41 36 36 35 33 36 39 38 43 43 43 43 40 36 36 39 35 33 61 59 49 52 59 60 60 60
47 48 48 48 48 48 48 44 54 51 39 44 51 53 55 52 51 44 41 42 40 46 41 44 42 39 42 43 37 48 38 46 43 46 45 57 62 58 59 59 57 58 58 60
47 48 48 48 48 49 48 49 51 44 36 39 43 44 52 56 54 57 38 45 43 47 54 43 44 38 44 36 43 45 52 51 48 44 55 54 59 60 60 59 58 59 60 59
47 47 48 48 48 48 48 44 50 45 41 32 40 54 47 56 57 54 52 50 52 49 47 43 41 39 51 43 48 47 53 53 51 50 55 58 61 58 56 57 58 57 58 57
47 47 48 48 48 48 46 46 49 51 44 35 39 50 52 55 55 53 50 47 44 40 40 38 39 47 47 48 48 45 56 52 47 46 52 53 55 57 56 53 53 54 52 52
47 47 48 48 48 48 43 35 43 51 50 37 33 49 50 52 52 51 49 45 42 41 39 40 46 51 47 39 40 53 53 54 52 49 50 51 53 55 52 50 50 49 48 47
47 47 47 48 47 45 39 40 48 49 48 36 34 37 50 50 49 47 45 46 42 39 38 36 41 46 46 41 38 43 47 49 50 49 48 47 46 44 46 46 47 47 46 44
47 47 47 47 46 47 42 50 48 48 40 40 35 38 42 52 42 39 47 39 41 40 43 42 44 46 44 34 38 44 45 46 48 45 47 46 45 42 40 41 41 39 36 35
47 47 47 44 41 38 44 48 48 49 44 36 39 35 33 49 45 46 44 45 35 44 40 40 43 39 32 29 35 36 35 37 39 43 46 43 39 38 39 38 37 35 31 31
47 43 37 34 41 47 46 40 35 36 40 43 39 47 35 45 43 41 41 41 39 34 36 38 35 28 32 35 34 34 35 37 38 36 38 35 35 35 33 32 32 31 30 28
42 35 36 43 48 43 37 34 35 35 35 43 44 44 36 43 37 38 44 37 40 34 36 34 33 28 28 34 34 34 34 34 33 33 32 32 32 32 32 29 28 28 27 25
43 41 42 43 39 37 35 34 36 37 37 39 38 41 44 42 45 38 43 37 38 31 40 35 31 27 31 31 30 31 31 30 29 30 29 29 29 29 28 26 25 24 24 23
48 41 37 41 34 30 30 27 32 32 34 36 35 35 38 39 40 36 36 31 32 41 32 29 27 30 31 31 31 28 29 29 28 26 27 26 25 25 23 22 23 23 22 22
43 35 25 29 27 28 29 29 30 31 32 35 35 34 34 34 33 34 30 31 34 29 27 24 26 26 27 27 28 27 24 25 25 24 23 22 22 21 21 21 21 21 19 19
33 34 24 25 28 29 29 30 32 33 36 35 34 35 36 32 29 31 29 27 26 27 24 24 26 26 26 25 25 24 23 23 23 23 21 21 21 20 20 21 21 20 19 19
31 28 26 29 29 28 29 30 30 34 34 36 35 31 29 27 30 27 24 27 24 23 25 25 26 24 24 24 24 24 24 24 23 23 22 22 21 20 19 20 20 19 19 18
27 24 28 28 27 26 28 30 30 34 32 31 33 28 23 33 27 22 25 22 23 25 26 27 26 24 24 24 24 24 24 24 24 24 23 23 24 24 24 22 22 23 21 19

GFSNW_sfc_temp_060.txt.gz
Temp
51 51 51 51 52 52 49 42 33 58 58 38 40 32 43 49 54 58 54 53 51 49 50 48 48 49 54 58 56 48 53 51 43 47 59 63 59 55 54 43 42 49 45 49
51 51 51 50 50 51 48 37 43 57 52 32 35 43 44 48 49 52 51 50 53 53 49 44 49 51 59 58 55 48 50 47 39 44 52 57 53 55 57 55 50 38 39 45
50 50 50 51 50 51 46 36 33 45 44 47 41 39 41 42 52 50 53 52 55 51 48 52 47 50 56 58 57 50 51 44 43 39 43 45 42 54 54 53 39 40 41 50
50 49 50 50 50 50 44 36 35 44 33 39 42 43 40 41 43 51 53 49 50 49 43 46 46 51 53 57 52 53 47 37 45 48 51 51 51 50 54 50 47 41 49 52
49 50 50 50 50 50 40 32 37 46 43 43 40 42 39 41 43 47 46 46 50 51 45 47 44 49 47 49 54 51 48 37 41 41 50 53 50 53 48 48 57 56 53 48
49 50 50 49 49 48 38 40 47 39 37 39 39 37 42 44 48 48 49 48 47 47 48 49 51 53 49 48 46 46 44 41 36 35 46 47 41 50 51 50 59 58 50 59
49 49 49 49 49 48 45 42 44 35 32 38 39 44 43 41 47 45 51 49 45 47 55 56 55 53 52 51 50 52 44 43 38 33 37 29 50 61 60 56 59 61 61 62
49 49 49 49 49 49 44 45 41 37 32 39 41 43 43 46 46 46 48 50 50 49 46 41 40 41 41 45 49 49 51 45 35 31 34 40 48 55 55 53 53 63 61 64
48 48 48 48 49 49 46 45 47 36 34 36 45 42 43 38 41 43 48 53 52 48 39 36 31 31 39 39 43 52 50 49 39 37 31 28 48 58 63 62 46 62 62 60
48 48 48 48 48 49 47 45 47 39 32 44 46 37 36 42 41 40 45 44 43 45 34 31 32 33 44 34 36 38 39 39 34 35 33 42 57 61 62 42 42 57 59 58
46 47 48 48 48 48 47 45 48 41 36 43 48 49 42 43 39 35 42 39 39 36 31 34 37 36 40 40 42 39 39 35 34 37 33 32 61 59 49 50 53 55 56 58
46 46 47 48 48 48 48 42 48 48 38 43 51 52 54 52 48 39 40 42 35 42 36 41 41 36 40 41 34 42 33 45 41 43 42 56 61 55 58 58 54 53 55 58
47 46 46 48 48 48 48 46 48 44 38 40 43 43 52 57 55 56 37 44 47 42 43 39 40 36 43 36 40 42 41 49 46 44 52 56 54 57 58 58 56 57 57 56
47 46 46 48 48 48 48 45 50 45 40 33 40 55 51 57 57 55 53 48 48 44 41 37 38 38 46 39 44 41 43 41 46 47 49 46 47 51 54 55 55 53 54 53
47 46 47 48 48 48 48 47 49 50 43 35 39 47 53 57 54 51 51 49 46 40 37 36 37 45 43 46 46 43 51 41 41 40 46 45 43 50 54 50 49 49 48 47
46 47 48 48 48 48 45 35 46 50 48 36 32 46 44 50 52 51 49 47 43 41 37 37 45 52 45 39 36 42 47 51 49 45 50 50 50 49 49 48 47 48 46 44
46 47 48 48 48 46 37 38 48 49 48 35 33 37 48 50 50 47 46 46 41 39 38 37 41 44 46 40 36 39 43 48 48 48 49 48 45 41 44 44 45 46 42 39
47 47 47 48 47 46 40 47 50 51 41 38 31 34 40 48 40 38 44 39 40 39 38 39 39 45 43 34 37 41 41 46 44 44 48 43 44 44 42 43 42 37 35 34
47 47 48 44 41 38 41 48 48 50 43 33 35 32 32 49 44 44 42 42 34 40 37 40 42 39 32 29 33 33 35 37 38 42 45 44 40 39 38 37 37 34 31 30
47 42 36 33 39 48 46 41 35 37 39 40 36 44 36 44 42 41 41 42 38 32 37 43 36 28 33 35 34 34 35 36 35 34 32 34 34 35 32 31 31 31 28 28
42 37 36 42 47 42 37 33 33 34 33 41 42 42 38 46 37 37 41 36 39 32 35 34 33 27 28 35 33 34 33 33 32 32 31 31 30 30 29 27 27 26 26 23
43 41 43 43 38 35 32 32 34 35 35 41 39 41 42 42 46 39 41 36 38 31 38 34 27 26 30 31 30 30 30 29 28 30 29 28 28 28 27 25 24 23 23 22
48 42 35 36 35 30 30 28 32 32 36 38 37 35 38 41 41 37 35 32 32 41 32 26 25 28 30 30 30 28 30 28 27 26 26 25 24 25 24 22 22 22 20 20
41 36 27 31 29 29 28 29 30 32 34 35 37 34 34 35 33 34 30 32 34 30 28 23 24 26 26 27 27 26 24 24 23 23 22 21 21 20 20 20 20 19 18 18
34 35 25 26 29 30 31 32 33 33 36 35 34 35 37 33 31 33 31 28 28 26 21 24 25 26 25 24 24 23 22 22 22 22 21 20 20 19 19 20 20 20 19 18
32 30 28 31 30 29 30 31 30 34 34 37 38 33 31 29 31 28 25 27 23 22 24 25 26 24 24 23 24 23 23 23 22 22 22 21 20 19 19 20 19 19 19 18
29 26 30 30 30 28 29 30 31 35 33 32 33 29 25 30 28 23 25 22 23 25 25 26 25 24 23 24 24 24 24 24 24 24 23 23 23 24 23 21 21 22 20 18

GFSNW_sfc_temp_063.txt.gz
Temp
51 51 51 51 51 50 46 40 27 46 50 34 35 29 38 44 43 48 46 47 47 44 45 43 44 45 48 53 52 45 47 42 37 44 56 58 55 50 44 34 36 40 38 40
49 51 51 51 51 50 39 35 34 46 45 29 28 36 39 41 41 42 44 45 49 49 43 38 44 47 53 54 50 44 46 39 33 39 49 55 48 52 49 48 46 35 32 40
50 50 50 50 50 50 43 35 27 34 36 36 33 33 35 37 46 45 47 46 48 45 42 46 41 45 53 52 52 50 49 42 37 32 39 42 39 46 52 47 36 38 38 44
49 50 50 50 50 49 42 35 29 35 29 30 33 36 37 35 34 46 48 43 44 42 39 41 40 46 47 53 50 48 43 35 40 41 44 46 42 42 48 45 45 38 43 43
49 49 49 49 50 49 38 30 29 35 33 37 34 33 33 35 38 38 38 38 44 45 41 41 38 41 42 41 48 45 44 34 38 37 46 46 44 46 50 46 47 48 46 43
50 50 49 49 49 47 36 39 40 34 33 32 29 32 35 35 40 44 42 42 38 38 42 43 44 45 44 44 41 41 39 36 34 31 40 39 35 45 45 44 46 47 38 50
50 50 49 49 49 48 38 37 37 31 26 31 32 37 39 38 37 35 43 45 41 44 49 48 49 46 46 44 44 47 40 37 35 29 35 26 44 51 53 48 48 52 57 56
49 49 49 49 49 49 41 40 37 33 23 33 35 37 38 40 39 34 38 45 44 47 43 36 34 32 35 39 44 44 44 38 28 27 30 37 43 49 50 49 49 57 57 58
48 48 48 48 49 49 42 41 42 36 29 27 38 35 40 32 32 35 36 45 45 42 33 29 25 24 33 33 39 47 44 40 32 28 27 25 40 52 59 57 38 53 53 53
48 48 48 48 48 49 43 39 43 37 29 35 37 31 33 36 33 32 38 39 37 40 33 23 26 25 39 29 32 32 33 33 29 29 27 34 50 55 60 39 37 50 52 51
48 48 48 48 48 48 44 40 44 38 33 37 42 41 36 38 37 31 35 33 36 33 27 25 27 25 33 33 39 34 32 31 28 28 26 26 55 49 44 44 48 50 50 50
47 48 47 46 47 48 47 38 44 43 35 35 43 44 45 43 44 37 37 33 35 37 33 30 31 27 31 34 29 40 31 37 32 35 33 46 51 49 50 50 49 49 49 51
47 47 48 46 47 48 47 40 40 38 35 35 35 36 46 51 48 48 34 38 43 39 40 34 35 30 34 28 33 37 40 43 37 39 42 43 44 48 52 51 49 50 50 49
47 47 47 47 46 48 47 39 40 40 37 23 31 47 43 49 49 47 45 43 44 41 39 35 33 32 40 32 37 35 39 38 37 39 42 42 42 43 45 47 49 48 48 46
47 47 48 47 47 48 45 40 41 42 36 29 31 40 46 49 47 46 44 42 40 38 35 34 33 37 38 38 39 35 41 33 34 34 39 40 39 44 45 43 45 44 43 39
47 47 47 47 48 48 39 33 40 42 41 32 24 39 41 44 46 44 42 41 39 38 35 35 38 44 40 30 30 37 42 42 41 34 42 40 40 41 45 44 40 39 37 37
47 47 47 47 47 42 34 33 40 46 43 34 29 31 41 45 44 41 40 42 39 39 37 35 37 37 41 30 28 35 40 43 42 44 44 38 40 37 42 42 39 37 34 33
47 47 47 47 47 45 38 40 47 47 37 37 29 29 33 44 37 36 42 38 38 37 37 37 36 38 37 30 32 35 37 40 37 40 42 40 40 37 36 38 36 31 29 28
47 47 47 43 40 37 37 48 47 46 38 29 31 26 28 42 39 38 38 39 31 38 33 34 35 29 26 28 30 30 32 32 32 38 37 37 34 32 31 31 30 27 26 26
47 42 35 31 37 47 47 40 35 35 36 36 29 36 29 38 36 33 34 35 32 28 31 36 32 25 31 32 31 30 31 32 32 29 27 30 28 27 26 26 26 26 24 22
41 35 33 42 48 40 36 31 31 32 30 33 33 34 31 41 32 32 35 30 30 26 30 30 29 24 26 30 28 29 29 30 29 29 28 27 27 25 24 23 23 22 22 20
42 41 43 41 37 33 31 29 31 29 28 32 30 32 37 37 42 34 35 31 32 27 32 29 19 23 26 27 26 27 27 26 25 26 24 25 25 24 23 22 20 20 20 19
45 40 35 35 33 28 27 22 24 24 31 33 34 33 34 36 36 32 32 29 27 34 29 21 21 24 26 26 25 24 25 25 24 22 22 21 20 21 20 17 16 16 15 13
36 31 22 27 26 26 25 27 28 31 33 33 33 32 32 33 32 31 28 28 27 26 21 15 20 22 23 23 24 22 19 20 19 18 18 17 16 15 15 14 11 13 13 13
30 30 22 22 26 26 28 30 30 31 33 33 31 28 29 27 28 31 28 23 22 20 13 17 20 20 20 18 19 18 19 18 17 17 16 13 12 14 15 13 13 13 13 13
28 27 25 28 24 26 28 29 28 32 32 34 33 29 29 27 28 23 19 20 13 14 15 20 21 19 20 19 20 19 20 19 19 18 17 15 13 14 14 13 15 13 12 11
24 20 24 24 20 20 26 28 29 33 31 30 28 22 23 26 21 18 19 13 17 20 20 21 21 20 19 20 21 21 21 21 20 20 19 19 19 19 19 16 16 18 17 12

GFSNW_sfc_temp_066.txt.gz
Temp
50 51 51 51 51 50 45 34 24 44 46 31 33 29 35 41 40 45 42 44 41 40 42 40 40 43 46 51 51 43 45 40 32 41 52 56 49 43 43 34 34 38 35 35
50 50 50 51 50 50 36 34 31 41 40 26 26 33 36 38 38 39 40 41 44 43 39 36 43 44 50 51 47 42 43 37 30 36 45 51 45 48 47 44 40 34 32 37
50 50 50 50 50 50 41 35 24 29 33 33 32 30 31 33 43 40 42 41 43 40 39 42 39 43 49 50 49 49 47 38 35 31 35 40 38 44 46 41 34 35 35 42
50 50 50 50 49 49 41 33 26 31 26 30 31 33 32 31 31 40 41 39 40 39 34 37 36 42 44 48 49 45 41 32 36 39 42 43 44 40 41 41 40 36 41 43
49 49 50 49 49 49 38 31 24 31 29 35 33 31 29 31 34 37 36 34 36 37 36 41 36 40 40 38 44 41 41 32 35 34 42 43 40 43 43 39 42 45 45 44
49 49 50 50 49 47 37 38 36 32 29 28 28 30 34 32 37 38 41 38 34 34 38 40 41 42 43 42 40 37 38 35 31 28 38 38 32 41 45 46 46 44 38 47
49 50 50 49 49 47 36 34 34 30 24 27 30 34 35 34 37 33 37 38 34 41 46 44 44 43 43 43 41 43 36 34 32 27 32 24 42 50 51 46 47 48 47 47
49 49 49 49 49 48 41 39 35 33 23 30 32 34 34 36 37 35 36 40 44 47 41 35 32 31 33 37 41 40 41 35 28 25 26 35 42 48 46 44 40 49 45 49
49 49 49 48 49 49 39 40 41 36 27 27 36 31 34 29 29 31 35 43 42 42 34 32 26 23 31 31 36 43 40 37 29 26 25 22 40 50 54 54 35 49 52 49
48 48 48 48 49 49 40 36 42 37 30 32 35 28 30 34 31 30 34 34 36 38 26 25 23 25 36 28 30 31 29 28 28 26 24 31 47 52 54 35 35 49 50 49
48 48 48 48 48 49 42 37 41 37 33 34 38 40 34 34 34 29 33 32 34 32 23 24 25 23 31 31 35 32 30 28 25 28 25 24 48 49 41 44 48 48 48 48
47 47 48 48 48 48 47 37 42 42 36 31 41 43 44 42 43 36 36 33 32 35 30 31 30 25 24 30 27 38 30 35 30 32 31 40 44 44 48 50 46 46 47 47
48 47 47 48 48 47 46 40 39 40 34 32 33 34 44 47 45 45 31 36 38 35 38 34 33 30 33 27 31 36 39 42 35 36 39 39 40 43 47 47 43 44 46 44
47 47 47 47 48 47 45 38 38 37 36 25 29 43 38 46 45 43 43 43 42 41 38 34 33 29 37 31 36 33 38 38 36 37 39 40 40 40 42 44 44 41 40 40
47 48 48 48 47 46 44 37 37 39 33 29 30 37 42 46 44 42 42 40 38 35 35 32 32 37 35 37 37 33 37 32 31 32 38 36 38 41 43 38 37 38 36 34
48 49 47 48 47 45 38 30 37 40 38 32 23 34 38 41 42 40 38 38 36 36 36 35 37 42 36 31 31 34 37 36 38 33 36 34 36 41 40 36 36 35 33 32
47 48 48 47 46 41 31 29 36 45 40 34 27 26 37 40 39 37 36 38 38 38 35 34 35 36 39 32 29 32 34 36 38 39 39 34 36 34 38 35 33 32 29 29
47 47 47 47 47 44 36 42 46 45 35 34 26 27 31 41 32 33 37 35 38 37 36 36 35 37 36 26 29 30 33 34 36 38 37 35 34 34 34 34 32 28 26 26
47 47 47 42 36 31 34 48 47 42 35 28 30 26 24 34 35 35 37 38 31 38 33 33 35 27 22 27 27 27 29 29 31 34 36 34 31 29 30 29 29 26 25 25
47 42 35 31 35 45 45 38 35 35 36 36 31 33 29 34 34 33 33 33 32 29 33 35 28 23 27 27 27 28 29 30 32 29 28 28 26 26 26 25 25 24 23 23
36 34 34 37 45 38 36 30 29 31 29 32 32 31 30 38 32 32 32 29 31 26 28 30 26 23 24 26 26 27 26 27 27 27 25 28 27 24 23 22 23 22 21 19
41 40 43 41 36 33 30 28 30 29 26 29 28 30 32 34 40 32 34 30 29 26 34 29 18 21 24 24 24 24 24 24 23 25 24 24 23 22 21 21 20 18 18 16
43 39 34 34 32 26 22 23 27 25 31 33 33 32 35 34 35 30 32 29 24 33 24 17 18 23 24 23 24 23 24 23 21 20 20 20 19 20 18 16 15 15 14 13
34 30 21 24 24 22 22 23 29 31 32 33 32 30 28 31 31 30 25 25 28 25 15 12 16 21 22 22 22 20 15 16 16 15 15 14 14 13 13 11 10 11 9 7
28 27 16 17 21 21 27 30 30 31 33 32 32 29 27 27 27 29 27 22 16 16 9 10 15 17 17 16 16 14 14 14 14 13 13 12 12 13 12 11 10 11 10 10
28 25 22 24 22 22 26 28 28 32 32 33 29 22 26 27 25 23 18 18 9 7 8 16 19 15 13 15 17 17 17 16 16 16 16 15 14 14 13 13 12 10 10 9
22 17 15 17 13 20 24 27 28 32 32 25 25 17 23 25 17 14 15 6 9 14 15 14 11 13 16 17 18 19 19 18 18 18 18 17 17 17 17 15 16 17 14 10

GFSNW_sfc_temp_069.txt.gz
Temp
50 50 50 50 51 50 42 32 21 39 43 30 28 24 32 40 38 42 39 39 38 37 38 36 41 39 45 51 49 43 46 40 31 37 48 50 46 41 39 33 32 35 34 35
50 50 50 50 50 48 35 32 29 38 38 16 27 31 33 36 35 36 37 37 40 43 37 31 40 42 50 50 44 42 43 36 29 34 40 45 41 43 42 41 39 34 31 36
50 50 50 50 50 49 39 34 21 27 31 32 29 26 29 30 38 37 38 38 40 37 36 41 36 40 49 49 48 48 46 37 33 27 33 39 35 39 44 40 33 34 34 41
50 50 50 50 50 49 39 33 27 29 15 27 30 32 31 29 29 38 39 34 35 32 30 35 33 40 43 46 47 43 40 32 34 37 38 39 40 39 41 38 38 34 39 41
50 50 49 49 49 48 38 29 26 30 28 32 30 31 29 30 30 34 32 32 34 35 31 35 32 39 39 38 42 39 40 31 33 32 39 39 37 42 43 42 41 40 41 42
50 49 49 49 49 46 36 37 38 30 28 28 27 29 31 30 35 36 40 37 32 31 34 39 39 39 40 40 38 37 37 33 30 28 35 34 30 38 42 43 43 42 37 45
49 49 49 50 49 46 40 35 34 28 21 28 28 32 34 32 34 31 38 39 34 40 44 42 40 41 41 40 40 41 35 33 30 26 30 21 39 49 47 43 46 47 45 47
49 49 49 49 49 48 36 38 36 31 22 28 30 31 32 33 34 33 36 39 42 43 40 32 32 30 33 36 39 38 39 33 27 23 24 32 38 45 43 41 41 47 46 48
48 49 49 48 49 48 38 37 41 35 25 25 34 30 31 27 28 29 35 41 41 40 33 29 25 23 30 30 35 40 37 36 29 26 23 20 35 46 53 49 34 46 48 47
48 48 48 48 49 48 38 35 40 37 29 31 33 28 27 32 30 27 34 33 34 37 29 26 24 26 34 28 30 30 29 28 27 26 23 29 41 44 50 31 34 45 48 49
48 48 48 48 48 48 41 38 39 37 32 32 38 38 31 31 31 25 30 30 31 31 25 27 28 25 31 29 32 29 29 26 24 27 25 22 41 43 37 40 45 45 44 42
47 47 48 48 48 48 47 38 41 39 34 32 37 39 41 40 39 34 34 33 32 33 31 31 30 25 24 29 24 35 23 32 29 31 30 39 41 39 43 45 43 43 41 41
47 47 48 48 48 48 47 40 40 39 34 34 31 33 41 44 43 44 32 35 37 34 37 33 32 27 32 23 26 31 38 40 34 35 37 38 39 41 42 42 40 43 43 40
47 47 48 48 48 48 48 38 41 39 35 25 28 41 37 43 43 43 44 41 42 41 38 34 32 29 36 31 33 32 36 38 33 36 38 39 39 40 38 37 37 36 38 38
47 47 47 48 48 48 46 39 41 42 34 28 29 35 42 43 41 40 39 40 38 36 33 32 31 34 35 33 35 32 35 31 30 31 36 36 35 37 39 35 33 35 33 31
47 47 48 49 48 46 37 32 38 40 37 30 24 33 35 40 39 39 37 37 35 35 35 34 37 41 35 31 29 33 35 36 37 32 34 34 33 33 36 32 30 29 29 30
47 48 48 48 44 41 33 29 34 43 39 32 28 26 34 38 37 34 34 35 34 34 34 32 34 35 38 31 27 31 33 35 36 36 36 33 35 30 33 31 30 30 28 28
47 47 46 46 47 43 35 41 45 43 34 34 24 24 27 38 31 29 34 32 34 35 35 35 34 36 36 25 28 30 32 33 34 34 35 33 34 33 32 32 30 27 25 25
47 46 46 41 36 31 38 47 46 38 33 25 27 20 16 34 35 35 33 35 29 36 31 33 35 29 22 25 26 27 28 28 29 34 33 32 29 28 28 28 27 25 23 23
45 42 34 27 32 45 44 39 34 33 33 34 30 33 28 33 32 32 33 33 30 29 32 36 27 19 25 27 27 28 28 28 30 29 27 28 26 26 25 24 24 25 24 22
35 31 32 33 45 36 34 28 28 30 29 31 32 32 30 37 30 31 33 30 32 26 28 30 25 21 23 26 26 26 26 26 25 25 24 25 25 24 23 22 22 21 20 17
36 39 39 36 34 32 27 26 29 29 26 28 29 30 33 33 40 32 33 29 28 26 33 27 17 20 23 24 24 24 23 23 23 25 24 23 23 22 21 20 18 16 15 14
41 38 34 33 30 25 24 22 26 26 28 33 34 32 30 34 36 31 31 29 22 33 22 16 18 22 24 24 24 22 23 22 21 19 19 19 17 18 16 14 12 13 11 9
34 29 25 25 20 19 17 16 22 31 32 32 32 30 28 31 30 30 27 25 27 19 11 13 16 21 22 22 22 19 15 16 16 15 15 14 13 11 12 12 11 11 9 8
28 25 13 14 18 20 21 28 30 31 33 32 31 28 26 30 28 26 27 21 12 13 10 9 15 18 16 13 14 12 12 12 12 13 12 12 13 12 12 13 13 13 12 10
27 23 21 23 23 21 26 27 28 31 31 32 30 21 20 25 20 22 11 14 9 6 4 12 16 11 8 11 14 14 14 14 15 15 15 15 14 14 13 14 11 9 10 8
23 19 18 17 17 17 24 26 27 31 31 23 27 14 24 23 13 12 11 4 3 5 9 14 10 12 12 13 17 17 17 17 17 17 18 17 17 17 16 14 15 16 14 9

GFSNW_sfc_temp_075.txt.gz
Temp
50 50 50 50 50 48 41 33 24 40 41 29 27 26 31 37 36 40 36 36 34 33 34 33 35 36 41 45 44 41 44 39 34 40 48 50 47 43 40 32 32 35 35 36
49 49 49 49 49 47 36 30 31 40 38 20 24 31 31 34 33 34 34 33 37 38 33 29 34 37 44 44 41 38 43 35 30 34 41 45 41 42 39 38 35 32 32 36
49 49 49 49 49 47 36 29 21 31 34 32 27 24 27 29 37 33 33 33 37 33 32 36 33 35 41 42 40 43 44 39 32 31 35 40 36 42 43 37 30 31 34 39
49 49 49 49 49 48 37 30 25 31 22 29 30 29 30 28 27 33 36 31 30 29 27 32 32 37 40 42 41 39 38 33 35 39 40 40 39 40 42 39 39 33 40 39
49 49 49 49 49 47 36 29 28 33 30 31 30 29 29 28 30 32 30 28 33 32 28 31 29 33 36 36 39 36 38 34 36 35 39 39 37 42 42 41 42 42 42 41
49 49 49 49 49 45 36 36 37 32 30 29 28 29 30 29 32 34 36 35 31 31 32 36 36 38 37 37 35 34 35 34 35 31 36 37 34 39 41 42 45 45 39 46
49 49 49 49 49 43 36 35 35 30 24 29 30 31 32 30 31 29 34 36 31 39 43 41 40 37 37 38 37 39 34 37 35 31 34 24 40 47 46 43 46 48 48 47
49 49 49 49 48 46 37 36 35 29 22 30 31 31 31 32 34 32 33 37 41 42 36 32 29 31 32 35 38 39 38 37 32 28 29 35 40 42 40 39 41 44 44 46
49 49 49 49 49 48 38 37 41 35 27 26 33 31 32 28 29 29 33 40 42 38 33 30 25 24 31 31 33 39 38 39 35 28 25 22 38 42 46 45 36 43 42 44
48 48 48 48 49 48 39 37 40 36 29 33 34 29 30 34 30 27 30 33 33 37 29 27 26 28 34 30 30 29 31 32 30 30 28 33 38 42 45 33 35 41 40 43
48 48 48 48 48 48 40 38 38 35 30 33 37 37 33 32 31 27 31 29 31 31 26 27 28 28 31 31 34 32 33 29 28 31 27 24 39 42 35 37 40 39 38 36
48 48 48 48 48 48 44 36 41 40 34 33 38 39 41 39 39 34 34 31 30 33 29 30 30 29 32 30 29 37 31 34 33 35 34 38 40 37 37 42 40 38 36 36
47 47 47 48 48 48 46 39 40 38 33 34 33 34 41 41 41 44 32 34 38 34 36 32 32 28 31 27 30 34 38 38 33 33 35 36 36 37 36 36 35 35 36 34
47 47 47 47 48 48 48 40 41 39 34 26 30 40 37 43 42 40 42 41 41 40 38 32 31 29 36 31 32 31 34 35 31 33 34 34 34 34 34 33 33 32 32 31
47 47 47 47 48 48 46 43 41 43 36 28 30 37 40 42 40 38 39 38 37 35 32 31 31 36 34 35 34 30 33 31 29 28 32 31 29 31 33 31 30 31 31 29
46 47 47 48 48 48 42 31 37 42 40 32 27 37 36 40 38 37 36 37 36 36 33 33 36 39 35 29 29 31 32 32 33 31 31 30 30 30 31 29 28 28 28 28
46 47 47 48 48 44 34 33 38 43 39 31 26 29 36 39 37 36 35 38 36 36 34 33 34 35 37 33 28 29 31 31 31 33 33 29 30 27 28 28 28 29 28 28
46 47 47 47 45 42 37 40 43 41 34 33 25 25 29 39 33 32 35 33 35 35 34 34 33 36 35 27 27 28 30 31 30 30 31 30 30 31 29 30 29 26 25 25
46 45 44 40 37 36 37 44 43 39 36 27 27 23 22 35 35 34 35 36 30 35 31 31 34 31 27 25 26 26 27 27 29 31 31 31 28 27 27 27 26 24 23 23
45 40 35 31 37 45 43 37 31 31 32 33 27 30 25 33 30 31 32 31 29 27 32 35 31 23 26 27 27 27 27 27 29 29 28 27 26 25 25 25 25 25 23 22
37 33 31 38 45 36 34 27 23 23 25 29 30 30 29 36 29 30 33 29 30 25 30 30 25 22 24 26 25 25 26 27 25 25 25 26 27 25 24 22 22 22 20 18
38 37 39 39 34 27 26 26 28 26 26 29 28 31 33 33 37 32 32 29 30 26 33 28 22 20 23 24 23 23 24 24 24 25 24 23 23 23 21 20 18 16 16 14
40 36 33 29 26 16 20 17 25 26 29 28 31 31 33 35 35 32 32 28 27 32 27 22 19 23 24 23 23 21 22 21 20 19 19 18 17 18 17 15 14 14 13 12
33 27 22 24 17 22 21 22 22 27 32 33 32 32 32 33 30 30 26 28 30 23 19 18 19 22 22 21 21 18 16 16 16 15 15 14 13 12 13 13 13 12 10 10
28 27 18 21 21 23 20 24 31 32 33 33 31 30 31 31 29 29 28 24 21 20 20 16 20 20 18 16 15 13 12 12 12 14 13 13 13 13 13 13 14 12 10 9
25 20 20 23 25 24 26 27 29 31 32 32 31 26 24 23 23 23 18 20 18 17 14 15 18 13 12 12 12 11 11 12 13 15 15 15 14 14 13 13 12 11 11 9
19 14 18 18 14 19 23 23 24 28 31 25 24 20 20 26 18 17 16 16 15 12 13 16 14 13 11 11 13 14 15 15 16 16 17 16 17 17 17 15 16 16 15 13

GFSNW_sfc_temp_078.txt.gz
Temp
50 50 50 50 50 49 49 47 37 51 52 41 43 38 38 38 40 44 41 41 39 38 39 38 39 40 46 50 50 42 51 45 41 47 56 57 55 49 47 38 36 38 35 42
50 50 50 49 49 48 49 44 44 52 48 31 36 38 37 39 38 39 39 38 41 43 38 33 40 42 51 48 43 37 39 39 36 41 46 52 48 49 41 38 36 35 33 40
50 49 49 49 49 47 49 42 32 45 47 46 36 31 33 35 41 37 39 38 40 37 37 41 37 40 46 48 48 42 38 40 41 38 33 47 42 47 49 44 36 40 40 42
49 49 49 49 49 47 49 41 35 40 31 36 38 37 35 32 29 38 41 32 32 30 29 36 36 41 44 48 46 42 36 35 42 42 39 43 45 46 47 44 45 38 46 48
50 49 49 49 49 47 48 34 40 44 40 38 36 34 35 33 35 36 35 31 38 39 32 33 30 36 39 39 43 39 36 34 42 38 40 45 43 47 48 48 48 48 49 48
49 49 49 49 49 49 47 40 42 44 35 37 37 36 35 34 37 39 41 39 37 37 37 40 43 44 43 41 36 33 33 33 38 33 43 43 38 45 47 47 51 49 43 50
49 49 49 49 49 48 52 45 40 39 33 38 37 36 37 36 37 35 40 42 37 43 50 47 47 45 44 45 44 40 33 32 37 36 39 28 45 53 52 48 51 52 52 50
49 49 49 49 49 47 51 49 46 41 33 40 36 36 37 39 40 38 39 43 46 48 43 36 36 37 37 40 44 42 40 35 33 34 35 41 45 46 46 45 46 50 48 51
49 49 49 49 48 47 50 49 51 44 35 36 39 36 38 36 37 38 39 46 49 45 38 32 26 26 34 35 38 44 40 42 34 36 30 26 42 48 52 52 41 48 47 46
49 49 49 49 49 48 49 48 50 43 33 43 40 38 37 41 38 36 39 38 40 43 33 28 27 28 41 34 34 32 35 37 33 35 34 40 46 49 52 36 36 45 44 40
48 48 48 48 48 48 48 48 49 45 36 43 43 43 40 40 39 34 39 37 38 36 31 30 27 29 36 38 40 38 37 34 34 36 31 29 46 48 40 39 42 42 39 36
47 48 48 48 48 48 48 45 49 49 40 42 45 47 49 47 47 41 41 36 34 37 33 34 32 31 36 36 33 43 34 37 36 40 37 41 41 40 39 41 39 38 37 36
47 48 48 48 48 48 47 47 46 42 35 40 41 42 49 51 49 51 35 43 42 36 37 33 33 30 37 31 34 38 41 41 36 35 32 34 36 37 36 36 35 35 35 33
47 47 48 48 47 48 47 43 44 43 39 33 40 49 45 51 51 49 48 45 47 45 42 35 33 32 41 34 35 35 35 40 34 32 32 33 34 34 37 35 34 33 33 33
47 47 47 48 48 48 47 44 46 50 43 35 39 46 49 50 49 47 46 43 42 41 35 34 34 41 39 39 37 32 34 30 30 31 32 31 30 33 35 34 33 32 34 32
47 47 47 48 47 48 44 33 41 43 43 34 31 45 42 47 46 45 43 43 41 39 37 36 40 45 40 33 32 32 34 34 33 31 32 31 31 33 34 33 31 31 31 32
46 47 47 47 48 44 35 38 44 44 40 33 31 33 42 44 44 45 43 43 41 42 39 38 41 42 43 34 31 31 32 32 33 34 34 31 33 30 33 34 34 34 34 34
46 47 47 47 47 42 37 40 43 41 35 35 30 33 36 45 39 37 44 40 40 41 41 42 40 43 41 31 29 30 32 32 32 32 34 33 34 34 34 36 35 33 32 32
46 46 45 41 38 36 39 44 43 42 41 34 33 31 30 40 39 40 38 41 32 44 35 38 40 36 31 27 28 28 28 29 31 33 34 35 33 32 33 33 33 31 30 30
45 41 36 33 38 44 43 38 36 38 41 41 33 40 32 38 36 33 35 36 35 31 37 41 34 32 29 29 30 31 31 31 33 31 30 31 31 31 31 30 31 30 28 28
38 36 34 40 45 43 42 31 32 34 31 38 37 37 35 43 33 33 39 33 36 29 36 33 32 29 27 30 29 30 31 32 32 32 31 33 32 30 28 27 27 27 26 24
41 40 41 41 38 36 31 29 32 31 31 37 33 35 39 41 45 37 36 33 33 27 37 32 30 24 28 28 27 28 29 29 28 30 29 29 28 28 26 25 23 22 20 19
44 40 34 34 33 25 25 22 27 29 35 36 34 31 36 39 39 34 32 28 30 36 31 31 27 27 28 28 28 27 28 27 26 24 25 25 24 24 23 20 20 20 17 17
36 33 25 28 25 28 31 32 33 35 34 35 34 34 33 34 32 32 29 31 33 29 27 25 27 27 26 26 26 25 22 21 21 21 20 18 18 17 18 18 18 17 15 15
35 35 27 26 32 31 31 32 34 34 34 34 34 34 35 32 30 32 31 28 27 28 28 27 27 25 23 21 21 19 18 18 19 19 18 18 18 18 17 18 18 17 15 14
33 29 27 29 29 29 31 31 31 34 33 36 36 32 30 28 31 28 26 27 27 26 26 25 24 21 20 19 19 19 19 20 20 20 20 19 18 19 18 18 17 16 16 15
27 26 28 29 29 30 29 30 32 35 33 32 34 29 26 32 28 26 28 27 26 24 24 26 25 21 18 18 18 18 20 21 21 21 22 20 20 20 20 19 19 20 19 17

GFSNW_sfc_temp_081.txt.gz
Temp
51 50 50 50 50 50 47 53 42 56 58 49 51 46 45 40 45 48 45 45 43 41 43 42 42 42 48 56 53 43 48 44 43 50 60 63 58 52 49 38 40 44 42 41
50 50 50 50 50 49 56 52 50 58 54 36 43 43 43 45 44 44 44 42 45 46 42 37 43 45 53 55 52 39 39 41 37 43 51 58 53 55 54 48 43 39 35 39
50 50 49 49 49 49 52 50 37 49 55 53 42 38 39 40 45 43 44 43 44 42 40 45 40 42 49 52 52 45 44 37 37 36 40 44 42 52 52 48 38 41 43 48
50 50 49 49 49 48 51 48 40 48 36 43 44 43 41 38 36 43 46 36 37 35 34 38 39 43 44 48 51 49 43 35 40 45 50 48 42 40 50 46 47 41 48 50
50 49 49 49 49 49 51 36 47 48 47 44 41 37 39 39 40 41 40 34 42 44 38 41 36 40 41 40 47 42 41 34 40 34 46 47 42 45 51 51 51 51 52 52
50 50 49 49 49 48 52 51 52 49 41 43 42 42 40 39 41 44 46 44 41 40 43 48 48 48 47 46 42 39 36 35 33 29 43 43 34 44 49 52 54 53 45 51
50 50 49 49 49 48 55 53 53 45 38 44 42 41 42 40 42 39 45 46 41 47 54 51 51 49 48 48 47 48 34 34 32 28 40 28 46 55 56 52 54 55 53 50
50 49 49 49 49 48 52 55 51 46 37 47 42 41 41 43 45 42 44 47 50 52 47 39 38 40 42 44 47 47 46 34 29 28 37 41 48 50 50 48 43 51 50 52
49 49 49 49 49 48 51 54 56 50 37 41 44 41 43 41 42 42 44 50 53 48 37 35 28 26 33 35 42 50 44 39 31 31 30 28 42 52 56 56 40 48 49 48
49 49 49 49 49 48 52 50 53 48 35 49 45 43 42 46 42 40 44 44 44 47 36 30 29 28 40 33 35 34 34 35 30 31 35 41 48 53 56 38 34 47 46 42
48 48 49 49 49 48 50 49 55 47 39 48 47 47 44 45 44 36 43 41 40 39 33 33 29 26 38 38 43 39 38 36 35 38 34 29 47 51 41 38 44 44 42 38
48 48 48 49 49 49 48 43 53 52 41 44 51 51 52 51 50 46 45 41 39 40 35 37 32 30 37 38 33 46 33 35 33 34 32 39 41 39 39 42 39 39 38 37
48 48 48 48 49 49 48 47 48 47 41 44 48 48 54 57 54 55 40 46 47 42 40 35 36 31 39 32 32 37 42 47 37 37 32 33 36 39 38 38 36 37 37 37
48 48 48 48 49 48 48 49 50 48 45 36 44 56 50 56 56 53 52 49 50 48 47 37 35 33 44 37 38 36 39 43 37 31 34 37 37 36 36 36 36 35 36 35
48 48 48 48 48 48 48 49 49 52 44 36 40 51 55 56 54 51 52 49 46 44 38 35 34 43 39 42 42 34 37 30 31 30 35 34 31 34 35 34 35 35 35 34
47 47 48 48 48 48 46 33 44 47 47 38 34 50 47 52 52 51 49 48 44 40 37 36 42 46 43 35 32 34 36 37 34 31 33 32 32 34 36 34 34 33 33 35
47 47 48 48 48 48 39 39 41 46 42 33 33 39 48 49 49 49 48 46 42 41 39 41 41 43 45 38 32 33 34 34 34 35 36 33 34 32 35 39 38 39 39 38
47 47 47 47 47 45 40 45 45 42 35 36 32 36 40 48 41 39 47 39 40 40 42 44 40 45 44 33 31 33 33 33 33 33 35 36 36 38 39 40 40 37 35 35
47 47 47 44 40 36 39 44 44 41 38 34 36 33 31 45 42 44 41 43 35 48 39 40 43 39 33 31 32 31 31 30 32 33 37 39 37 38 38 38 38 36 33 32
46 42 35 33 37 44 43 39 35 36 39 42 36 45 36 42 38 35 39 41 37 33 39 45 36 35 32 33 33 35 34 32 34 34 33 34 34 34 34 34 35 34 32 30
38 35 35 40 45 39 39 33 33 36 33 41 42 43 39 46 34 35 42 37 39 31 38 35 34 31 29 33 33 35 36 37 37 36 35 35 35 33 32 30 31 30 28 25
39 42 41 40 38 37 32 32 36 35 35 42 39 41 44 44 47 39 40 36 37 29 40 33 32 28 31 31 31 32 33 33 32 33 32 31 31 31 29 27 25 24 23 22
43 39 36 37 35 27 26 24 30 32 39 39 38 34 41 44 45 37 37 29 31 40 32 32 29 30 32 32 33 31 32 31 29 28 28 28 27 27 26 23 22 22 20 20
38 34 27 30 27 31 34 35 36 37 38 38 38 34 35 38 32 33 30 34 35 30 28 28 30 29 29 30 31 30 25 25 25 24 23 22 21 20 21 21 21 20 18 18
36 39 29 29 34 33 33 34 36 38 36 35 35 37 36 34 32 32 32 29 28 32 28 28 28 28 26 25 25 23 22 22 22 22 21 21 21 21 21 21 21 19 18 17
38 33 29 31 31 30 31 34 33 38 36 36 36 33 31 31 34 30 30 30 30 28 28 27 28 25 25 24 24 23 24 24 23 23 23 22 22 22 21 20 20 19 19 17
30 29 30 31 31 32 32 33 34 39 35 33 36 30 30 36 32 30 35 29 28 27 27 28 27 25 23 22 22 22 24 24 24 24 24 23 23 22 23 22 22 23 21 19

GFSNW_sfc_temp_084.txt.gz
Temp
51 50 50 50 50 50 48 50 42 56 58 45 49 45 47 42 48 50 47 47 45 42 43 41 42 42 48 56 54 46 48 37 35 45 58 60 57 52 50 37 36 41 39 38
50 50 50 50 50 50 49 48 49 57 53 36 43 45 45 48 46 46 46 44 47 47 42 37 43 45 53 53 50 45 47 39 31 39 50 57 49 53 49 47 43 36 31 37
50 50 50 50 50 50 48 48 37 49 52 52 45 41 42 41 47 45 46 45 46 43 41 46 41 43 49 51 49 46 45 40 34 30 37 41 38 43 47 48 36 39 40 42
50 50 50 50 50 50 48 47 41 48 37 43 45 44 43 41 38 45 48 41 41 40 36 39 39 44 45 49 50 49 44 33 38 40 44 45 41 37 42 41 41 39 45 47
50 50 50 49 50 50 48 37 44 49 47 46 44 40 41 41 43 43 41 38 43 45 39 40 36 42 42 40 46 44 41 33 38 35 43 44 40 46 43 41 39 41 43 48
50 50 49 49 49 49 51 51 52 47 43 43 42 41 43 41 43 45 47 45 43 40 43 47 48 48 46 44 41 38 37 31 31 29 41 40 34 45 47 47 47 50 43 45
50 50 49 49 49 49 50 52 52 44 38 44 43 44 44 42 44 41 46 48 42 48 53 51 49 48 47 47 46 47 37 34 33 29 34 22 44 56 55 51 48 46 50 48
50 50 49 49 49 50 50 55 49 45 36 47 45 43 43 45 46 43 44 48 51 53 47 38 36 37 40 43 46 45 46 38 30 27 28 33 47 52 51 48 36 46 47 48
49 49 49 49 49 49 50 52 54 48 38 42 48 43 44 41 42 42 45 52 54 49 39 34 27 26 33 32 35 49 47 44 32 29 22 23 34 47 56 55 33 43 46 42
49 49 49 49 49 49 50 51 54 49 36 48 47 41 39 46 43 40 44 45 45 48 35 29 28 29 38 28 31 35 36 34 28 28 25 31 37 45 55 37 31 42 42 38
49 49 49 49 49 49 50 50 54 47 41 47 49 49 45 46 44 37 43 41 39 39 32 31 31 27 30 32 39 37 34 31 31 32 28 25 40 43 35 35 40 41 38 35
48 48 49 49 49 49 49 46 52 53 46 44 52 52 53 51 50 45 45 41 41 39 34 35 34 30 32 31 29 43 30 35 30 30 28 36 38 36 38 39 36 37 36 36
48 48 49 49 49 49 49 44 51 50 41 44 47 48 55 57 54 55 41 45 46 42 43 35 35 30 36 28 30 32 38 44 34 33 33 34 35 37 36 36 35 37 37 35
48 48 49 49 49 49 49 47 50 50 45 36 43 58 52 58 57 54 52 49 49 48 47 38 35 31 41 34 36 33 35 39 33 31 33 35 35 35 36 36 36 34 34 34
48 48 48 49 49 49 50 51 50 51 42 34 39 50 55 57 55 52 52 49 46 44 39 36 34 41 38 41 39 32 34 29 28 28 32 32 31 34 36 33 34 35 35 32
48 48 48 48 48 47 46 34 49 52 49 37 32 50 50 53 53 51 50 48 46 42 38 37 42 47 39 35 31 32 35 35 35 30 33 32 33 34 35 34 33 33 33 33
47 48 48 48 48 49 39 37 40 47 45 34 33 39 50 52 51 48 47 49 46 41 39 39 41 43 43 38 31 33 34 34 34 35 35 32 33 31 35 36 37 38 39 38
47 47 47 48 47 47 42 47 46 44 36 36 32 36 41 49 42 39 45 41 40 40 40 43 41 44 43 33 32 34 35 34 33 34 35 34 36 39 39 40 40 36 34 33
47 47 47 46 44 37 40 46 45 43 38 33 36 32 31 46 42 43 41 43 33 45 36 39 43 38 32 31 32 32 31 31 32 34 35 37 37 38 39 39 38 34 31 30
47 45 38 33 38 45 44 38 34 34 35 37 34 43 35 43 39 37 38 39 35 32 38 45 37 34 34 35 35 36 35 35 34 33 31 34 34 34 33 32 33 32 29 28
42 35 33 40 45 40 37 32 31 35 32 40 41 41 37 47 34 35 42 36 37 30 36 36 34 30 30 35 34 36 36 37 36 34 33 34 34 32 30 28 27 26 25 23
41 39 41 39 36 34 32 31 36 34 34 42 38 41 44 43 46 37 38 35 37 29 40 34 31 27 32 33 32 33 33 32 31 32 30 31 31 30 28 25 23 22 22 21
41 38 35 35 36 28 27 25 30 32 40 41 40 37 42 44 45 36 36 30 30 39 31 30 27 30 32 32 32 31 32 31 29 27 27 27 25 26 24 22 21 21 19 19
35 33 27 30 27 31 34 35 36 38 39 40 39 36 36 38 34 34 28 34 34 29 28 27 29 29 30 31 31 28 25 24 24 23 22 21 21 20 20 20 20 18 16 15
34 36 29 30 35 34 34 36 36 38 36 39 35 36 37 34 31 33 33 29 28 30 26 27 28 28 27 25 25 23 22 22 22 22 21 21 21 21 20 20 19 17 15 14
36 35 30 32 32 32 32 32 33 40 35 36 35 33 31 31 34 29 29 29 28 26 26 27 28 26 25 24 24 23 24 23 22 22 22 22 22 21 19 19 18 16 17 14
32 30 32 32 33 33 33 34 36 40 34 32 34 31 30 34 31 31 35 28 27 27 27 29 27 25 23 23 23 23 24 24 24 24 24 23 22 21 23 22 21 23 21 16

GFSNW_sfc_temp_087.txt.gz
Temp
51 50 50 50 50 50 47 40 33 48 50 36 38 35 45 45 47 50 47 46 44 41 41 39 39 39 44 48 46 38 42 36 29 35 47 51 48 44 43 32 32 35 33 33
50 50 50 50 50 50 42 37 38 48 47 30 31 42 44 47 46 45 45 43 45 44 39 34 41 41 48 48 44 37 39 32 24 31 41 44 39 41 39 38 39 32 29 33
50 50 50 50 50 50 42 37 31 39 41 42 38 36 39 39 46 43 46 44 44 40 38 41 37 39 46 48 46 47 43 34 29 23 29 38 31 37 41 37 31 32 33 39
50 50 50 50 50 50 42 38 34 40 29 33 38 40 41 39 37 44 45 37 38 36 30 34 33 39 41 45 47 43 38 27 32 35 38 39 38 35 40 35 35 31 37 39
50 50 49 49 50 50 39 33 33 40 38 41 38 37 37 41 41 42 38 35 40 39 33 35 31 36 36 35 40 37 35 26 30 28 35 37 36 40 42 42 40 40 38 36
50 50 49 49 50 48 40 42 43 38 39 36 33 34 40 41 42 43 45 42 38 36 37 39 40 40 40 39 35 32 31 24 27 24 34 34 29 37 41 42 44 41 34 39
50 50 49 49 49 48 40 41 40 34 30 34 37 43 43 41 42 37 42 42 36 42 47 44 42 42 41 41 39 41 31 28 28 23 28 17 37 47 46 40 39 40 41 39
50 49 49 49 49 50 41 43 40 35 27 39 41 41 40 42 41 38 40 44 44 44 40 31 28 29 32 36 41 41 41 32 26 23 20 30 39 36 34 37 34 41 39 40
49 49 49 49 49 49 43 43 44 37 29 31 45 38 41 31 31 33 40 46 46 41 28 24 22 21 28 28 33 42 37 35 27 27 21 18 31 35 39 39 30 39 38 35
49 49 49 49 49 49 43 41 45 39 30 38 40 33 32 39 33 30 35 37 37 40 23 16 23 22 34 25 26 29 28 30 26 26 22 29 33 35 42 29 28 37 36 32
48 48 48 48 48 48 44 41 45 38 32 37 43 45 37 37 35 24 33 30 31 28 23 26 20 17 26 26 32 32 30 28 27 29 24 22 35 37 30 34 37 36 34 32
48 48 48 48 48 48 47 38 46 46 35 35 43 44 45 43 42 35 35 33 33 29 23 26 26 26 29 29 25 34 28 31 28 28 26 33 34 32 34 37 34 35 33 33
48 48 48 49 49 48 47 39 41 39 31 33 35 38 46 51 47 46 31 35 40 35 35 26 27 24 32 26 28 31 34 38 31 30 30 31 33 34 34 35 33 33 34 32
48 48 48 48 48 49 48 39 42 39 37 25 36 52 45 52 49 46 44 41 42 40 36 27 25 24 36 30 33 29 31 34 29 30 31 31 32 33 35 34 33 32 33 32
48 48 48 48 48 48 44 41 42 43 37 28 30 42 48 50 48 47 45 42 38 33 29 25 25 32 33 32 33 27 32 28 25 25 30 30 30 33 33 32 32 32 31 29
47 48 48 48 48 47 38 30 40 43 41 29 23 39 42 46 47 45 43 41 37 33 29 26 33 39 34 24 23 30 33 35 33 28 32 31 32 33 34 32 32 31 31 30
47 48 48 48 48 40 36 34 39 45 43 31 27 28 41 46 44 40 39 42 36 35 30 29 32 34 38 27 25 30 32 33 33 34 33 30 32 30 35 35 36 36 35 33
47 47 48 48 47 44 36 39 45 43 36 35 28 26 31 42 32 30 36 33 34 32 30 33 32 35 35 26 29 32 34 33 32 33 34 33 35 36 35 38 36 31 29 29
47 47 47 41 37 34 38 46 43 41 35 29 26 21 19 39 34 34 33 35 23 34 26 31 34 24 23 30 30 30 31 29 31 33 35 37 35 34 34 34 32 28 27 27
47 41 34 30 35 45 43 38 33 33 34 34 29 33 24 35 27 25 27 28 25 24 29 34 24 25 31 33 33 34 33 33 34 31 28 32 30 28 26 26 28 26 24 23
36 32 31 39 45 38 36 30 28 25 28 30 31 31 27 37 23 26 34 29 29 26 30 27 22 24 27 33 32 32 31 32 31 31 29 29 29 26 24 23 23 22 21 19
37 38 40 39 35 32 29 27 27 28 27 30 28 30 33 34 39 30 31 28 28 25 31 26 19 25 29 29 28 28 28 27 27 27 25 27 26 25 23 21 19 18 17 14
40 36 33 32 30 26 19 15 22 20 27 30 29 26 31 33 35 30 31 27 24 33 27 23 23 27 28 28 28 26 27 26 25 23 22 21 20 21 20 17 14 15 12 8
33 31 21 24 19 20 21 23 24 28 28 28 27 26 25 27 26 27 26 26 31 27 21 22 24 26 25 26 26 23 19 19 19 17 17 15 13 12 13 12 8 9 5 3
31 32 21 20 29 31 32 33 33 33 35 28 26 26 29 30 28 30 26 23 21 25 22 22 24 23 21 19 18 16 15 14 14 13 14 14 13 15 12 7 6 5 3 2
32 30 29 28 30 29 31 31 32 34 32 33 33 30 28 26 26 25 25 26 23 23 23 24 24 21 19 18 17 17 19 17 15 14 15 14 13 11 8 7 6 5 5 3
30 26 27 30 31 31 32 32 31 35 33 29 31 27 25 31 25 24 24 23 24 25 25 25 22 20 18 17 19 18 18 18 18 17 17 13 13 14 16 15 15 17 16 8

GFSNW_sfc_temp_090.txt.gz
Temp
51 51 50 50 50 50 46 38 31 47 48 35 36 33 43 47 47 50 46 45 42 39 40 37 38 37 40 46 44 36 39 34 28 33 44 46 45 39 38 29 28 31 29 32
50 50 50 50 50 49 40 35 37 46 46 27 30 41 43 45 45 44 44 42 43 43 38 33 39 39 45 46 43 36 38 30 23 28 35 40 36 40 39 36 34 28 27 31
50 50 50 50 50 50 41 36 28 36 38 40 36 34 38 38 45 43 45 42 42 39 37 39 34 36 43 44 44 46 42 31 29 21 27 34 30 36 39 35 27 29 31 34
50 50 49 49 50 50 40 34 31 38 28 33 37 39 40 37 35 43 45 37 37 35 30 32 31 35 37 41 44 39 36 27 30 32 34 34 33 33 36 35 35 28 35 35
50 50 49 49 50 50 40 32 34 38 36 40 37 36 36 38 40 40 37 34 39 37 30 32 29 32 33 32 38 34 33 25 29 27 33 34 30 34 36 38 39 40 39 38
50 49 49 49 50 48 39 39 41 37 36 35 33 33 38 38 40 42 41 39 36 34 34 37 38 37 37 36 33 30 29 23 22 21 31 30 25 32 36 39 42 40 34 38
49 49 49 49 50 46 39 39 39 32 28 33 35 41 41 39 39 35 40 40 35 40 43 41 39 37 38 37 36 37 26 25 25 22 27 15 33 39 41 36 36 37 36 37
49 49 49 49 49 50 41 40 38 33 25 36 39 39 38 39 39 37 38 41 43 42 38 30 27 28 32 34 36 36 36 31 24 19 21 30 35 35 32 29 30 34 33 37
49 48 48 49 49 50 40 39 40 36 28 30 41 36 38 30 30 31 36 43 42 40 27 23 21 19 27 28 31 37 36 35 25 25 20 14 27 33 37 34 27 34 34 32
48 48 48 48 49 49 42 39 41 37 27 36 38 31 31 36 30 28 32 35 35 36 19 15 19 21 31 24 23 28 26 27 24 23 22 27 30 33 35 27 25 33 32 30
48 48 48 48 48 49 43 39 41 37 29 34 40 41 34 33 31 23 30 28 28 26 22 21 16 15 24 26 29 29 28 26 25 27 23 20 33 34 27 31 32 33 31 30
48 48 48 48 48 48 46 35 42 42 34 34 40 41 42 41 40 33 32 30 29 27 22 23 22 22 25 27 25 33 25 27 26 27 24 32 32 32 34 34 32 31 31 30
48 48 48 48 48 48 45 37 37 37 29 32 34 37 43 47 44 42 30 33 38 33 32 23 23 20 28 24 27 29 32 33 29 28 29 30 32 33 33 33 31 31 30 28
48 48 48 48 48 48 46 37 38 36 33 25 35 48 42 48 46 43 41 39 39 37 33 24 21 22 33 27 31 27 30 32 28 27 30 30 31 31 33 31 31 31 31 30
48 48 48 48 48 48 41 38 38 39 33 25 28 38 44 47 45 43 41 39 35 30 27 23 23 29 29 30 30 27 31 27 25 21 30 28 29 32 32 32 30 30 30 28
47 48 48 48 48 44 34 27 38 40 37 26 21 35 39 41 43 42 40 38 33 30 27 24 29 36 30 24 21 30 33 33 32 24 31 30 31 31 33 30 29 28 27 27
47 48 48 48 46 37 32 30 39 44 37 24 20 27 37 42 42 37 36 41 35 33 29 27 28 31 35 26 24 29 32 33 33 35 32 29 31 28 33 33 32 32 31 30
47 47 47 47 46 42 35 40 45 41 33 35 19 24 29 40 31 31 33 31 33 32 29 28 29 32 32 25 29 32 33 32 32 32 34 34 34 34 34 33 30 27 26 26
47 47 46 38 34 30 35 45 44 38 32 29 25 19 16 34 31 30 31 32 21 31 24 27 31 24 23 26 30 30 31 30 30 34 34 34 31 32 31 30 27 25 24 24
46 38 31 29 31 45 44 39 33 33 34 33 29 29 23 30 22 22 25 25 24 21 27 30 23 24 29 31 32 32 32 31 33 30 28 28 26 26 26 25 26 24 23 23
33 31 30 38 45 38 34 28 27 28 27 28 28 28 25 34 22 22 30 29 29 26 27 28 23 24 27 29 28 29 30 29 29 28 28 28 27 24 23 22 22 21 20 18
34 36 40 39 35 31 28 24 25 25 25 27 25 27 30 31 35 25 30 28 28 25 31 25 17 21 26 26 26 26 26 25 24 26 25 25 24 23 21 19 18 16 14 11
39 36 32 30 30 24 19 12 20 16 24 26 25 29 28 30 30 24 29 27 24 31 21 20 19 24 25 25 25 24 24 23 22 20 21 21 19 19 18 14 10 12 9 4
29 30 23 24 15 16 18 19 19 25 23 25 23 23 24 23 23 22 26 25 30 21 18 18 19 24 24 24 24 22 17 16 17 15 14 13 12 9 8 7 4 5 2 -2
30 30 18 17 24 29 30 32 32 29 34 24 24 25 26 23 24 29 27 25 22 24 21 18 20 21 19 17 16 14 11 10 10 7 9 10 10 9 3 -0 0 1 -2 -1
30 30 27 28 28 27 29 30 31 33 32 31 30 29 27 27 25 26 24 25 22 16 17 22 22 19 13 13 13 11 11 12 13 12 11 10 8 7 5 2 3 0 1 -1
29 26 27 29 29 28 27 31 31 34 32 27 31 26 24 30 22 23 25 23 13 20 22 23 20 17 13 12 16 16 16 14 13 12 14 11 10 11 14 14 13 14 14 4

GFSNW_sfc_temp_093.txt.gz
Temp
50 50 50 50 49 50 44 37 30 43 47 34 35 31 41 46 45 48 45 44 41 39 39 36 37 35 39 45 43 36 38 32 26 30 41 42 39 35 35 27 26 29 28 27
50 50 50 50 50 49 38 33 32 44 44 28 29 39 40 42 43 41 42 41 42 42 36 32 37 38 43 44 41 35 36 29 22 26 33 38 34 37 38 35 32 26 25 28
50 50 50 50 50 50 39 34 25 33 37 38 35 35 37 37 44 41 43 41 41 37 35 38 35 35 40 42 42 45 41 31 28 20 27 31 28 32 35 32 20 24 27 30
50 50 50 49 49 50 40 34 30 37 28 32 36 38 39 36 35 42 43 36 36 35 31 32 31 34 36 39 43 37 34 26 29 30 31 31 30 30 32 30 31 25 30 32
50 49 49 49 49 50 38 32 33 36 35 39 36 35 35 37 38 39 36 34 37 36 30 32 29 32 32 31 35 32 31 25 28 27 30 30 28 32 33 33 34 34 36 35
49 49 49 49 50 48 38 38 40 37 34 34 33 33 37 37 39 40 41 39 35 33 34 37 37 37 36 35 32 30 28 23 22 21 30 29 24 30 31 34 37 37 30 38
49 49 49 49 50 46 40 38 37 32 28 33 34 39 40 38 38 35 39 39 34 38 42 39 36 34 34 33 34 34 25 24 22 19 25 14 31 35 33 34 34 36 37 35
49 48 48 49 49 49 40 39 37 33 26 35 38 38 37 37 38 36 36 40 41 40 36 30 28 28 31 32 33 32 33 27 18 15 17 27 32 31 29 29 29 33 33 33
48 48 48 49 49 49 40 38 39 36 30 30 37 34 36 30 29 30 35 41 40 36 26 23 21 18 26 27 29 37 32 33 26 24 13 12 24 32 37 33 25 31 31 31
48 48 48 48 49 49 42 39 39 36 27 35 36 32 31 34 30 27 31 33 33 33 18 14 13 20 30 23 19 26 26 26 22 22 19 24 28 32 34 24 24 30 30 30
48 48 48 48 49 49 42 38 39 37 29 34 39 40 34 32 30 23 29 27 27 24 21 20 14 13 26 22 23 28 26 24 24 26 22 20 31 32 25 29 31 30 30 29
48 48 48 48 48 48 44 36 41 41 35 35 38 40 41 40 38 31 30 29 28 26 21 21 21 20 22 22 20 32 24 26 24 25 23 31 31 30 32 33 31 30 30 29
48 48 48 48 49 48 44 37 36 36 30 33 34 35 40 44 42 40 30 31 35 31 30 22 22 20 26 18 21 24 31 33 28 27 28 28 31 31 32 31 29 29 29 28
47 48 48 48 48 48 45 37 37 36 32 26 31 44 40 44 44 41 39 37 36 34 31 22 20 22 30 24 28 23 29 31 28 26 29 30 30 31 31 30 30 29 29 28
48 48 48 48 48 46 40 37 37 38 33 25 28 37 42 44 43 41 40 37 33 29 26 22 22 28 27 31 26 23 31 27 25 22 29 28 28 31 32 30 28 28 27 26
48 48 48 48 46 44 35 28 37 39 35 26 23 33 36 39 40 39 37 35 31 29 26 23 28 32 28 22 18 29 33 32 32 26 31 31 31 31 31 28 27 27 26 27
47 47 47 47 46 38 32 29 37 42 34 22 21 27 35 39 41 38 35 40 32 33 28 26 26 29 32 22 20 29 32 33 32 34 32 29 30 28 31 31 31 31 29 27
47 47 47 46 45 42 35 41 44 38 30 27 19 23 28 37 30 33 32 32 30 30 28 28 27 30 31 23 26 30 32 32 31 32 33 31 32 32 29 29 28 25 25 24
47 46 44 37 32 30 35 45 42 36 31 22 22 19 16 32 29 29 30 30 22 30 23 26 28 23 25 26 27 30 31 29 26 32 32 32 30 30 28 26 26 24 23 23
44 37 29 19 30 44 42 34 29 30 32 33 23 27 21 29 20 21 23 24 24 20 25 28 21 23 29 30 32 32 31 31 33 27 25 26 26 26 26 24 25 24 24 23
32 24 29 36 44 38 35 27 26 28 26 28 29 26 24 32 21 21 26 26 26 23 23 24 24 23 26 28 28 30 29 28 27 27 28 28 27 25 23 22 22 22 21 17
33 36 39 39 34 31 28 25 26 25 24 25 24 26 28 29 32 23 26 29 28 24 31 26 18 19 25 26 25 24 25 26 26 27 26 26 25 24 21 19 17 15 13 10
40 36 32 31 29 22 18 16 21 15 23 24 24 22 25 29 28 23 24 27 24 29 25 17 17 23 25 24 23 23 24 24 23 21 21 20 19 18 17 14 9 10 8 1
29 30 23 22 19 19 17 18 18 24 22 23 22 22 23 22 22 23 25 20 28 20 17 17 17 22 23 23 24 22 17 16 16 14 13 11 10 5 4 3 0 4 1 -4
28 29 17 20 24 26 30 31 30 29 30 22 23 24 24 20 18 28 26 24 21 24 21 15 21 22 20 17 15 13 11 8 7 4 7 6 6 6 1 -3 -3 1 -4 -4
29 29 25 27 27 26 28 29 30 33 32 30 26 23 19 21 25 24 23 23 19 21 15 12 19 16 13 12 12 9 9 9 8 8 7 6 5 6 3 0 0 -2 -2 -2
26 26 26 27 27 28 27 30 31 33 32 28 30 26 22 28 24 21 25 22 13 22 16 15 15 15 11 9 10 11 14 12 12 10 12 9 8 9 13 12 12 12 12 1

GFSNW_sfc_temp_096.txt.gz
Temp
50 50 50 49 49 50 44 35 29 45 45 33 33 29 40 44 42 46 43 40 39 37 38 36 34 33 38 43 43 36 38 33 27 31 39 41 38 34 34 24 24 27 27 26
50 50 50 50 49 49 37 33 33 41 43 27 29 37 40 41 41 40 40 39 41 40 36 32 36 36 42 43 41 35 37 29 23 27 33 38 33 34 35 32 28 21 19 26
50 50 50 50 50 49 40 32 24 35 37 37 31 33 36 36 43 40 42 39 41 38 35 37 33 34 39 41 41 44 40 31 28 21 27 29 28 30 31 27 12 18 25 29
50 50 50 50 50 50 40 33 27 35 24 29 33 36 38 36 35 41 42 36 36 34 30 31 30 33 35 39 41 36 34 26 29 30 30 30 29 29 29 26 28 19 29 29
50 49 49 49 49 49 38 30 32 34 33 37 35 35 35 36 37 38 36 33 36 36 31 32 29 32 32 31 34 32 31 24 27 25 30 29 27 29 29 30 30 30 31 30
49 49 49 49 49 48 38 38 39 36 34 34 33 33 36 36 38 39 40 37 34 32 34 36 36 36 36 33 31 29 28 22 21 20 29 28 23 28 29 30 33 32 27 33
49 49 49 49 49 48 41 39 36 31 28 33 34 38 39 36 37 34 38 38 34 38 41 38 36 33 32 30 31 33 25 24 22 19 24 11 28 34 33 30 33 31 33 37
49 48 48 49 49 48 39 38 37 34 26 35 36 37 36 36 36 34 35 38 38 38 35 30 29 27 30 30 31 29 31 25 17 13 16 25 28 30 27 27 28 31 31 32
48 48 48 49 49 49 40 37 38 35 30 29 36 33 35 30 30 31 34 39 38 35 26 23 21 17 25 25 27 33 31 32 24 22 12 9 22 31 36 33 23 29 29 30
48 48 48 49 49 49 41 38 38 36 27 33 36 32 31 33 30 28 30 32 32 32 18 14 13 19 28 22 19 25 25 25 21 20 17 20 27 31 33 22 21 29 28 28
48 48 48 48 49 48 42 38 38 37 30 34 38 39 33 32 31 25 29 26 27 24 20 20 13 12 22 22 16 26 24 23 22 24 19 15 30 32 23 27 30 29 28 28
48 48 48 48 49 48 44 36 39 40 35 34 37 39 40 39 37 30 29 28 27 25 21 21 21 20 17 18 18 29 19 22 22 24 20 30 30 29 30 30 29 28 27 27
47 48 48 48 49 47 44 36 36 36 32 34 35 35 41 43 40 39 30 30 33 30 28 21 21 19 24 16 21 24 29 31 26 26 27 28 30 30 30 29 27 27 27 26
47 47 48 48 48 47 44 36 36 36 33 27 32 43 38 42 42 40 38 35 34 32 29 22 19 22 29 22 27 24 29 29 27 26 28 29 29 30 30 29 28 27 27 26
47 48 48 48 47 46 41 38 38 37 35 27 30 36 39 42 41 39 38 35 32 29 26 21 21 28 26 31 26 23 31 25 22 19 28 28 27 30 31 28 27 27 26 24
47 48 47 47 46 44 35 30 37 39 34 29 23 32 35 38 39 38 36 33 30 28 26 23 27 31 27 19 20 29 32 33 32 23 30 28 29 30 30 27 27 26 25 25
47 47 47 47 45 39 31 30 37 41 34 25 22 27 34 36 38 38 34 35 30 29 27 26 26 28 30 23 21 29 32 32 32 31 30 27 29 26 30 30 30 29 26 25
47 47 46 46 46 43 36 38 42 37 29 27 20 23 28 37 29 32 31 32 31 29 27 27 27 29 28 26 26 31 32 32 31 32 32 30 29 29 28 28 27 26 24 23
46 45 45 38 34 31 37 46 41 35 31 22 22 20 16 31 29 32 30 29 23 30 22 26 27 19 23 25 28 29 28 27 30 32 31 31 29 27 27 27 25 23 23 23
44 37 31 24 34 44 41 34 27 27 28 29 21 26 22 28 19 20 22 23 22 19 24 27 24 19 28 30 30 30 32 32 31 26 25 27 26 26 26 25 24 24 23 21
31 27 30 37 42 34 33 23 21 27 23 26 26 26 24 31 21 21 25 22 24 21 22 23 22 20 26 29 29 29 27 27 30 28 28 28 28 26 23 22 22 21 20 16
32 35 39 37 34 31 28 25 27 25 24 25 23 25 27 28 31 23 25 27 28 23 26 24 20 18 24 25 26 25 26 27 26 27 26 26 26 24 21 19 17 14 13 9
40 35 32 31 27 22 20 16 22 16 23 23 23 21 23 27 28 21 24 21 25 29 25 20 17 22 25 24 24 23 24 24 23 22 22 21 18 18 16 13 9 10 6 -1
27 29 22 20 19 18 15 17 16 25 24 23 20 21 21 25 21 22 24 18 26 20 19 15 14 23 22 23 24 22 18 17 17 14 13 11 10 5 5 3 -1 4 2 -6
28 29 14 21 23 25 27 29 29 30 29 22 24 23 23 19 16 25 24 21 17 20 14 13 14 20 21 18 15 14 11 8 7 5 7 5 5 5 -0 -5 -4 2 -2 -4
26 26 24 26 26 26 28 29 29 33 31 26 25 22 15 17 22 23 20 20 14 18 15 11 24 17 13 12 13 10 9 8 6 7 6 5 4 6 3 -0 -1 -4 -3 -4
25 24 22 24 23 25 27 29 30 32 31 25 30 24 19 25 24 24 26 22 18 13 19 11 12 15 10 10 10 10 11 10 10 9 11 9 9 9 12 12 11 12 11 0

GFSNW_sfc_temp_099.txt.gz
Temp
50 50 50 50 50 50 44 38 30 44 46 32 34 30 39 44 43 47 43 39 38 37 38 37 34 35 38 42 43 37 39 37 32 33 41 43 41 36 36 31 28 30 30 32
50 50 49 49 50 49 39 36 35 45 44 28 30 37 40 42 42 41 38 38 40 41 36 33 36 37 42 44 41 38 40 34 28 30 36 40 35 37 37 35 33 26 26 33
50 50 50 49 50 50 43 34 28 33 38 37 33 33 36 37 44 40 42 39 40 39 35 38 34 35 40 42 42 43 43 34 31 28 30 34 31 33 35 32 25 27 31 35
50 50 50 50 50 49 42 34 30 36 26 31 33 35 39 36 35 42 43 38 38 37 32 33 31 35 37 40 41 38 38 30 32 34 33 33 32 33 33 30 32 26 33 33
50 50 50 50 50 49 40 31 33 37 34 38 33 34 36 37 37 39 37 35 37 38 33 34 31 35 35 35 38 36 35 28 31 28 33 33 30 33 33 33 33 32 34 33
50 50 49 49 49 48 39 39 40 38 35 34 33 34 37 37 39 39 42 39 36 34 36 39 40 40 39 39 36 33 32 29 26 22 30 30 25 31 33 34 36 35 28 36
49 49 49 49 49 48 42 41 39 34 31 35 36 39 40 38 39 35 39 40 37 40 44 42 40 37 36 37 36 37 30 29 27 24 26 15 29 35 35 30 34 33 33 35
49 49 49 49 49 50 42 41 39 36 30 37 37 37 36 37 38 36 36 38 39 42 39 34 31 31 32 31 34 34 36 31 24 21 22 28 29 30 28 27 28 29 28 32
48 48 48 48 49 49 42 40 40 38 33 33 38 36 37 33 33 34 36 40 40 38 31 29 24 21 27 26 29 34 34 35 28 23 17 16 24 32 36 33 24 30 29 28
48 48 48 49 49 49 42 40 40 39 31 36 38 35 34 36 34 32 34 35 36 37 26 22 22 24 30 24 22 26 26 26 23 23 22 25 28 31 34 22 22 29 28 27
48 48 48 48 49 49 44 40 40 40 33 36 39 41 35 35 35 31 33 32 32 30 26 26 22 24 27 25 22 27 26 25 24 26 21 18 31 32 25 27 30 29 27 27
48 48 48 48 49 48 45 39 41 41 37 37 40 41 42 42 41 35 33 33 30 31 27 28 28 26 26 24 23 30 24 26 25 25 24 30 31 29 30 30 28 28 27 26
48 48 48 49 48 48 45 38 38 39 35 36 37 37 43 44 42 43 35 34 36 33 34 29 29 27 31 25 25 26 31 32 27 26 28 29 30 30 30 29 28 27 27 26
47 48 48 48 48 47 44 38 38 39 36 31 35 44 40 45 43 41 40 37 37 36 36 31 29 29 33 29 30 28 31 32 28 26 28 29 30 30 30 28 28 27 27 26
48 48 48 47 46 45 42 39 39 39 39 31 33 39 41 42 42 40 40 39 37 35 33 30 29 33 33 32 30 27 33 27 27 25 30 30 28 30 31 28 27 27 26 25
47 47 47 47 46 44 38 32 39 40 37 33 29 36 38 40 41 40 38 37 35 35 33 31 33 34 33 26 25 30 34 34 33 28 31 30 30 30 30 28 27 27 27 27
47 47 47 47 46 41 34 33 38 42 37 31 28 31 37 39 41 38 37 37 35 36 33 32 33 34 35 28 25 31 33 33 32 32 32 28 30 27 31 30 29 28 28 27
46 47 47 46 46 43 37 39 42 39 32 32 26 28 33 39 34 33 34 34 35 33 32 33 32 34 33 28 28 32 33 33 33 32 33 33 31 31 30 30 30 27 25 25
46 46 45 39 35 34 36 45 41 37 35 28 28 25 23 35 32 34 33 33 27 33 30 31 33 28 25 30 30 31 31 30 31 32 31 31 30 28 29 28 28 26 24 25
45 39 33 27 35 43 42 35 30 30 31 31 26 30 29 32 27 28 30 29 29 26 30 32 27 27 30 32 35 35 33 33 33 28 28 29 28 28 27 27 27 27 25 23
34 31 30 37 42 36 32 25 26 27 27 29 29 30 29 34 28 29 30 28 28 23 27 26 24 25 28 31 31 32 34 34 32 33 33 34 32 28 26 25 25 24 23 20
36 36 39 36 33 29 26 25 27 26 26 27 27 29 32 32 34 30 28 28 28 23 29 25 23 24 28 28 27 28 30 30 30 31 30 30 29 27 24 22 20 18 16 14
37 35 31 30 28 18 15 16 22 21 26 27 28 27 30 31 32 27 28 22 26 31 27 25 24 26 27 26 26 26 27 27 26 24 24 24 22 21 20 16 13 14 10 8
30 30 22 17 20 19 20 22 22 27 29 27 27 26 28 28 27 26 25 25 27 22 21 23 23 25 25 26 26 24 22 21 21 19 18 15 13 10 9 9 10 9 8 4
28 28 18 21 25 25 28 29 30 31 30 28 28 27 28 25 23 28 27 22 20 23 23 25 23 24 23 22 20 18 16 15 13 14 12 10 10 9 6 5 9 8 6 6
28 27 23 24 25 27 29 30 30 33 32 29 29 24 21 22 24 24 22 22 20 25 24 22 22 21 20 19 18 16 14 14 12 12 12 10 10 12 10 8 9 7 9 8
26 22 22 24 22 25 27 30 31 34 32 29 31 20 21 27 25 24 28 23 26 21 21 22 21 21 17 15 15 14 13 13 13 13 14 13 12 12 15 15 14 14 14 11

GFSNW_sfc_temp_102.txt.gz
Temp
51 51 51 50 50 50 49 49 36 47 46 34 36 37 42 44 45 49 46 44 41 36 40 39 38 38 42 46 46 41 47 43 38 40 46 49 47 45 45 38 37 41 38 40
51 51 50 50 49 50 52 40 38 44 43 32 36 42 42 45 44 45 44 41 41 44 40 37 39 37 41 44 43 41 45 40 32 36 41 45 41 42 42 41 40 35 33 39
51 50 50 50 50 50 50 45 33 37 38 39 39 38 39 39 48 46 47 44 42 40 39 44 39 39 42 47 46 44 47 42 39 35 36 41 35 38 41 37 32 35 38 42
50 50 50 50 50 50 49 45 38 45 32 36 39 42 42 39 39 46 48 42 38 35 35 38 37 40 41 44 43 45 44 36 38 38 39 39 38 38 40 37 39 32 40 40
50 50 50 50 49 50 45 36 42 45 44 43 40 39 40 41 42 43 41 39 42 42 36 39 36 40 42 41 43 42 42 33 36 34 38 38 35 40 41 40 40 40 41 40
50 50 50 50 49 49 45 51 50 48 41 41 38 40 42 43 45 43 44 45 42 41 41 45 46 47 46 45 41 38 37 34 32 30 35 34 31 37 40 41 43 41 35 41
50 50 50 50 50 50 50 52 51 43 38 42 40 44 45 44 45 41 45 46 42 43 50 49 48 46 44 44 42 44 36 35 34 31 32 21 34 41 38 34 38 37 37 38
50 49 49 49 49 50 47 53 48 46 38 45 43 44 44 45 45 43 43 43 45 50 46 41 36 35 37 36 40 40 43 38 31 27 29 33 31 32 29 28 29 32 31 34
49 49 49 49 49 50 46 50 51 48 41 41 46 43 45 41 41 40 40 45 47 47 42 38 30 28 34 31 33 41 40 41 35 31 23 22 28 37 40 33 25 32 31 31
49 49 49 49 49 50 49 49 48 49 38 43 45 43 42 45 43 41 41 42 42 45 37 32 31 30 37 30 29 29 30 30 29 30 28 28 30 38 38 24 25 31 30 29
48 48 49 49 49 49 49 47 49 48 43 43 45 46 43 43 46 39 40 40 40 40 34 36 32 32 35 32 28 30 31 29 29 32 26 22 37 37 28 28 31 31 29 28
48 48 48 49 49 49 49 47 49 51 48 42 47 47 47 47 49 46 43 40 38 41 39 40 39 34 34 33 27 34 27 29 30 29 27 32 34 30 32 32 31 29 28 28
48 48 49 49 49 49 50 47 49 52 43 45 47 43 49 52 49 50 45 44 43 41 45 42 41 33 42 33 31 32 34 38 32 31 31 32 32 33 33 31 30 29 29 29
47 48 48 48 48 48 49 48 47 51 48 37 40 51 46 51 52 50 51 46 46 47 50 43 41 38 42 36 35 38 39 39 33 29 31 32 32 32 32 30 31 29 29 29
48 48 47 47 47 48 49 49 47 49 49 37 39 47 48 50 52 49 51 49 48 49 45 41 39 44 40 40 40 35 40 32 32 31 35 34 31 32 32 29 29 29 30 29
47 48 48 47 47 45 49 37 49 49 50 42 35 44 44 48 50 49 48 48 48 49 45 42 45 42 42 35 32 33 36 37 39 32 36 33 33 33 33 30 29 31 31 31
47 47 47 47 46 49 40 39 44 45 49 40 36 38 44 46 48 49 48 48 47 48 45 44 45 44 45 37 32 34 36 38 36 38 36 30 32 29 33 34 34 33 33 33
47 47 47 46 47 47 43 46 45 46 43 45 35 33 39 46 44 41 46 45 47 44 44 44 43 42 43 33 32 36 36 36 36 37 39 38 36 36 34 34 34 32 31 31
47 46 45 48 44 41 43 45 45 47 46 38 39 33 30 45 42 44 44 46 35 45 40 41 42 36 31 35 36 34 35 34 33 35 38 37 35 33 34 34 34 32 30 30
46 47 42 34 41 43 45 45 41 41 41 43 36 43 32 42 40 37 38 40 37 33 38 41 35 35 36 38 40 41 40 39 37 32 30 33 33 34 33 34 34 33 31 30
45 38 35 43 44 44 40 33 35 37 34 41 40 42 36 44 35 36 42 36 37 30 34 34 31 31 32 38 39 42 41 40 39 39 39 39 37 34 32 31 31 31 30 27
44 42 43 44 40 36 31 29 32 34 32 37 37 39 43 41 46 40 38 34 34 25 37 31 27 30 33 34 34 36 37 37 36 39 38 37 35 34 31 29 27 25 23 20
46 42 36 37 33 26 25 21 27 29 34 36 37 34 40 41 44 34 34 26 29 36 28 30 32 32 32 31 32 33 35 34 34 33 33 33 31 30 27 24 21 21 19 18
37 32 24 27 25 28 29 31 31 32 34 37 37 32 36 35 33 33 27 31 31 26 25 26 31 31 31 31 32 32 28 28 27 27 25 22 20 18 19 19 18 17 15 15
32 34 24 27 30 32 32 33 34 33 36 39 36 36 39 33 29 32 29 25 25 29 30 33 34 31 29 28 28 26 24 23 22 22 19 17 16 16 16 17 19 17 14 15
35 32 29 31 32 31 32 33 32 37 38 39 40 32 31 29 32 27 26 26 27 31 32 32 31 28 28 27 26 24 23 22 21 20 19 18 16 17 18 17 17 17 18 16
32 29 31 31 32 31 31 34 35 40 37 32 36 27 26 34 29 26 32 30 31 30 29 30 31 28 26 24 22 20 20 20 21 20 21 20 20 18 20 20 19 22 21 19

GFSNW_sfc_temp_105.txt.gz
Temp
51 51 51 51 51 51 47 49 37 44 46 34 36 39 46 47 51 54 51 50 47 45 46 47 44 47 49 52 54 48 51 46 39 45 51 53 51 49 46 34 35 37 39 39
50 51 51 51 51 51 52 40 38 44 43 32 34 44 46 49 47 49 47 46 49 50 44 40 38 46 47 49 51 48 50 42 37 39 46 51 48 50 49 47 45 38 34 37
50 50 51 50 50 51 47 43 34 35 37 39 40 39 41 43 52 50 50 44 48 46 43 48 41 40 44 49 50 44 47 45 42 35 39 47 41 45 48 44 35 39 42 46
49 50 51 51 50 50 44 43 40 46 32 35 43 44 44 42 42 50 51 43 44 43 38 41 41 45 44 47 45 48 47 38 43 44 44 44 43 44 45 42 43 36 42 44
48 50 51 50 50 50 41 38 44 49 47 46 41 40 41 44 46 47 44 42 45 45 39 42 41 44 45 43 46 46 46 39 41 39 43 43 40 44 45 45 45 45 45 44
47 49 50 50 50 49 40 49 53 49 44 44 39 40 45 46 47 48 49 47 46 42 42 49 52 53 50 49 46 43 42 39 37 35 39 39 35 41 44 46 49 46 39 43
49 49 50 50 49 50 50 48 48 43 39 42 42 45 47 46 46 43 47 49 47 49 55 54 52 51 49 49 47 49 40 39 38 36 36 25 38 45 42 39 43 43 42 42
49 49 50 49 49 49 47 47 47 44 37 46 46 46 47 47 49 44 48 49 53 55 51 43 38 38 39 40 45 45 48 42 35 30 32 37 38 38 31 30 32 34 36 39
48 49 49 49 49 49 49 49 50 47 39 44 50 47 48 43 43 43 44 50 54 52 45 41 33 31 38 33 37 47 44 45 37 35 28 25 31 40 45 38 29 36 34 35
48 49 49 49 49 50 50 46 53 48 38 48 49 44 45 50 47 43 45 45 45 50 39 34 34 34 43 33 31 31 34 35 33 34 31 29 35 42 43 25 26 33 32 31
48 49 49 49 49 49 48 45 54 49 45 46 51 51 47 49 50 43 46 43 43 42 36 38 36 35 39 36 31 35 34 33 33 37 29 24 40 40 29 29 34 33 31 31
48 49 49 49 49 49 48 45 54 55 49 45 52 51 53 51 52 51 48 46 46 47 43 45 44 37 38 36 30 39 30 32 32 31 29 33 37 32 34 36 34 31 31 30
48 48 49 49 49 49 49 51 53 53 46 47 50 47 53 57 55 56 47 50 49 46 51 47 46 37 44 35 33 35 38 42 33 33 32 33 33 36 35 36 33 33 33 31
48 49 49 49 49 49 49 53 54 52 52 40 42 56 49 57 57 56 56 52 53 52 53 47 45 41 46 40 40 38 43 42 35 30 32 35 34 35 35 33 33 31 31 32
48 48 48 48 49 49 54 53 55 56 50 40 42 50 53 56 56 55 55 53 51 51 48 45 44 49 43 43 44 40 45 34 33 33 38 36 32 34 35 32 31 32 33 32
47 47 47 48 48 49 53 39 55 56 60 45 37 49 48 53 54 53 51 53 53 55 50 48 50 47 45 37 33 36 41 43 42 34 39 37 35 36 37 33 33 35 35 35
47 47 47 47 47 54 46 43 48 48 55 43 38 40 47 51 52 53 52 53 53 53 52 49 50 48 48 40 35 37 40 38 38 39 38 32 35 32 37 37 37 36 37 36
47 47 47 48 48 48 49 50 48 49 51 50 38 37 41 50 47 45 53 51 53 49 49 49 48 47 48 37 35 39 39 37 38 38 41 40 40 39 38 39 38 35 34 35
47 47 47 53 51 49 49 45 47 55 52 42 42 35 32 49 46 46 49 51 40 50 45 46 46 40 35 39 36 37 38 36 35 39 40 40 38 37 37 37 37 35 34 34
46 51 48 38 46 44 47 50 46 48 49 50 43 48 35 45 43 41 43 46 42 35 42 46 39 38 42 44 42 41 40 40 41 35 33 35 35 36 37 37 38 37 35 34
51 43 37 48 45 50 48 38 39 42 38 46 46 44 39 49 37 38 47 40 41 33 36 37 34 35 38 40 40 42 42 40 40 42 41 41 40 38 37 36 36 35 34 32
48 47 49 50 46 42 35 34 37 39 36 42 41 44 46 46 52 42 42 38 38 28 43 35 31 33 38 37 38 38 39 40 40 41 40 40 39 38 37 34 33 30 28 23
51 47 41 42 38 29 29 24 31 32 38 40 41 37 42 46 47 38 38 28 30 42 31 32 33 34 37 37 36 35 37 38 39 38 39 38 36 36 33 29 26 24 23 23
43 36 26 31 28 32 34 35 34 34 38 41 40 35 38 41 35 36 29 33 36 28 27 28 35 33 34 36 37 35 32 32 32 31 31 30 28 26 25 24 24 21 20 20
37 38 26 29 33 34 33 35 34 35 41 42 40 40 41 36 30 33 32 27 26 32 30 32 35 33 32 31 31 30 29 29 28 27 25 24 22 22 21 22 24 22 19 20
37 35 31 34 33 31 33 33 33 39 41 44 44 35 32 31 34 29 28 29 29 31 31 33 33 31 31 30 29 29 28 27 26 25 24 22 21 22 22 22 21 20 21 19
35 30 33 34 33 32 32 36 38 46 41 33 39 30 29 37 33 30 35 30 31 31 31 33 32 31 30 29 27 26 26 26 26 25 24 23 24 22 23 22 22 25 24 23

GFSNW_sfc_temp_108.txt.gz
Temp
52 51 52 52 52 51 46 43 34 44 46 33 34 35 46 48 51 57 53 52 50 48 48 46 47 43 47 56 54 45 51 46 38 43 55 56 53 47 41 32 30 34 33 33
52 50 50 51 51 51 48 39 36 44 43 30 32 42 46 49 51 51 50 48 51 52 46 41 45 47 48 52 51 48 50 42 34 35 45 51 47 49 50 45 43 35 31 35
51 51 50 50 50 51 44 38 32 34 36 37 37 39 41 42 53 51 52 50 51 48 45 49 42 43 47 51 52 47 49 45 39 32 35 46 42 47 49 45 33 36 38 39
51 50 51 51 50 51 44 37 36 43 29 31 38 43 45 42 42 51 52 46 47 45 40 43 41 44 45 48 45 48 48 37 43 45 46 46 45 45 47 43 43 36 41 43
50 50 49 48 50 50 40 36 37 45 46 43 37 41 41 43 45 47 45 44 47 47 41 44 40 42 44 41 46 45 46 35 41 38 45 45 41 45 46 45 46 45 45 43
50 50 49 48 49 48 38 47 52 44 44 38 39 40 42 44 48 50 52 49 47 44 45 49 52 53 51 49 42 40 41 38 36 32 42 40 33 41 44 45 48 45 38 39
50 50 49 48 50 50 51 48 46 39 37 42 41 45 46 45 46 41 50 49 44 47 56 55 54 52 50 48 48 50 40 39 38 34 36 24 38 45 44 39 39 41 41 41
49 48 48 49 49 50 46 46 42 39 36 43 45 46 45 47 45 42 48 48 50 56 51 41 35 36 38 41 46 46 48 41 34 30 30 36 39 39 32 31 31 36 36 39
49 48 47 48 50 50 45 44 45 41 34 39 50 45 45 38 37 41 45 52 56 53 44 39 30 28 35 32 37 48 46 46 36 33 27 25 31 42 46 40 27 35 34 33
48 49 48 49 49 50 45 44 50 44 35 45 45 40 39 45 43 42 43 44 45 50 39 33 32 32 44 31 31 32 34 36 32 32 31 28 36 43 44 26 25 32 32 30
48 48 49 49 49 48 45 45 51 43 36 46 45 49 42 47 47 40 44 42 43 41 36 36 36 34 39 35 32 36 34 32 31 35 31 25 39 41 32 31 34 32 31 31
47 47 48 49 48 48 48 43 51 52 40 44 52 52 53 52 52 48 48 46 44 45 41 43 42 37 38 37 30 41 30 32 31 29 28 33 36 32 35 37 33 31 30 31
48 48 49 49 49 49 49 42 49 49 45 45 47 46 53 58 56 58 46 50 51 47 50 45 44 38 43 33 34 37 40 43 33 32 32 32 33 35 36 36 33 33 33 32
48 48 48 49 49 49 48 42 52 50 44 36 41 56 51 59 58 57 56 53 53 52 50 45 42 39 46 37 40 39 43 43 35 30 32 33 34 34 34 33 34 33 33 32
48 49 49 48 48 49 48 46 51 52 43 38 40 50 55 57 57 55 55 53 50 49 46 43 40 45 44 45 43 38 44 35 34 34 37 36 32 34 35 32 31 33 33 32
48 49 50 49 49 49 45 38 53 56 50 44 36 49 50 54 55 53 52 53 53 52 48 45 47 49 44 37 34 40 44 43 44 35 39 36 35 36 37 34 35 36 35 35
47 48 48 48 48 47 43 42 47 48 53 43 37 39 48 52 53 52 51 54 51 51 48 46 46 46 46 40 34 40 41 40 40 40 37 32 35 32 37 37 37 38 37 37
47 47 48 48 48 47 46 49 49 48 50 48 38 36 41 50 45 43 51 47 50 48 47 47 46 46 46 35 37 40 39 38 38 38 42 39 40 39 38 38 38 35 34 35
47 48 48 49 47 48 47 45 47 54 50 41 40 34 32 48 45 47 47 49 39 48 43 45 45 40 34 39 38 37 36 36 36 40 40 40 38 38 38 37 36 34 33 34
47 47 46 38 46 45 47 49 45 47 48 48 40 46 35 44 43 41 42 45 40 35 41 46 38 36 43 46 43 41 40 40 40 36 34 36 36 36 36 36 38 36 34 33
48 43 38 48 46 50 48 39 39 41 38 45 45 43 39 49 38 38 46 39 40 33 36 37 34 34 38 44 42 42 42 40 40 42 41 40 39 37 36 36 36 35 34 31
47 48 51 50 46 41 36 34 38 38 36 42 41 43 45 46 51 41 41 38 38 30 42 35 31 33 39 39 38 39 39 39 39 42 40 39 38 38 36 34 32 27 24 22
51 47 42 41 39 29 29 25 32 33 38 41 42 37 42 45 45 38 38 30 31 41 31 31 31 35 36 35 37 37 38 38 39 38 38 37 36 35 32 26 23 24 22 22
43 36 28 31 29 32 33 33 33 38 40 41 40 37 37 41 34 36 30 34 35 28 27 28 32 33 33 34 35 34 33 33 33 33 30 28 27 25 24 24 23 21 19 19
38 38 28 30 33 35 34 36 37 38 43 42 40 39 40 35 31 34 33 28 26 31 28 31 34 33 32 32 32 31 31 30 30 29 27 25 24 24 23 22 22 21 19 19
38 35 31 34 33 31 32 33 34 42 43 44 43 35 33 31 34 30 29 30 28 29 30 31 32 31 31 31 31 30 30 30 28 26 25 24 23 22 23 22 20 19 19 17
36 31 32 33 33 32 32 36 38 45 41 34 39 31 31 38 33 32 36 30 30 30 30 32 32 31 30 29 28 28 28 27 26 25 24 23 25 22 21 20 21 23 22 20

GFSNW_sfc_temp_111.txt.gz
Temp
52 52 52 52 52 51 47 42 33 44 46 34 33 33 39 48 47 54 50 48 46 43 46 44 43 41 45 51 50 44 46 41 33 39 49 52 49 42 41 28 28 30 30 30
51 51 51 51 52 51 42 37 35 44 43 29 31 36 41 47 45 45 44 46 48 48 43 38 41 42 48 50 47 42 43 33 29 33 40 45 42 45 43 40 36 30 26 29
51 51 51 51 51 51 45 36 29 34 35 35 34 35 35 37 45 47 49 49 50 43 41 45 39 38 46 49 50 47 47 41 35 28 32 37 36 43 46 40 27 30 33 34
51 51 51 51 51 51 43 37 34 34 27 30 34 39 38 37 38 48 51 45 43 40 35 39 38 42 43 47 47 46 43 33 39 43 43 44 43 43 45 41 40 30 37 33
50 51 50 50 51 50 39 33 35 39 34 37 33 34 36 36 40 42 42 40 43 43 37 40 34 38 37 38 43 42 43 31 37 34 43 43 38 43 42 43 43 42 37 30
50 50 50 50 51 48 35 39 41 38 34 35 32 32 36 39 42 47 48 45 43 42 43 45 46 44 46 45 39 36 36 32 32 26 38 38 29 36 40 40 37 39 29 34
50 50 50 49 49 48 42 42 39 36 31 33 34 39 39 41 43 38 46 45 40 46 53 49 49 45 44 44 43 44 36 34 32 28 31 21 34 42 41 34 33 36 37 35
50 49 49 49 49 49 43 44 41 37 31 37 40 39 40 43 45 40 40 47 49 50 46 36 32 32 35 39 45 43 44 35 28 24 25 32 35 37 30 27 27 32 32 33
49 49 49 49 49 49 45 43 44 39 34 31 40 38 42 35 34 35 36 48 48 47 34 29 25 23 30 30 36 46 43 40 28 27 21 17 26 39 41 37 20 31 30 29
48 48 48 48 49 49 45 42 45 40 33 36 39 36 35 40 36 33 37 38 40 43 28 25 26 28 39 28 28 30 30 29 27 25 22 26 36 41 43 19 20 30 31 28
48 48 48 47 49 49 45 42 44 41 34 36 43 43 38 39 38 32 36 33 35 34 29 30 29 28 32 31 29 32 29 26 25 27 21 18 34 36 28 26 31 30 29 27
47 48 48 47 48 49 47 40 47 47 37 38 45 46 46 46 47 39 39 37 38 36 33 34 36 31 29 31 25 37 23 26 25 26 24 31 34 30 34 35 29 30 29 29
47 48 48 49 49 49 47 42 43 43 38 39 41 41 49 54 51 52 38 40 44 41 42 34 35 32 33 25 25 30 35 39 26 27 29 30 32 35 34 34 31 31 32 30
47 47 48 48 48 48 47 41 44 43 40 32 37 53 48 54 53 51 49 46 47 45 42 34 33 30 37 30 33 30 35 37 30 28 30 32 32 33 32 32 32 31 29 27
48 48 48 48 49 49 45 43 44 45 40 31 35 46 51 53 51 49 49 46 42 38 36 32 30 36 34 36 34 30 37 30 25 26 31 31 29 32 34 31 30 31 30 29
48 48 49 49 48 48 41 33 45 47 45 34 30 43 45 49 49 48 47 45 42 40 36 35 39 44 35 27 26 36 37 37 38 30 33 31 33 34 35 32 32 32 31 31
48 48 47 47 48 43 37 36 42 45 43 34 30 32 43 47 47 44 43 45 42 40 37 35 35 36 38 27 25 33 36 34 34 34 33 30 33 30 35 36 36 36 34 33
48 48 48 48 48 46 40 43 47 44 41 39 30 29 33 45 36 35 42 39 40 38 36 37 35 36 36 26 29 34 35 35 35 36 36 35 37 37 36 36 35 33 32 32
47 48 48 44 42 38 40 47 46 45 42 31 32 27 23 41 36 37 37 39 29 39 32 34 35 27 26 31 30 31 32 34 34 37 37 37 34 34 33 34 33 31 30 29
48 46 39 33 41 46 46 45 37 37 39 39 31 36 28 36 31 31 32 32 29 26 30 35 26 24 37 38 35 35 37 38 39 33 32 33 32 32 32 33 33 32 30 29
41 36 33 41 46 42 40 30 30 32 31 36 36 34 31 40 29 28 35 28 29 25 27 26 23 23 28 36 35 36 39 39 38 37 34 34 34 31 31 32 32 31 30 25
43 42 45 43 40 34 31 27 30 30 30 34 32 34 36 37 41 30 31 28 27 25 30 24 19 28 32 32 35 35 36 37 37 38 36 33 34 33 31 28 26 23 22 19
44 42 38 35 31 21 22 18 26 25 30 33 33 30 33 36 35 27 27 19 19 31 19 20 24 31 33 33 34 33 34 35 35 34 34 33 32 30 27 23 21 21 19 17
35 30 18 23 20 25 27 30 27 30 31 33 32 29 28 28 25 25 20 23 26 16 15 22 27 31 32 32 33 33 32 32 30 29 28 25 23 22 23 22 21 19 17 14
31 31 20 23 28 28 31 29 30 31 34 32 29 28 29 24 19 26 25 18 17 19 23 26 30 32 31 31 32 31 29 27 25 25 23 22 22 20 19 19 18 18 17 14
32 30 27 28 26 28 31 32 32 35 32 31 30 27 22 21 25 23 19 23 20 24 27 30 31 30 30 30 30 29 28 27 24 23 23 22 21 19 19 18 17 15 15 11
31 27 32 32 30 30 31 33 30 35 30 27 27 22 25 27 24 25 25 21 27 27 28 30 30 29 28 28 27 26 25 23 23 22 22 22 22 19 19 17 18 20 16 12

GFSNW_sfc_temp_114.txt.gz
Temp
51 52 52 52 52 52 47 42 34 43 47 35 33 33 40 46 45 50 46 46 43 40 42 40 41 40 44 48 48 42 41 39 32 38 47 48 46 41 39 26 25 28 26 29
52 51 51 52 52 51 44 37 36 44 43 30 31 35 38 43 42 44 45 44 45 45 40 36 40 42 47 49 44 41 41 34 28 30 39 43 39 43 43 39 34 28 23 27
51 51 51 51 51 52 45 35 29 34 35 36 34 32 34 36 44 42 45 45 46 44 40 44 38 38 44 46 45 45 44 35 31 28 33 37 35 41 42 37 27 28 29 32
51 51 51 50 51 51 43 34 32 35 28 30 34 37 38 35 34 43 42 41 41 39 34 38 38 40 41 44 46 43 37 28 34 40 41 41 40 40 42 39 37 29 34 32
50 51 50 50 50 50 41 32 33 36 31 35 32 34 34 34 37 40 36 35 37 40 35 37 34 37 36 36 39 38 39 28 31 31 41 41 37 41 40 41 39 34 34 31
50 50 50 50 50 49 36 38 41 37 35 31 31 32 35 36 39 41 45 41 41 40 40 43 43 42 41 40 39 34 33 30 29 27 35 35 28 34 38 35 35 36 28 33
50 50 50 50 50 49 40 40 40 35 30 33 33 36 36 35 38 38 43 43 41 43 47 45 43 42 43 41 40 41 32 30 30 26 30 20 32 40 41 33 31 35 33 33
49 49 50 50 50 50 41 42 41 35 28 34 34 34 34 37 38 39 40 44 44 45 40 32 30 29 32 35 40 40 40 32 27 24 25 30 34 36 31 29 26 31 32 30
48 48 50 49 49 50 43 43 43 39 33 31 39 37 36 32 30 35 39 43 45 42 32 30 25 21 28 27 33 44 41 39 29 26 22 17 26 37 40 36 19 29 30 32
48 49 49 48 49 49 45 42 44 40 33 36 37 34 32 38 37 31 35 37 34 41 28 21 23 26 36 26 27 29 31 29 27 26 23 25 34 40 40 21 22 29 27 24
48 48 48 48 49 49 45 41 44 41 35 37 38 40 38 39 35 30 34 33 35 30 27 27 25 24 28 27 28 32 29 27 25 26 20 18 33 36 28 24 28 27 24 24
48 48 48 48 48 49 47 39 45 46 35 37 42 41 44 45 44 38 38 36 35 34 30 30 31 27 30 29 25 36 24 26 24 25 21 28 32 28 30 30 27 28 25 25
47 48 48 48 46 48 46 41 43 41 37 36 37 36 44 50 47 48 37 37 42 39 40 33 33 32 33 27 25 30 33 35 24 25 28 29 31 33 34 33 28 30 30 28
48 48 48 46 47 48 46 42 43 42 39 30 34 48 44 48 48 48 46 46 44 42 40 32 33 31 36 30 32 29 33 34 28 26 28 30 31 32 32 31 31 30 29 27
47 48 47 47 48 48 45 43 43 44 38 29 34 44 49 51 50 48 46 44 41 37 35 31 31 35 33 33 32 28 34 28 24 22 31 29 28 31 33 30 28 26 26 25
48 48 48 48 48 46 41 33 43 44 41 32 28 39 43 46 47 46 44 43 40 37 34 33 35 41 34 27 25 33 34 35 35 27 33 30 31 33 34 31 30 29 29 28
48 48 48 48 47 43 36 36 40 45 41 30 28 31 40 45 44 41 41 42 39 37 34 33 34 36 37 26 23 31 32 32 32 33 32 28 31 29 34 32 32 33 31 30
48 47 47 47 47 45 40 41 46 43 37 36 28 28 33 43 35 34 39 37 37 36 34 34 33 35 33 26 29 31 32 32 33 34 34 33 35 34 34 34 32 29 28 28
47 46 46 43 40 36 41 47 47 41 39 30 30 25 22 38 33 35 36 36 28 35 30 32 33 26 26 30 30 30 31 30 32 35 33 33 33 33 33 31 31 29 29 28
47 43 37 33 38 47 46 43 35 35 37 37 30 32 27 34 28 29 30 30 28 26 30 33 27 24 33 35 34 34 33 35 35 29 29 31 31 30 30 30 31 30 29 28
40 34 31 38 46 42 37 28 29 29 30 33 33 32 30 37 28 27 32 28 27 25 27 26 23 23 27 32 32 33 34 38 37 34 32 32 32 30 30 29 30 30 29 27
41 41 42 40 38 32 29 25 29 29 29 32 31 32 34 34 38 29 30 28 27 25 28 24 17 26 29 30 31 31 34 36 35 35 33 31 31 31 32 31 29 26 23 20
44 41 36 32 28 19 20 17 24 23 29 31 30 28 31 34 32 26 27 19 18 28 14 18 27 30 32 33 33 33 33 34 33 30 30 30 29 31 29 24 23 22 20 18
33 29 18 20 16 24 28 28 25 28 29 32 30 28 28 26 25 22 17 22 24 12 13 19 27 31 31 32 34 34 28 29 30 27 26 27 26 24 23 23 22 20 18 16
30 30 20 21 28 29 30 30 31 30 32 31 29 28 28 23 18 21 22 16 12 16 14 25 30 31 31 31 32 31 25 25 24 25 24 23 23 22 20 21 21 19 17 15
31 29 25 25 28 28 31 31 29 34 30 30 30 25 19 19 22 21 16 19 14 16 25 29 31 31 31 31 31 28 25 24 23 23 23 22 21 20 18 19 19 18 18 16
29 27 32 25 28 29 30 30 28 32 30 23 27 21 23 25 21 23 25 21 26 27 28 29 30 29 28 27 26 25 23 22 22 22 22 21 20 19 19 17 17 19 17 15

GFSNW_sfc_temp_117.txt.gz
Temp
52 52 52 52 53 51 48 41 34 42 48 36 35 33 38 45 44 49 45 43 42 39 40 38 38 39 42 47 46 39 42 37 33 37 43 47 44 40 35 23 23 29 21 22
51 51 52 52 52 51 44 37 37 43 44 31 31 37 40 43 42 42 42 41 43 43 38 35 39 40 44 46 44 39 40 34 26 30 35 40 36 41 41 37 33 28 22 26
51 51 51 51 52 52 44 35 30 33 37 37 33 33 34 36 43 42 43 42 44 40 38 41 38 38 43 45 44 46 44 35 32 28 29 34 32 38 41 37 27 28 28 32
51 51 51 51 51 51 45 36 31 35 27 31 34 36 35 33 34 42 43 40 39 37 34 37 37 38 40 42 45 40 38 30 32 34 36 35 33 36 38 37 35 29 32 31
51 50 50 50 50 51 41 31 32 35 31 35 33 34 33 33 36 40 36 35 38 38 35 36 36 38 37 37 39 36 35 28 29 29 37 39 34 40 40 40 40 38 35 32
49 50 50 50 50 49 38 37 40 37 33 30 31 32 33 35 38 40 42 39 37 37 37 40 43 44 41 41 38 33 33 30 29 27 33 33 28 33 40 34 34 34 28 33
49 49 49 50 49 48 39 40 37 32 28 30 31 35 35 34 37 35 40 41 37 41 46 43 41 40 40 39 39 40 30 30 29 26 28 21 30 38 39 33 32 33 32 33
49 49 49 49 50 49 39 40 38 35 29 34 34 34 35 36 37 36 37 41 42 44 41 32 30 29 31 34 39 38 36 30 27 22 24 28 31 33 30 31 28 31 31 29
48 48 49 49 49 50 43 39 42 38 32 31 38 33 35 31 32 33 35 44 44 41 33 30 26 23 28 26 31 40 37 35 29 25 20 17 24 37 40 35 21 30 29 28
48 48 48 49 49 49 43 40 44 40 33 34 38 34 32 37 35 32 34 37 37 38 30 25 22 24 33 24 25 27 28 28 25 25 22 24 32 38 39 19 23 28 29 28
47 47 48 48 49 49 45 42 45 40 33 37 40 41 36 36 36 29 34 34 33 31 28 29 26 23 27 27 23 29 28 25 24 27 21 17 34 37 28 25 26 26 22 24
47 47 48 48 48 48 47 39 45 45 36 36 42 42 42 41 41 34 33 33 33 34 30 31 30 27 25 26 22 33 22 26 24 27 23 29 31 28 28 29 27 23 22 25
47 47 47 48 49 49 47 41 43 42 37 36 38 35 43 46 46 46 36 34 42 37 39 33 32 28 28 22 22 28 32 34 25 26 27 28 29 31 30 30 27 25 25 25
47 47 48 48 48 49 47 41 43 42 39 29 34 45 40 46 46 45 45 44 43 41 38 29 27 29 34 29 31 30 33 34 28 26 28 30 30 29 29 28 29 28 28 26
47 47 48 47 46 48 45 43 44 44 37 29 32 40 43 45 45 46 46 43 39 34 33 29 28 32 34 30 32 27 34 28 25 24 31 29 29 29 31 28 28 28 25 24
47 47 47 45 47 47 40 34 42 44 43 31 28 40 41 45 46 44 43 41 37 35 33 31 35 40 35 28 25 32 33 35 35 29 33 30 30 31 33 29 28 27 27 26
47 48 47 46 47 42 36 33 38 45 40 29 27 30 39 44 43 40 39 40 37 36 33 33 34 35 36 28 26 29 31 31 31 31 31 28 29 28 32 29 29 31 28 27
47 47 47 48 47 46 39 41 46 44 35 33 24 26 31 41 33 33 37 35 35 34 32 33 33 34 32 26 30 29 29 30 31 31 33 31 32 34 32 30 29 27 26 26
47 47 47 43 41 37 39 47 46 40 37 28 28 24 20 36 31 33 34 34 27 34 30 31 32 26 25 29 31 28 29 29 29 32 31 31 30 31 29 29 27 26 26 26
46 43 38 33 38 47 46 41 34 33 34 35 28 31 27 33 28 28 29 29 27 26 29 31 26 23 30 33 32 32 31 32 32 27 27 28 28 29 29 28 29 29 28 27
39 32 32 38 45 39 37 29 28 27 29 32 31 31 29 35 27 27 30 27 27 25 27 26 23 22 26 30 31 32 32 33 32 31 32 32 32 30 28 28 30 30 28 26
39 40 42 40 37 32 29 24 28 29 29 29 29 31 33 33 36 29 29 28 27 25 27 24 17 22 27 29 30 31 31 32 33 32 30 29 31 30 30 29 28 27 24 21
42 39 35 33 28 18 19 16 23 22 27 29 29 27 30 32 31 26 26 20 18 27 15 17 22 28 30 32 32 31 31 31 30 29 30 30 30 31 30 26 24 22 20 19
32 29 18 21 17 26 28 27 25 27 26 30 29 26 26 25 25 22 19 21 23 11 11 17 27 29 31 32 33 31 27 26 27 26 26 26 27 26 25 23 22 20 18 17
29 29 19 23 28 30 30 31 30 27 28 30 27 26 27 22 19 21 21 17 10 15 12 22 30 31 31 31 30 22 20 21 22 24 25 24 24 23 22 22 22 20 18 18
31 29 26 26 25 28 31 31 28 33 28 28 29 24 20 19 22 19 15 17 11 14 25 29 31 31 31 31 30 25 19 20 22 23 24 24 23 22 20 20 20 19 18 17
29 27 28 21 24 28 30 31 31 31 30 24 26 20 22 24 20 21 26 18 23 26 28 29 30 30 30 29 27 22 20 22 22 22 23 21 20 20 20 18 19 19 18 17

GFSNW_sfc_temp_120.txt.gz
Temp
52 52 53 53 53 52 48 40 33 42 48 36 36 33 38 44 43 46 43 42 40 38 39 37 37 37 41 45 44 38 41 37 32 36 42 44 42 38 36 28 24 27 20 22
51 52 52 52 52 52 44 37 37 42 43 30 31 36 39 42 41 41 41 40 42 41 37 34 38 40 45 46 43 39 40 33 28 27 34 38 37 38 40 38 34 28 21 26
51 51 51 52 52 52 45 36 30 34 38 38 35 34 33 35 43 42 42 40 42 39 37 39 35 36 41 43 42 46 43 34 33 28 30 33 31 35 38 37 29 30 30 29
50 51 51 51 51 51 44 37 32 35 28 32 35 37 36 34 35 42 43 37 37 36 32 33 33 37 38 41 44 39 37 32 32 34 35 36 34 34 35 34 35 29 32 32
50 51 51 51 51 51 42 32 32 35 31 36 34 34 32 32 35 38 35 35 38 39 34 36 32 38 35 35 38 36 36 28 31 29 35 36 32 34 33 34 34 33 34 32
50 51 50 50 51 49 37 38 40 33 31 29 31 32 33 35 37 39 41 39 36 34 37 40 41 39 39 41 36 32 32 30 28 26 31 29 28 33 34 34 34 35 31 35
50 50 50 49 50 48 40 39 38 33 27 29 31 33 35 34 36 34 39 40 37 40 43 42 39 37 37 38 39 39 32 30 30 27 28 21 30 34 37 35 34 34 33 33
49 49 49 49 50 49 38 40 38 34 27 32 32 32 33 34 36 36 36 40 41 42 39 34 31 30 29 33 35 36 35 30 27 24 24 28 29 32 28 28 29 31 31 31
49 49 49 49 49 49 39 37 42 37 28 27 37 34 35 29 28 29 33 40 41 39 34 31 26 22 29 28 30 39 35 35 30 25 18 15 24 33 37 34 23 30 31 29
47 48 48 48 49 49 41 40 40 38 32 33 35 33 33 34 31 26 32 35 35 39 30 26 26 26 33 26 26 27 29 28 26 24 22 24 31 36 38 21 24 32 32 30
47 47 48 48 48 49 44 40 42 37 33 35 37 39 36 37 34 29 35 34 34 32 28 28 27 24 29 28 26 29 28 25 24 26 21 16 34 35 28 27 27 28 27 29
47 47 47 47 48 48 46 35 41 42 37 36 41 41 41 41 39 35 35 32 31 31 30 30 30 29 26 27 21 32 25 24 21 26 22 26 30 29 29 29 26 23 24 26
46 47 47 48 48 48 46 36 39 39 35 35 37 35 40 43 42 43 35 37 37 33 36 30 29 29 29 26 23 27 29 31 22 25 25 27 29 30 29 29 27 25 27 27
46 46 47 47 48 48 47 39 41 40 37 30 31 42 38 44 45 44 43 43 43 40 38 33 32 30 34 26 28 26 29 31 27 25 27 29 30 30 28 26 26 25 26 26
47 47 47 47 48 48 45 43 43 44 37 29 30 37 43 44 44 42 44 41 40 36 32 30 29 31 29 28 28 25 32 29 27 26 32 30 28 29 29 26 25 25 24 23
46 47 48 48 48 48 41 32 40 44 43 32 29 37 37 41 42 42 39 40 37 36 33 30 31 37 31 24 26 31 34 34 35 29 33 30 30 30 30 27 26 27 26 25
47 47 47 48 48 43 36 35 39 45 42 33 29 30 36 41 42 39 39 40 38 35 30 29 30 32 34 30 26 30 30 30 31 31 31 28 29 28 30 28 28 29 26 26
47 47 46 47 47 45 40 41 46 45 38 34 28 29 33 40 33 33 36 33 33 31 29 30 30 32 32 28 29 28 29 30 30 31 31 31 30 30 29 29 26 25 24 24
47 46 46 43 40 37 39 47 46 41 38 29 27 24 21 34 31 32 32 32 27 32 29 30 31 26 25 29 30 28 29 29 29 30 30 30 29 28 27 26 26 25 25 25
46 43 37 32 38 45 45 40 35 35 34 31 25 28 24 30 25 27 29 29 27 26 27 30 25 23 30 31 31 30 31 30 31 27 26 28 27 27 27 26 27 27 26 26
37 32 33 38 44 38 35 27 28 26 27 29 29 30 28 34 27 26 29 27 26 24 26 25 22 23 27 30 30 31 32 31 30 31 31 31 31 28 27 27 28 28 27 25
37 39 40 39 36 31 29 24 28 28 28 28 29 31 32 31 34 29 28 28 26 24 25 23 17 22 28 29 30 30 30 30 30 31 30 30 30 30 29 29 28 28 25 21
42 38 34 32 28 19 19 16 23 21 27 28 28 26 29 31 31 26 26 19 18 27 16 18 20 27 28 28 29 28 29 30 29 28 29 30 29 30 29 26 24 22 21 20
33 30 20 21 16 24 24 26 24 29 26 29 28 25 26 25 24 21 19 21 23 13 11 16 20 28 28 29 29 28 25 25 26 24 24 24 26 24 25 24 22 20 18 18
29 29 20 24 28 29 31 31 31 30 27 27 26 26 26 22 19 21 22 18 10 14 10 19 29 29 28 30 29 21 19 17 18 19 20 21 24 23 21 22 22 20 18 17
30 29 26 25 26 29 31 30 29 29 26 27 28 24 20 20 22 19 14 16 10 12 24 29 31 29 30 29 27 16 18 19 19 17 20 21 22 22 21 21 20 20 19 17
28 23 27 22 24 27 28 29 27 30 29 22 26 21 22 24 19 20 24 19 21 26 28 30 31 30 30 28 23 20 17 20 21 19 21 20 21 21 20 19 19 20 19 18